Wetterdaten: Samstag, 20.07.2019
Datum Zeit Temp. A. Pool Temp. Temp. 5cm Feuchte A. Luftdruck Regen Wind Richtung Richtung Sonnenschein ET UV Solar Taupunkt Windchill Windben Empfang
20.07.2019 00:00 20,9 C 24,4 C 18,9 C 64 % 1013,9 hPa 0,0 l/m 5,1 km/h (1 Bft) O 90 0 min 0,000 mm 0,0 UV-I 0 W/m 13,8 C 20,9 C 6,4 km/h (2 Bft) 97,87 %
20.07.2019 00:02 20,8 C 24,4 C 18,9 C 64 % 1013,9 hPa 0,0 l/m 4,2 km/h (1 Bft) O 92 0 min 0,000 mm 0,0 UV-I 0 W/m 13,7 C 20,8 C 6,4 km/h (2 Bft) 97,78 %
20.07.2019 00:04 20,8 C 24,4 C 18,3 C 64 % 1013,9 hPa 0,0 l/m 4,6 km/h (1 Bft) O 92 0 min 0,000 mm 0,0 UV-I 0 W/m 13,7 C 20,8 C 6,4 km/h (2 Bft) 100,00 %
20.07.2019 00:06 20,8 C 24,4 C 18,3 C 64 % 1013,9 hPa 0,0 l/m 4,8 km/h (1 Bft) O 94 0 min 0,000 mm 0,0 UV-I 0 W/m 13,7 C 20,8 C 9,7 km/h (2 Bft) 97,87 %
20.07.2019 00:08 20,7 C 24,4 C 18,9 C 64 % 1013,9 hPa 0,0 l/m 4,5 km/h (1 Bft) O 94 0 min 0,000 mm 0,0 UV-I 0 W/m 13,6 C 20,7 C 6,4 km/h (2 Bft) 97,87 %
20.07.2019 00:10 20,7 C 24,4 C 18,9 C 64 % 1013,9 hPa 0,0 l/m 4,7 km/h (1 Bft) O 93 0 min 0,000 mm 0,0 UV-I 0 W/m 13,6 C 20,7 C 6,4 km/h (2 Bft) 95,74 %
20.07.2019 00:12 20,7 C 24,4 C 18,3 C 65 % 1013,9 hPa 0,0 l/m 4,1 km/h (1 Bft) O 93 0 min 0,000 mm 0,0 UV-I 0 W/m 13,9 C 20,7 C 6,4 km/h (2 Bft) 96,00 %
20.07.2019 00:14 20,6 C 23,9 C 18,3 C 65 % 1013,9 hPa 0,0 l/m 3,8 km/h (1 Bft) O 93 0 min 0,000 mm 0,0 UV-I 0 W/m 13,8 C 20,6 C 6,4 km/h (2 Bft) 97,87 %
20.07.2019 00:16 20,6 C 23,9 C 18,3 C 65 % 1013,9 hPa 0,0 l/m 3,9 km/h (1 Bft) O 94 0 min 0,000 mm 0,0 UV-I 0 W/m 13,8 C 20,6 C 4,8 km/h (1 Bft) 97,87 %
20.07.2019 00:18 20,5 C 23,9 C 18,3 C 65 % 1013,9 hPa 0,0 l/m 3,7 km/h (1 Bft) O 94 0 min 0,000 mm 0,0 UV-I 0 W/m 13,7 C 20,5 C 4,8 km/h (1 Bft) 96,00 %
20.07.2019 00:20 20,4 C 23,9 C 18,3 C 66 % 1013,9 hPa 0,0 l/m 3,4 km/h (1 Bft) O 94 0 min 0,000 mm 0,0 UV-I 0 W/m 13,8 C 20,4 C 4,8 km/h (1 Bft) 97,87 %
20.07.2019 00:22 20,3 C 24,4 C 17,8 C 66 % 1013,9 hPa 0,0 l/m 3,4 km/h (1 Bft) O 94 0 min 0,000 mm 0,0 UV-I 0 W/m 13,7 C 20,3 C 4,8 km/h (1 Bft) 97,37 %
20.07.2019 00:24 20,2 C 24,4 C 17,8 C 67 % 1013,9 hPa 0,0 l/m 3,7 km/h (1 Bft) O 94 0 min 0,000 mm 0,0 UV-I 0 W/m 13,9 C 20,2 C 4,8 km/h (1 Bft) 93,62 %
20.07.2019 00:26 19,9 C 23,9 C 17,8 C 68 % 1013,9 hPa 0,0 l/m 3,4 km/h (1 Bft) O 94 0 min 0,000 mm 0,0 UV-I 0 W/m 13,8 C 19,9 C 4,8 km/h (1 Bft) 97,87 %
20.07.2019 00:28 19,4 C 23,9 C 17,2 C 70 % 1013,9 hPa 0,0 l/m 4,1 km/h (1 Bft) O 94 0 min 0,000 mm 0,0 UV-I 0 W/m 13,8 C 19,4 C 4,8 km/h (1 Bft) 96,00 %
20.07.2019 00:30 19,2 C 23,9 C 17,2 C 71 % 1013,9 hPa 0,0 l/m 3,7 km/h (1 Bft) O 94 0 min 0,000 mm 0,0 UV-I 0 W/m 13,8 C 19,2 C 4,8 km/h (1 Bft) 97,87 %
20.07.2019 00:32 19,3 C 23,9 C 17,2 C 71 % 1013,9 hPa 0,0 l/m 4,0 km/h (1 Bft) O 94 0 min 0,000 mm 0,0 UV-I 0 W/m 13,9 C 19,3 C 4,8 km/h (1 Bft) 97,87 %
20.07.2019 00:34 19,3 C 23,9 C 16,7 C 71 % 1013,9 hPa 0,0 l/m 3,8 km/h (1 Bft) O 94 0 min 0,000 mm 0,0 UV-I 0 W/m 13,9 C 19,3 C 4,8 km/h (1 Bft) 96,00 %
20.07.2019 00:36 19,4 C 23,9 C 16,7 C 71 % 1013,9 hPa 0,0 l/m 3,0 km/h (1 Bft) O 94 0 min 0,000 mm 0,0 UV-I 0 W/m 14,0 C 19,4 C 4,8 km/h (1 Bft) 97,37 %
20.07.2019 00:38 19,5 C 23,9 C 16,7 C 70 % 1013,9 hPa 0,0 l/m 2,6 km/h (1 Bft) O 94 0 min 0,000 mm 0,0 UV-I 0 W/m 13,9 C 19,5 C 3,2 km/h (1 Bft) 96,00 %
20.07.2019 00:40 19,5 C 23,9 C 16,7 C 71 % 1013,9 hPa 0,0 l/m 2,8 km/h (1 Bft) O 94 0 min 0,000 mm 0,0 UV-I 0 W/m 14,1 C 19,5 C 4,8 km/h (1 Bft) 98,00 %
20.07.2019 00:42 19,4 C 23,9 C 16,1 C 71 % 1013,9 hPa 0,0 l/m 4,0 km/h (1 Bft) O 94 0 min 0,000 mm 0,0 UV-I 0 W/m 14,0 C 19,4 C 6,4 km/h (2 Bft) 95,74 %
20.07.2019 00:44 19,4 C 23,9 C 16,1 C 71 % 1013,9 hPa 0,0 l/m 5,2 km/h (1 Bft) O 81 0 min 0,000 mm 0,0 UV-I 0 W/m 14,0 C 19,4 C 8,0 km/h (2 Bft) 97,87 %
20.07.2019 00:46 19,6 C 23,9 C 16,7 C 71 % 1013,8 hPa 0,0 l/m 4,2 km/h (1 Bft) O 80 0 min 0,000 mm 0,0 UV-I 0 W/m 14,2 C 19,6 C 6,4 km/h (2 Bft) 94,00 %
20.07.2019 00:48 19,4 C 23,9 C 16,7 C 71 % 1013,8 hPa 0,0 l/m 3,4 km/h (1 Bft) O 80 0 min 0,000 mm 0,0 UV-I 0 W/m 14,0 C 19,4 C 4,8 km/h (1 Bft) 97,87 %
20.07.2019 00:50 19,4 C 23,9 C 16,7 C 71 % 1013,9 hPa 0,0 l/m 3,6 km/h (1 Bft) O 81 0 min 0,000 mm 0,0 UV-I 0 W/m 14,0 C 19,4 C 4,8 km/h (1 Bft) 97,92 %
20.07.2019 00:52 19,3 C 23,9 C 16,7 C 72 % 1013,9 hPa 0,0 l/m 4,7 km/h (1 Bft) O 94 0 min 0,000 mm 0,0 UV-I 0 W/m 14,1 C 19,3 C 6,4 km/h (2 Bft) 100,00 %
20.07.2019 00:54 19,3 C 23,9 C 16,7 C 72 % 1013,9 hPa 0,0 l/m 4,2 km/h (1 Bft) O 94 0 min 0,000 mm 0,0 UV-I 0 W/m 14,1 C 19,3 C 6,4 km/h (2 Bft) 97,87 %
20.07.2019 00:56 19,3 C 23,9 C 16,7 C 72 % 1013,8 hPa 0,0 l/m 3,3 km/h (1 Bft) O 94 0 min 0,000 mm 0,0 UV-I 0 W/m 14,1 C 19,3 C 4,8 km/h (1 Bft) 97,87 %
20.07.2019 00:58 19,2 C 23,9 C 16,7 C 73 % 1013,8 hPa 0,0 l/m 4,0 km/h (1 Bft) O 94 0 min 0,000 mm 0,0 UV-I 0 W/m 14,2 C 19,2 C 6,4 km/h (2 Bft) 95,74 %
20.07.2019 01:00 19,2 C 23,9 C 16,7 C 73 % 1013,9 hPa 0,0 l/m 3,4 km/h (1 Bft) O 94 0 min 0,025 mm 0,0 UV-I 0 W/m 14,2 C 19,2 C 6,4 km/h (2 Bft) 95,74 %
20.07.2019 01:02 19,2 C 23,9 C 16,7 C 73 % 1013,9 hPa 0,0 l/m 2,7 km/h (1 Bft) O 94 0 min 0,000 mm 0,0 UV-I 0 W/m 14,2 C 19,2 C 4,8 km/h (1 Bft) 94,74 %
20.07.2019 01:04 19,2 C 23,9 C 16,7 C 73 % 1013,9 hPa 0,0 l/m 2,4 km/h (1 Bft) O 94 0 min 0,000 mm 0,0 UV-I 0 W/m 14,2 C 19,2 C 3,2 km/h (1 Bft) 97,87 %
20.07.2019 01:06 19,2 C 23,9 C 16,1 C 73 % 1013,9 hPa 0,0 l/m 2,4 km/h (1 Bft) O 94 0 min 0,000 mm 0,0 UV-I 0 W/m 14,2 C 19,2 C 3,2 km/h (1 Bft) 95,74 %
20.07.2019 01:08 19,2 C 23,9 C 16,1 C 73 % 1013,9 hPa 0,0 l/m 2,4 km/h (1 Bft) O 94 0 min 0,000 mm 0,0 UV-I 0 W/m 14,2 C 19,2 C 3,2 km/h (1 Bft) 93,62 %
20.07.2019 01:10 19,1 C 23,9 C 16,1 C 73 % 1013,9 hPa 0,0 l/m 2,4 km/h (1 Bft) O 94 0 min 0,000 mm 0,0 UV-I 0 W/m 14,1 C 19,1 C 3,2 km/h (1 Bft) 95,74 %
20.07.2019 01:12 18,9 C 23,9 C 16,1 C 74 % 1013,8 hPa 0,0 l/m 2,6 km/h (1 Bft) O 94 0 min 0,000 mm 0,0 UV-I 0 W/m 14,2 C 18,9 C 3,2 km/h (1 Bft) 97,87 %
20.07.2019 01:14 19,0 C 23,9 C 16,1 C 74 % 1013,9 hPa 0,0 l/m 2,8 km/h (1 Bft) O 94 0 min 0,000 mm 0,0 UV-I 0 W/m 14,3 C 19,0 C 3,2 km/h (1 Bft) 95,74 %
20.07.2019 01:16 19,1 C 23,9 C 15,6 C 73 % 1013,9 hPa 0,0 l/m 2,6 km/h (1 Bft) O 94 0 min 0,000 mm 0,0 UV-I 0 W/m 14,1 C 19,1 C 3,2 km/h (1 Bft) 93,62 %
20.07.2019 01:18 19,0 C 23,9 C 15,6 C 73 % 1013,9 hPa 0,0 l/m 2,2 km/h (1 Bft) O 94 0 min 0,000 mm 0,0 UV-I 0 W/m 14,0 C 19,0 C 3,2 km/h (1 Bft) 95,74 %
20.07.2019 01:20 18,9 C 23,9 C 16,1 C 74 % 1013,9 hPa 0,0 l/m 3,0 km/h (1 Bft) O 94 0 min 0,000 mm 0,0 UV-I 0 W/m 14,2 C 18,9 C 4,8 km/h (1 Bft) 95,74 %
20.07.2019 01:22 18,8 C 23,9 C 16,1 C 74 % 1013,9 hPa 0,0 l/m 2,3 km/h (1 Bft) O 94 0 min 0,000 mm 0,0 UV-I 0 W/m 14,1 C 18,8 C 3,2 km/h (1 Bft) 95,83 %
20.07.2019 01:24 18,7 C 23,9 C 15,6 C 74 % 1013,9 hPa 0,0 l/m 2,7 km/h (1 Bft) O 94 0 min 0,000 mm 0,0 UV-I 0 W/m 14,0 C 18,7 C 3,2 km/h (1 Bft) 93,62 %
20.07.2019 01:26 18,7 C 23,9 C 15,6 C 74 % 1013,9 hPa 0,0 l/m 1,5 km/h (1 Bft) O 94 0 min 0,000 mm 0,0 UV-I 0 W/m 14,0 C 18,7 C 3,2 km/h (1 Bft) 95,74 %
20.07.2019 01:28 18,7 C 23,9 C 15,6 C 75 % 1013,9 hPa 0,0 l/m 2,1 km/h (1 Bft) O 94 0 min 0,000 mm 0,0 UV-I 0 W/m 14,2 C 18,7 C 3,2 km/h (1 Bft) 95,74 %
20.07.2019 01:30 18,7 C 23,9 C 15,6 C 75 % 1013,8 hPa 0,0 l/m 1,1 km/h (1 Bft) O 94 0 min 0,000 mm 0,0 UV-I 0 W/m 14,2 C 18,7 C 3,2 km/h (1 Bft) 95,74 %
20.07.2019 01:32 18,7 C 23,9 C 15,6 C 75 % 1013,8 hPa 0,0 l/m 2,7 km/h (1 Bft) O 94 0 min 0,000 mm 0,0 UV-I 0 W/m 14,2 C 18,7 C 4,8 km/h (1 Bft) 95,74 %
20.07.2019 01:34 18,7 C 23,9 C 15,6 C 75 % 1013,8 hPa 0,0 l/m 1,9 km/h (1 Bft) O 94 0 min 0,000 mm 0,0 UV-I 0 W/m 14,2 C 18,7 C 3,2 km/h (1 Bft) 97,87 %
20.07.2019 01:36 18,6 C 23,9 C 15,6 C 75 % 1013,8 hPa 0,0 l/m 1,9 km/h (1 Bft) O 94 0 min 0,000 mm 0,0 UV-I 0 W/m 14,1 C 18,6 C 3,2 km/h (1 Bft) 97,87 %
20.07.2019 01:38 18,4 C 23,9 C 15,6 C 75 % 1013,8 hPa 0,0 l/m 2,9 km/h (1 Bft) O 94 0 min 0,000 mm 0,0 UV-I 0 W/m 13,9 C 18,4 C 4,8 km/h (1 Bft) 98,00 %
20.07.2019 01:40 18,2 C 23,9 C 15,6 C 76 % 1013,8 hPa 0,0 l/m 3,5 km/h (1 Bft) O 94 0 min 0,000 mm 0,0 UV-I 0 W/m 13,9 C 18,2 C 4,8 km/h (1 Bft) 93,62 %
20.07.2019 01:42 18,1 C 23,9 C 15,6 C 77 % 1013,8 hPa 0,0 l/m 4,2 km/h (1 Bft) O 80 0 min 0,000 mm 0,0 UV-I 0 W/m 14,0 C 18,1 C 4,8 km/h (1 Bft) 97,87 %
20.07.2019 01:44 17,9 C 23,9 C 16,1 C 78 % 1013,9 hPa 0,0 l/m 3,2 km/h (1 Bft) O 80 0 min 0,000 mm 0,0 UV-I 0 W/m 14,0 C 17,9 C 4,8 km/h (1 Bft) 89,36 %
20.07.2019 01:46 18,0 C 23,9 C 16,1 C 77 % 1013,8 hPa 0,0 l/m 3,5 km/h (1 Bft) O 80 0 min 0,000 mm 0,0 UV-I 0 W/m 13,9 C 18,0 C 4,8 km/h (1 Bft) 95,74 %
20.07.2019 01:48 18,1 C 23,9 C 16,1 C 77 % 1013,9 hPa 0,0 l/m 3,3 km/h (1 Bft) O 80 0 min 0,000 mm 0,0 UV-I 0 W/m 14,0 C 18,1 C 4,8 km/h (1 Bft) 97,37 %
20.07.2019 01:50 18,1 C 23,9 C 16,1 C 77 % 1013,8 hPa 0,0 l/m 2,3 km/h (1 Bft) O 80 0 min 0,000 mm 0,0 UV-I 0 W/m 14,0 C 18,1 C 3,2 km/h (1 Bft) 97,87 %
20.07.2019 01:52 18,2 C 23,9 C 16,1 C 77 % 1013,9 hPa 0,0 l/m 1,8 km/h (1 Bft) O 80 0 min 0,000 mm 0,0 UV-I 0 W/m 14,1 C 18,2 C 3,2 km/h (1 Bft) 97,87 %
20.07.2019 01:54 18,3 C 23,9 C 16,1 C 76 % 1013,9 hPa 0,0 l/m 2,5 km/h (1 Bft) O 80 0 min 0,000 mm 0,0 UV-I 0 W/m 14,0 C 18,3 C 3,2 km/h (1 Bft) 97,87 %
20.07.2019 01:56 18,3 C 23,9 C 16,1 C 76 % 1013,9 hPa 0,0 l/m 2,8 km/h (1 Bft) O 80 0 min 0,000 mm 0,0 UV-I 0 W/m 14,0 C 18,3 C 4,8 km/h (1 Bft) 97,87 %
20.07.2019 01:58 18,3 C 23,9 C 16,1 C 77 % 1013,9 hPa 0,0 l/m 2,7 km/h (1 Bft) O 80 0 min 0,000 mm 0,0 UV-I 0 W/m 14,2 C 18,3 C 3,2 km/h (1 Bft) 96,00 %
20.07.2019 02:00 18,2 C 23,9 C 16,1 C 77 % 1013,8 hPa 0,0 l/m 2,8 km/h (1 Bft) O 80 0 min 0,026 mm 0,0 UV-I 0 W/m 14,1 C 18,2 C 3,2 km/h (1 Bft) 95,74 %
20.07.2019 02:02 18,2 C 23,9 C 16,1 C 77 % 1013,8 hPa 0,0 l/m 2,7 km/h (1 Bft) O 80 0 min 0,000 mm 0,0 UV-I 0 W/m 14,1 C 18,2 C 4,8 km/h (1 Bft) 100,00 %
20.07.2019 02:04 18,1 C 23,9 C 16,1 C 77 % 1013,8 hPa 0,0 l/m 2,6 km/h (1 Bft) O 80 0 min 0,000 mm 0,0 UV-I 0 W/m 14,0 C 18,1 C 3,2 km/h (1 Bft) 100,00 %
20.07.2019 02:06 18,1 C 23,9 C 16,1 C 77 % 1013,7 hPa 0,0 l/m 2,2 km/h (1 Bft) O 80 0 min 0,000 mm 0,0 UV-I 0 W/m 14,0 C 18,1 C 3,2 km/h (1 Bft) 100,00 %
20.07.2019 02:08 18,2 C 23,9 C 15,6 C 77 % 1013,7 hPa 0,0 l/m 1,9 km/h (1 Bft) O 80 0 min 0,000 mm 0,0 UV-I 0 W/m 14,1 C 18,2 C 3,2 km/h (1 Bft) 100,00 %
20.07.2019 02:10 18,2 C 23,9 C 15,6 C 77 % 1013,7 hPa 0,0 l/m 1,5 km/h (1 Bft) O 80 0 min 0,000 mm 0,0 UV-I 0 W/m 14,1 C 18,2 C 3,2 km/h (1 Bft) 100,00 %
20.07.2019 02:12 18,3 C 23,9 C 15,6 C 77 % 1013,7 hPa 0,0 l/m 1,6 km/h (1 Bft) O 80 0 min 0,000 mm 0,0 UV-I 0 W/m 14,2 C 18,3 C 3,2 km/h (1 Bft) 100,00 %
20.07.2019 02:14 18,3 C 23,9 C 15,6 C 77 % 1013,7 hPa 0,0 l/m 3,1 km/h (1 Bft) O-SO 107 0 min 0,000 mm 0,0 UV-I 0 W/m 14,2 C 18,3 C 4,8 km/h (1 Bft) 100,00 %
20.07.2019 02:16 18,3 C 23,9 C 16,1 C 76 % 1013,7 hPa 0,0 l/m 3,1 km/h (1 Bft) O-SO 107 0 min 0,000 mm 0,0 UV-I 0 W/m 14,0 C 18,3 C 6,4 km/h (2 Bft) 97,87 %
20.07.2019 02:18 18,4 C 23,9 C 16,1 C 76 % 1013,7 hPa 0,0 l/m 3,7 km/h (1 Bft) O 86 0 min 0,000 mm 0,0 UV-I 0 W/m 14,1 C 18,4 C 4,8 km/h (1 Bft) 95,74 %
20.07.2019 02:20 18,5 C 23,9 C 16,1 C 75 % 1013,7 hPa 0,0 l/m 4,3 km/h (1 Bft) O 85 0 min 0,000 mm 0,0 UV-I 0 W/m 14,0 C 18,5 C 6,4 km/h (2 Bft) 97,87 %
20.07.2019 02:22 18,6 C 23,9 C 16,7 C 74 % 1013,7 hPa 0,0 l/m 4,2 km/h (1 Bft) O 94 0 min 0,000 mm 0,0 UV-I 0 W/m 13,9 C 18,6 C 6,4 km/h (2 Bft) 100,00 %
20.07.2019 02:24 18,7 C 23,9 C 16,7 C 74 % 1013,7 hPa 0,0 l/m 4,0 km/h (1 Bft) O 98 0 min 0,000 mm 0,0 UV-I 0 W/m 14,0 C 18,7 C 6,4 km/h (2 Bft) 100,00 %
20.07.2019 02:26 18,7 C 23,9 C 16,7 C 74 % 1013,7 hPa 0,0 l/m 5,0 km/h (1 Bft) O 96 0 min 0,000 mm 0,0 UV-I 0 W/m 14,0 C 18,7 C 9,7 km/h (2 Bft) 97,87 %
20.07.2019 02:28 18,7 C 23,9 C 16,7 C 74 % 1013,7 hPa 0,0 l/m 5,6 km/h (1 Bft) O-SO 105 0 min 0,000 mm 0,0 UV-I 0 W/m 14,0 C 18,7 C 9,7 km/h (2 Bft) 97,87 %
20.07.2019 02:30 18,7 C 23,9 C 16,7 C 74 % 1013,7 hPa 0,0 l/m 3,7 km/h (1 Bft) O-SO 103 0 min 0,000 mm 0,0 UV-I 0 W/m 14,0 C 18,7 C 6,4 km/h (2 Bft) 98,00 %
20.07.2019 02:32 18,7 C 23,9 C 16,7 C 74 % 1013,7 hPa 0,0 l/m 3,9 km/h (1 Bft) O 98 0 min 0,000 mm 0,0 UV-I 0 W/m 14,0 C 18,7 C 6,4 km/h (2 Bft) 100,00 %
20.07.2019 02:34 18,6 C 23,9 C 16,7 C 74 % 1013,7 hPa 0,0 l/m 3,6 km/h (1 Bft) O-SO 114 0 min 0,000 mm 0,0 UV-I 0 W/m 13,9 C 18,6 C 9,7 km/h (2 Bft) 100,00 %
20.07.2019 02:36 18,5 C 23,9 C 16,7 C 74 % 1013,7 hPa 0,0 l/m 3,9 km/h (1 Bft) O-SO 109 0 min 0,000 mm 0,0 UV-I 0 W/m 13,8 C 18,5 C 6,4 km/h (2 Bft) 95,74 %
20.07.2019 02:38 18,4 C 23,9 C 16,7 C 75 % 1013,7 hPa 0,0 l/m 3,1 km/h (1 Bft) O-SO 107 0 min 0,000 mm 0,0 UV-I 0 W/m 13,9 C 18,4 C 6,4 km/h (2 Bft) 97,22 %
20.07.2019 02:40 18,3 C 23,9 C 16,7 C 75 % 1013,7 hPa 0,0 l/m 3,0 km/h (1 Bft) O-SO 107 0 min 0,000 mm 0,0 UV-I 0 W/m 13,8 C 18,3 C 4,8 km/h (1 Bft) 98,00 %
20.07.2019 02:42 18,2 C 23,9 C 16,1 C 75 % 1013,7 hPa 0,0 l/m 2,5 km/h (1 Bft) O-SO 107 0 min 0,000 mm 0,0 UV-I 0 W/m 13,7 C 18,2 C 4,8 km/h (1 Bft) 97,87 %
20.07.2019 02:44 17,9 C 23,9 C 16,1 C 77 % 1013,7 hPa 0,0 l/m 2,2 km/h (1 Bft) O-SO 107 0 min 0,000 mm 0,0 UV-I 0 W/m 13,8 C 17,9 C 3,2 km/h (1 Bft) 95,74 %
20.07.2019 02:46 17,6 C 23,9 C 16,1 C 78 % 1013,7 hPa 0,0 l/m 1,0 km/h (0 Bft) O-SO 107 0 min 0,000 mm 0,0 UV-I 0 W/m 13,7 C 17,6 C 3,2 km/h (1 Bft) 97,87 %
20.07.2019 02:48 17,4 C 23,9 C 15,6 C 79 % 1013,7 hPa 0,0 l/m 1,4 km/h (1 Bft) O-SO 107 0 min 0,000 mm 0,0 UV-I 0 W/m 13,7 C 17,4 C 1,6 km/h (1 Bft) 97,87 %
20.07.2019 02:50 17,3 C 23,9 C 15,6 C 80 % 1013,7 hPa 0,0 l/m 1,3 km/h (1 Bft) O-SO 107 0 min 0,000 mm 0,0 UV-I 0 W/m 13,8 C 17,3 C 1,6 km/h (1 Bft) 97,87 %
20.07.2019 02:52 17,3 C 23,9 C 15,6 C 80 % 1013,7 hPa 0,0 l/m 1,2 km/h (1 Bft) O-SO 107 0 min 0,000 mm 0,0 UV-I 0 W/m 13,8 C 17,3 C 1,6 km/h (1 Bft) 97,87 %
20.07.2019 02:54 17,3 C 23,9 C 15,0 C 80 % 1013,7 hPa 0,0 l/m 1,2 km/h (1 Bft) O-SO 107 0 min 0,000 mm 0,0 UV-I 0 W/m 13,8 C 17,3 C 1,6 km/h (1 Bft) 97,87 %
20.07.2019 02:56 17,3 C 23,9 C 15,0 C 80 % 1013,7 hPa 0,0 l/m 1,3 km/h (1 Bft) O-SO 107 0 min 0,000 mm 0,0 UV-I 0 W/m 13,8 C 17,3 C 3,2 km/h (1 Bft) 96,00 %
20.07.2019 02:58 17,3 C 23,9 C 15,0 C 80 % 1013,7 hPa 0,0 l/m 1,0 km/h (0 Bft) O-SO 107 0 min 0,000 mm 0,0 UV-I 0 W/m 13,8 C 17,3 C 1,6 km/h (1 Bft) 97,87 %
20.07.2019 03:00 17,3 C 23,9 C 14,4 C 79 % 1013,7 hPa 0,0 l/m 0,4 km/h (0 Bft) O-SO 107 0 min 0,025 mm 0,0 UV-I 0 W/m 13,6 C 17,3 C 1,6 km/h (1 Bft) 97,87 %
20.07.2019 03:02 17,3 C 23,9 C 14,4 C 79 % 1013,7 hPa 0,0 l/m 0,0 km/h (0 Bft) O-SO 107 0 min 0,000 mm 0,0 UV-I 0 W/m 13,6 C 17,3 C 0,0 km/h (0 Bft) 100,00 %
20.07.2019 03:04 17,3 C 23,9 C 14,4 C 80 % 1013,6 hPa 0,0 l/m 0,0 km/h (0 Bft) O-SO 107 0 min 0,000 mm 0,0 UV-I 0 W/m 13,8 C 17,3 C 0,0 km/h (0 Bft) 100,00 %
20.07.2019 03:06 17,1 C 23,9 C 14,4 C 81 % 1013,7 hPa 0,0 l/m 0,0 km/h (0 Bft) O-SO 107 0 min 0,000 mm 0,0 UV-I 0 W/m 13,8 C 17,1 C 0,0 km/h (0 Bft) 100,00 %
20.07.2019 03:08 16,8 C 23,9 C 15,0 C 82 % 1013,6 hPa 0,0 l/m 0,0 km/h (0 Bft) O-SO 107 0 min 0,000 mm 0,0 UV-I 0 W/m 13,7 C 16,8 C 0,0 km/h (0 Bft) 100,00 %
20.07.2019 03:10 16,7 C 23,9 C 15,0 C 83 % 1013,5 hPa 0,0 l/m 1,1 km/h (1 Bft) O-SO 107 0 min 0,000 mm 0,0 UV-I 0 W/m 13,8 C 16,7 C 1,6 km/h (1 Bft) 100,00 %
20.07.2019 03:12 16,6 C 23,9 C 14,4 C 83 % 1013,5 hPa 0,0 l/m 1,2 km/h (1 Bft) O-SO 107 0 min 0,000 mm 0,0 UV-I 0 W/m 13,7 C 16,6 C 3,2 km/h (1 Bft) 97,87 %
20.07.2019 03:14 16,6 C 23,9 C 14,4 C 83 % 1013,5 hPa 0,0 l/m 1,0 km/h (0 Bft) O-SO 107 0 min 0,000 mm 0,0 UV-I 0 W/m 13,7 C 16,6 C 1,6 km/h (1 Bft) 100,00 %
20.07.2019 03:16 16,6 C 23,9 C 15,0 C 83 % 1013,5 hPa 0,0 l/m 0,3 km/h (0 Bft) O-SO 107 0 min 0,000 mm 0,0 UV-I 0 W/m 13,7 C 16,6 C 1,6 km/h (1 Bft) 97,87 %
20.07.2019 03:18 16,5 C 23,9 C 15,0 C 83 % 1013,5 hPa 0,0 l/m 1,4 km/h (1 Bft) O-SO 107 0 min 0,000 mm 0,0 UV-I 0 W/m 13,6 C 16,5 C 3,2 km/h (1 Bft) 100,00 %
20.07.2019 03:20 16,4 C 23,9 C 15,0 C 83 % 1013,5 hPa 0,0 l/m 1,7 km/h (1 Bft) O-SO 107 0 min 0,000 mm 0,0 UV-I 0 W/m 13,5 C 16,4 C 3,2 km/h (1 Bft) 97,87 %
20.07.2019 03:22 16,4 C 23,9 C 14,4 C 84 % 1013,5 hPa 0,0 l/m 0,2 km/h (0 Bft) O-SO 107 0 min 0,000 mm 0,0 UV-I 0 W/m 13,7 C 16,4 C 1,6 km/h (1 Bft) 100,00 %
20.07.2019 03:24 16,3 C 23,9 C 14,4 C 84 % 1013,5 hPa 0,0 l/m 0,2 km/h (0 Bft) O-SO 107 0 min 0,000 mm 0,0 UV-I 0 W/m 13,6 C 16,3 C 1,6 km/h (1 Bft) 95,74 %
20.07.2019 03:26 16,3 C 23,9 C 14,4 C 84 % 1013,5 hPa 0,0 l/m 0,0 km/h (0 Bft) O-SO 107 0 min 0,000 mm 0,0 UV-I 0 W/m 13,6 C 16,3 C 0,0 km/h (0 Bft) 97,87 %
20.07.2019 03:28 16,3 C 23,9 C 14,4 C 84 % 1013,5 hPa 0,0 l/m 0,0 km/h (0 Bft) O-SO 107 0 min 0,000 mm 0,0 UV-I 0 W/m 13,6 C 16,3 C 0,0 km/h (0 Bft) 97,87 %
20.07.2019 03:30 16,3 C 23,9 C 14,4 C 84 % 1013,6 hPa 0,0 l/m 0,0 km/h (0 Bft) O-SO 107 0 min 0,000 mm 0,0 UV-I 0 W/m 13,6 C 16,3 C 0,0 km/h (0 Bft) 95,74 %
20.07.2019 03:32 16,3 C 23,9 C 14,4 C 84 % 1013,6 hPa 0,0 l/m 0,8 km/h (0 Bft) O-SO 107 0 min 0,000 mm 0,0 UV-I 0 W/m 13,6 C 16,3 C 1,6 km/h (1 Bft) 97,87 %
20.07.2019 03:34 16,2 C 23,9 C 14,4 C 84 % 1013,6 hPa 0,0 l/m 1,0 km/h (0 Bft) O-SO 107 0 min 0,000 mm 0,0 UV-I 0 W/m 13,5 C 16,2 C 1,6 km/h (1 Bft) 95,74 %
20.07.2019 03:36 16,2 C 23,9 C 14,4 C 84 % 1013,6 hPa 0,0 l/m 0,9 km/h (0 Bft) O-SO 107 0 min 0,000 mm 0,0 UV-I 0 W/m 13,5 C 16,2 C 1,6 km/h (1 Bft) 95,74 %
20.07.2019 03:38 16,1 C 23,9 C 14,4 C 85 % 1013,6 hPa 0,0 l/m 0,2 km/h (0 Bft) O-SO 107 0 min 0,000 mm 0,0 UV-I 0 W/m 13,6 C 16,1 C 1,6 km/h (1 Bft) 95,74 %
20.07.2019 03:40 16,0 C 23,9 C 14,4 C 85 % 1013,6 hPa 0,0 l/m 0,4 km/h (0 Bft) O-SO 107 0 min 0,000 mm 0,0 UV-I 0 W/m 13,5 C 16,0 C 1,6 km/h (1 Bft) 93,75 %
20.07.2019 03:42 16,0 C 23,9 C 14,4 C 85 % 1013,6 hPa 0,0 l/m 1,2 km/h (1 Bft) O-SO 107 0 min 0,000 mm 0,0 UV-I 0 W/m 13,5 C 16,0 C 3,2 km/h (1 Bft) 93,62 %
20.07.2019 03:44 15,9 C 23,9 C 14,4 C 85 % 1013,6 hPa 0,0 l/m 2,7 km/h (1 Bft) O-SO 107 0 min 0,000 mm 0,0 UV-I 0 W/m 13,4 C 15,9 C 4,8 km/h (1 Bft) 97,37 %
20.07.2019 03:46 15,8 C 23,9 C 14,4 C 86 % 1013,6 hPa 0,0 l/m 3,7 km/h (1 Bft) O-SO 111 0 min 0,000 mm 0,0 UV-I 0 W/m 13,5 C 15,8 C 4,8 km/h (1 Bft) 96,00 %
20.07.2019 03:48 15,8 C 23,9 C 14,4 C 85 % 1013,5 hPa 0,0 l/m 3,6 km/h (1 Bft) O-SO 111 0 min 0,000 mm 0,0 UV-I 0 W/m 13,3 C 15,8 C 4,8 km/h (1 Bft) 95,74 %
20.07.2019 03:50 15,6 C 23,9 C 14,4 C 86 % 1013,5 hPa 0,0 l/m 2,9 km/h (1 Bft) O-SO 111 0 min 0,000 mm 0,0 UV-I 0 W/m 13,3 C 15,6 C 4,8 km/h (1 Bft) 94,00 %
20.07.2019 03:52 15,4 C 23,9 C 14,4 C 86 % 1013,5 hPa 0,0 l/m 3,1 km/h (1 Bft) O-SO 111 0 min 0,000 mm 0,0 UV-I 0 W/m 13,1 C 15,4 C 4,8 km/h (1 Bft) 93,62 %
20.07.2019 03:54 15,3 C 23,9 C 14,4 C 86 % 1013,5 hPa 0,0 l/m 3,4 km/h (1 Bft) O-SO 111 0 min 0,000 mm 0,0 UV-I 0 W/m 13,0 C 15,3 C 4,8 km/h (1 Bft) 95,74 %
20.07.2019 03:56 15,3 C 23,9 C 13,9 C 87 % 1013,5 hPa 0,0 l/m 2,6 km/h (1 Bft) O-SO 111 0 min 0,000 mm 0,0 UV-I 0 W/m 13,1 C 15,3 C 3,2 km/h (1 Bft) 93,75 %
20.07.2019 03:58 15,5 C 23,9 C 13,9 C 87 % 1013,5 hPa 0,0 l/m 1,9 km/h (1 Bft) O-SO 111 0 min 0,000 mm 0,0 UV-I 0 W/m 13,3 C 15,5 C 3,2 km/h (1 Bft) 97,30 %
20.07.2019 04:00 15,6 C 23,9 C 13,9 C 86 % 1013,6 hPa 0,0 l/m 0,5 km/h (0 Bft) O-SO 111 0 min 0,000 mm 0,0 UV-I 0 W/m 13,3 C 15,6 C 1,6 km/h (1 Bft) 93,62 %
20.07.2019 04:02 15,7 C 23,9 C 13,9 C 86 % 1013,6 hPa 0,0 l/m 0,0 km/h (0 Bft) O-SO 111 0 min 0,000 mm 0,0 UV-I 0 W/m 13,4 C 15,7 C 0,0 km/h (0 Bft) 95,00 %
20.07.2019 04:04 15,8 C 23,9 C 13,9 C 86 % 1013,6 hPa 0,0 l/m 0,0 km/h (0 Bft) O-SO 111 0 min 0,000 mm 0,0 UV-I 0 W/m 13,5 C 15,8 C 0,0 km/h (0 Bft) 94,00 %
20.07.2019 04:06 15,8 C 23,9 C 13,9 C 85 % 1013,5 hPa 0,0 l/m 0,0 km/h (0 Bft) O-SO 111 0 min 0,000 mm 0,0 UV-I 0 W/m 13,3 C 15,8 C 0,0 km/h (0 Bft) 95,92 %
20.07.2019 04:08 15,8 C 23,9 C 13,9 C 86 % 1013,5 hPa 0,0 l/m 0,0 km/h (0 Bft) O-SO 111 0 min 0,000 mm 0,0 UV-I 0 W/m 13,5 C 15,8 C 0,0 km/h (0 Bft) 95,74 %
20.07.2019 04:10 15,8 C 23,9 C 13,9 C 86 % 1013,6 hPa 0,0 l/m 0,0 km/h (0 Bft) O-SO 111 0 min 0,000 mm 0,0 UV-I 0 W/m 13,5 C 15,8 C 0,0 km/h (0 Bft) 95,74 %
20.07.2019 04:12 15,8 C 23,9 C 13,9 C 85 % 1013,6 hPa 0,0 l/m 0,0 km/h (0 Bft) O-SO 111 0 min 0,000 mm 0,0 UV-I 0 W/m 13,3 C 15,8 C 0,0 km/h (0 Bft) 93,62 %
20.07.2019 04:14 15,6 C 23,9 C 13,9 C 86 % 1013,6 hPa 0,0 l/m 1,4 km/h (1 Bft) O-SO 111 0 min 0,000 mm 0,0 UV-I 0 W/m 13,3 C 15,6 C 3,2 km/h (1 Bft) 93,62 %
20.07.2019 04:16 15,5 C 23,9 C 13,9 C 86 % 1013,6 hPa 0,0 l/m 1,3 km/h (1 Bft) O-SO 111 0 min 0,000 mm 0,0 UV-I 0 W/m 13,2 C 15,5 C 1,6 km/h (1 Bft) 93,62 %
20.07.2019 04:18 15,4 C 23,9 C 14,4 C 87 % 1013,6 hPa 0,0 l/m 1,1 km/h (1 Bft) O-SO 111 0 min 0,000 mm 0,0 UV-I 0 W/m 13,2 C 15,4 C 1,6 km/h (1 Bft) 95,74 %
20.07.2019 04:20 15,4 C 23,9 C 14,4 C 87 % 1013,6 hPa 0,0 l/m 0,8 km/h (0 Bft) O-SO 111 0 min 0,000 mm 0,0 UV-I 0 W/m 13,2 C 15,4 C 1,6 km/h (1 Bft) 94,00 %
20.07.2019 04:22 15,4 C 23,9 C 14,4 C 87 % 1013,6 hPa 0,0 l/m 1,4 km/h (1 Bft) O-SO 111 0 min 0,000 mm 0,0 UV-I 0 W/m 13,2 C 15,4 C 1,6 km/h (1 Bft) 97,37 %
20.07.2019 04:24 15,4 C 23,9 C 14,4 C 87 % 1013,6 hPa 0,0 l/m 1,4 km/h (1 Bft) O-SO 111 0 min 0,000 mm 0,0 UV-I 0 W/m 13,2 C 15,4 C 3,2 km/h (1 Bft) 93,62 %
20.07.2019 04:26 15,4 C 23,9 C 14,4 C 87 % 1013,6 hPa 0,0 l/m 0,1 km/h (0 Bft) O-SO 111 0 min 0,000 mm 0,0 UV-I 0 W/m 13,2 C 15,4 C 1,6 km/h (1 Bft) 97,87 %
20.07.2019 04:28 15,4 C 23,9 C 14,4 C 87 % 1013,6 hPa 0,0 l/m 0,0 km/h (0 Bft) O-SO 111 0 min 0,000 mm 0,0 UV-I 0 W/m 13,2 C 15,4 C 0,0 km/h (0 Bft) 97,87 %
20.07.2019 04:30 15,4 C 23,9 C 13,9 C 87 % 1013,6 hPa 0,0 l/m 0,0 km/h (0 Bft) O-SO 111 0 min 0,000 mm 0,0 UV-I 0 W/m 13,2 C 15,4 C 0,0 km/h (0 Bft) 97,92 %
20.07.2019 04:32 15,4 C 23,9 C 13,9 C 87 % 1013,6 hPa 0,0 l/m 0,0 km/h (0 Bft) O-SO 111 0 min 0,000 mm 0,0 UV-I 0 W/m 13,2 C 15,4 C 0,0 km/h (0 Bft) 95,74 %
20.07.2019 04:34 15,4 C 23,9 C 13,9 C 87 % 1013,6 hPa 0,0 l/m 0,0 km/h (0 Bft) O-SO 111 0 min 0,000 mm 0,0 UV-I 0 W/m 13,2 C 15,4 C 0,0 km/h (0 Bft) 95,74 %
20.07.2019 04:36 15,4 C 23,9 C 13,9 C 87 % 1013,6 hPa 0,0 l/m 0,0 km/h (0 Bft) O-SO 111 0 min 0,000 mm 0,0 UV-I 0 W/m 13,2 C 15,4 C 0,0 km/h (0 Bft) 96,00 %
20.07.2019 04:38 15,4 C 23,9 C 13,9 C 87 % 1013,6 hPa 0,0 l/m 0,3 km/h (0 Bft) O-SO 111 0 min 0,000 mm 0,0 UV-I 0 W/m 13,2 C 15,4 C 1,6 km/h (1 Bft) 97,87 %
20.07.2019 04:40 15,4 C 23,9 C 13,9 C 87 % 1013,6 hPa 0,0 l/m 1,1 km/h (1 Bft) O-SO 111 0 min 0,000 mm 0,0 UV-I 0 W/m 13,2 C 15,4 C 1,6 km/h (1 Bft) 100,00 %
20.07.2019 04:42 15,4 C 23,9 C 14,4 C 87 % 1013,6 hPa 0,0 l/m 1,5 km/h (1 Bft) O-SO 111 0 min 0,000 mm 0,0 UV-I 0 W/m 13,2 C 15,4 C 1,6 km/h (1 Bft) 100,00 %
20.07.2019 04:44 15,3 C 23,9 C 14,4 C 87 % 1013,6 hPa 0,0 l/m 1,6 km/h (1 Bft) O-SO 111 0 min 0,000 mm 0,0 UV-I 0 W/m 13,1 C 15,3 C 3,2 km/h (1 Bft) 98,00 %
20.07.2019 04:46 15,3 C 23,9 C 14,4 C 87 % 1013,6 hPa 0,0 l/m 0,8 km/h (0 Bft) O-SO 111 0 min 0,000 mm 0,0 UV-I 0 W/m 13,1 C 15,3 C 3,2 km/h (1 Bft) 100,00 %
20.07.2019 04:48 15,3 C 23,9 C 14,4 C 87 % 1013,7 hPa 0,0 l/m 2,1 km/h (1 Bft) O-SO 111 0 min 0,000 mm 0,0 UV-I 0 W/m 13,1 C 15,3 C 3,2 km/h (1 Bft) 97,87 %
20.07.2019 04:50 15,3 C 23,9 C 14,4 C 87 % 1013,6 hPa 0,0 l/m 1,9 km/h (1 Bft) O-SO 111 0 min 0,000 mm 0,0 UV-I 0 W/m 13,1 C 15,3 C 3,2 km/h (1 Bft) 100,00 %
20.07.2019 04:52 15,3 C 23,9 C 14,4 C 88 % 1013,6 hPa 0,0 l/m 1,0 km/h (0 Bft) O-SO 111 0 min 0,000 mm 0,0 UV-I 0 W/m 13,3 C 15,3 C 3,2 km/h (1 Bft) 100,00 %
20.07.2019 04:54 15,3 C 23,9 C 14,4 C 87 % 1013,7 hPa 0,0 l/m 0,0 km/h (0 Bft) O-SO 111 0 min 0,000 mm 0,0 UV-I 0 W/m 13,1 C 15,3 C 0,0 km/h (0 Bft) 100,00 %
20.07.2019 04:56 15,3 C 23,9 C 14,4 C 88 % 1013,6 hPa 0,0 l/m 0,7 km/h (0 Bft) O-SO 111 0 min 0,000 mm 0,0 UV-I 0 W/m 13,3 C 15,3 C 3,2 km/h (1 Bft) 97,14 %
20.07.2019 04:58 15,2 C 23,9 C 14,4 C 88 % 1013,7 hPa 0,0 l/m 3,1 km/h (1 Bft) O-SO 111 0 min 0,000 mm 0,0 UV-I 0 W/m 13,2 C 15,2 C 3,2 km/h (1 Bft) 100,00 %
20.07.2019 05:00 15,2 C 23,9 C 14,4 C 88 % 1013,7 hPa 0,0 l/m 2,5 km/h (1 Bft) O-SO 111 0 min 0,000 mm 0,0 UV-I 0 W/m 13,2 C 15,2 C 3,2 km/h (1 Bft) 100,00 %
20.07.2019 05:02 15,1 C 23,9 C 14,4 C 88 % 1013,7 hPa 0,0 l/m 1,6 km/h (1 Bft) O-SO 111 0 min 0,000 mm 0,0 UV-I 0 W/m 13,1 C 15,1 C 3,2 km/h (1 Bft) 100,00 %
20.07.2019 05:04 15,2 C 23,9 C 14,4 C 88 % 1013,6 hPa 0,0 l/m 0,7 km/h (0 Bft) O-SO 111 0 min 0,000 mm 0,0 UV-I 0 W/m 13,2 C 15,2 C 1,6 km/h (1 Bft) 97,87 %
20.07.2019 05:06 15,3 C 23,9 C 14,4 C 88 % 1013,7 hPa 0,0 l/m 0,1 km/h (0 Bft) O-SO 111 0 min 0,000 mm 0,0 UV-I 0 W/m 13,3 C 15,3 C 1,6 km/h (1 Bft) 100,00 %
20.07.2019 05:08 15,3 C 23,9 C 14,4 C 87 % 1013,7 hPa 0,0 l/m 0,0 km/h (0 Bft) O-SO 111 0 min 0,000 mm 0,0 UV-I 0 W/m 13,1 C 15,3 C 0,0 km/h (0 Bft) 100,00 %
20.07.2019 05:10 15,2 C 23,9 C 14,4 C 87 % 1013,6 hPa 0,0 l/m 0,0 km/h (0 Bft) O-SO 111 0 min 0,000 mm 0,0 UV-I 0 W/m 13,0 C 15,2 C 0,0 km/h (0 Bft) 100,00 %
20.07.2019 05:12 15,2 C 23,9 C 14,4 C 88 % 1013,6 hPa 0,0 l/m 0,0 km/h (0 Bft) O-SO 111 0 min 0,000 mm 0,0 UV-I 2 W/m 13,2 C 15,2 C 0,0 km/h (0 Bft) 97,87 %
20.07.2019 05:14 15,3 C 23,9 C 14,4 C 88 % 1013,6 hPa 0,0 l/m 0,2 km/h (0 Bft) O-SO 111 0 min 0,000 mm 0,0 UV-I 5 W/m 13,3 C 15,3 C 1,6 km/h (1 Bft) 100,00 %
20.07.2019 05:16 15,3 C 23,9 C 14,4 C 88 % 1013,6 hPa 0,0 l/m 1,0 km/h (0 Bft) O-SO 111 0 min 0,000 mm 0,0 UV-I 6 W/m 13,3 C 15,3 C 1,6 km/h (1 Bft) 100,00 %
20.07.2019 05:18 15,3 C 23,3 C 14,4 C 88 % 1013,6 hPa 0,0 l/m 1,6 km/h (1 Bft) O-SO 111 0 min 0,000 mm 0,0 UV-I 8 W/m 13,3 C 15,3 C 3,2 km/h (1 Bft) 100,00 %
20.07.2019 05:20 15,3 C 23,3 C 14,4 C 88 % 1013,6 hPa 0,0 l/m 1,4 km/h (1 Bft) O-SO 111 0 min 0,000 mm 0,0 UV-I 9 W/m 13,3 C 15,3 C 3,2 km/h (1 Bft) 97,87 %
20.07.2019 05:22 15,2 C 23,3 C 14,4 C 88 % 1013,6 hPa 0,0 l/m 1,1 km/h (1 Bft) O-SO 111 0 min 0,000 mm 0,0 UV-I 9 W/m 13,2 C 15,2 C 1,6 km/h (1 Bft) 100,00 %
20.07.2019 05:24 15,1 C 23,9 C 14,4 C 88 % 1013,6 hPa 0,0 l/m 1,1 km/h (1 Bft) O-SO 111 0 min 0,000 mm 0,0 UV-I 8 W/m 13,1 C 15,1 C 1,6 km/h (1 Bft) 97,14 %
20.07.2019 05:26 15,1 C 23,3 C 14,4 C 88 % 1013,6 hPa 0,0 l/m 0,4 km/h (0 Bft) O-SO 111 0 min 0,000 mm 0,0 UV-I 8 W/m 13,1 C 15,1 C 1,6 km/h (1 Bft) 100,00 %
20.07.2019 05:28 15,1 C 23,3 C 14,4 C 88 % 1013,7 hPa 0,0 l/m 0,0 km/h (0 Bft) O-SO 111 0 min 0,000 mm 0,0 UV-I 9 W/m 13,1 C 15,1 C 0,0 km/h (0 Bft) 95,74 %
20.07.2019 05:30 15,1 C 23,9 C 14,4 C 89 % 1013,6 hPa 0,0 l/m 0,5 km/h (0 Bft) O-SO 111 0 min 0,000 mm 0,0 UV-I 10 W/m 13,3 C 15,1 C 1,6 km/h (1 Bft) 95,74 %
20.07.2019 05:32 15,1 C 23,9 C 14,4 C 88 % 1013,7 hPa 0,0 l/m 1,8 km/h (1 Bft) O-SO 111 0 min 0,000 mm 0,0 UV-I 11 W/m 13,1 C 15,1 C 3,2 km/h (1 Bft) 95,74 %
20.07.2019 05:34 15,2 C 23,3 C 15,0 C 88 % 1013,7 hPa 0,0 l/m 2,2 km/h (1 Bft) O-SO 111 0 min 0,000 mm 0,0 UV-I 12 W/m 13,2 C 15,2 C 3,2 km/h (1 Bft) 93,62 %
20.07.2019 05:36 15,2 C 23,3 C 15,0 C 88 % 1013,7 hPa 0,0 l/m 2,8 km/h (1 Bft) O-SO 111 2 min 0,000 mm 0,0 UV-I 13 W/m 13,2 C 15,2 C 3,2 km/h (1 Bft) 95,74 %
20.07.2019 05:38 15,2 C 23,3 C 15,0 C 88 % 1013,8 hPa 0,0 l/m 2,8 km/h (1 Bft) O-SO 111 2 min 0,000 mm 0,0 UV-I 16 W/m 13,2 C 15,2 C 3,2 km/h (1 Bft) 95,74 %
20.07.2019 05:40 15,2 C 23,3 C 15,0 C 88 % 1013,7 hPa 0,0 l/m 2,1 km/h (1 Bft) O-SO 111 2 min 0,000 mm 0,0 UV-I 18 W/m 13,2 C 15,2 C 3,2 km/h (1 Bft) 96,00 %
20.07.2019 05:42 15,3 C 23,3 C 15,0 C 89 % 1013,8 hPa 0,0 l/m 1,9 km/h (1 Bft) O-SO 111 2 min 0,000 mm 0,0 UV-I 21 W/m 13,5 C 15,3 C 3,2 km/h (1 Bft) 95,74 %
20.07.2019 05:44 15,3 C 23,9 C 15,0 C 89 % 1013,8 hPa 0,0 l/m 1,7 km/h (1 Bft) O-SO 111 2 min 0,000 mm 0,0 UV-I 24 W/m 13,5 C 15,3 C 3,2 km/h (1 Bft) 93,62 %
20.07.2019 05:46 15,3 C 23,3 C 15,0 C 89 % 1013,7 hPa 0,0 l/m 1,8 km/h (1 Bft) O-SO 111 2 min 0,000 mm 0,0 UV-I 26 W/m 13,5 C 15,3 C 3,2 km/h (1 Bft) 96,00 %
20.07.2019 05:48 15,4 C 23,9 C 15,0 C 88 % 1013,7 hPa 0,0 l/m 2,4 km/h (1 Bft) O-SO 111 2 min 0,000 mm 0,0 UV-I 29 W/m 13,4 C 15,4 C 3,2 km/h (1 Bft) 95,74 %
20.07.2019 05:50 15,4 C 23,3 C 15,0 C 89 % 1013,7 hPa 0,0 l/m 3,0 km/h (1 Bft) O-SO 111 2 min 0,000 mm 0,0 UV-I 28 W/m 13,6 C 15,4 C 4,8 km/h (1 Bft) 97,87 %
20.07.2019 05:52 15,4 C 23,3 C 15,0 C 88 % 1013,7 hPa 0,0 l/m 3,1 km/h (1 Bft) O-SO 111 2 min 0,000 mm 0,0 UV-I 31 W/m 13,4 C 15,4 C 3,2 km/h (1 Bft) 97,44 %
20.07.2019 05:54 15,4 C 23,3 C 15,0 C 88 % 1013,7 hPa 0,0 l/m 2,5 km/h (1 Bft) O-SO 111 0 min 0,000 mm 0,0 UV-I 32 W/m 13,4 C 15,4 C 3,2 km/h (1 Bft) 97,87 %
20.07.2019 05:56 15,5 C 23,3 C 15,6 C 88 % 1013,8 hPa 0,0 l/m 2,0 km/h (1 Bft) O-SO 111 0 min 0,000 mm 0,0 UV-I 32 W/m 13,5 C 15,5 C 3,2 km/h (1 Bft) 97,96 %
20.07.2019 05:58 15,5 C 23,3 C 15,6 C 88 % 1013,7 hPa 0,0 l/m 2,1 km/h (1 Bft) O-SO 111 0 min 0,000 mm 0,0 UV-I 32 W/m 13,5 C 15,5 C 3,2 km/h (1 Bft) 95,74 %
20.07.2019 06:00 15,5 C 23,3 C 15,6 C 88 % 1013,7 hPa 0,0 l/m 1,6 km/h (1 Bft) O-SO 111 0 min 0,000 mm 0,0 UV-I 32 W/m 13,5 C 15,5 C 3,2 km/h (1 Bft) 95,74 %
20.07.2019 06:02 15,4 C 23,3 C 15,6 C 88 % 1013,7 hPa 0,0 l/m 1,0 km/h (0 Bft) O-SO 111 0 min 0,000 mm 0,0 UV-I 35 W/m 13,4 C 15,4 C 1,6 km/h (1 Bft) 96,00 %
20.07.2019 06:04 15,4 C 23,3 C 15,6 C 89 % 1013,7 hPa 0,0 l/m 1,5 km/h (1 Bft) O-SO 111 0 min 0,000 mm 0,0 UV-I 41 W/m 13,6 C 15,4 C 3,2 km/h (1 Bft) 97,37 %
20.07.2019 06:06 15,6 C 23,3 C 15,6 C 89 % 1013,7 hPa 0,0 l/m 2,2 km/h (1 Bft) O-SO 111 2 min 0,000 mm 0,0 UV-I 52 W/m 13,8 C 15,6 C 3,2 km/h (1 Bft) 100,00 %
20.07.2019 06:08 15,7 C 23,3 C 15,6 C 88 % 1013,7 hPa 0,0 l/m 2,3 km/h (1 Bft) O-SO 111 2 min 0,000 mm 0,0 UV-I 54 W/m 13,7 C 15,7 C 3,2 km/h (1 Bft) 100,00 %
20.07.2019 06:10 15,8 C 23,3 C 15,6 C 88 % 1013,7 hPa 0,0 l/m 1,0 km/h (0 Bft) O-SO 111 0 min 0,000 mm 0,0 UV-I 53 W/m 13,8 C 15,8 C 1,6 km/h (1 Bft) 100,00 %
20.07.2019 06:12 15,7 C 23,3 C 15,6 C 88 % 1013,7 hPa 0,0 l/m 1,0 km/h (0 Bft) O-SO 111 0 min 0,000 mm 0,0 UV-I 54 W/m 13,7 C 15,7 C 1,6 km/h (1 Bft) 100,00 %
20.07.2019 06:14 15,8 C 23,3 C 15,6 C 88 % 1013,7 hPa 0,0 l/m 1,2 km/h (1 Bft) O-SO 111 0 min 0,000 mm 0,0 UV-I 58 W/m 13,8 C 15,8 C 1,6 km/h (1 Bft) 100,00 %
20.07.2019 06:16 15,8 C 23,3 C 15,6 C 88 % 1013,7 hPa 0,0 l/m 0,7 km/h (0 Bft) O-SO 111 0 min 0,000 mm 0,0 UV-I 63 W/m 13,8 C 15,8 C 1,6 km/h (1 Bft) 100,00 %
20.07.2019 06:18 15,9 C 23,3 C 16,1 C 88 % 1013,7 hPa 0,0 l/m 0,2 km/h (0 Bft) O-SO 111 2 min 0,000 mm 0,0 UV-I 75 W/m 13,9 C 15,9 C 1,6 km/h (1 Bft) 100,00 %
20.07.2019 06:20 15,9 C 23,3 C 16,1 C 88 % 1013,7 hPa 0,0 l/m 0,0 km/h (0 Bft) O-SO 111 2 min 0,000 mm 0,0 UV-I 89 W/m 13,9 C 15,9 C 0,0 km/h (0 Bft) 100,00 %
20.07.2019 06:22 15,9 C 23,3 C 16,1 C 88 % 1013,8 hPa 0,0 l/m 0,7 km/h (0 Bft) O-SO 111 2 min 0,000 mm 0,0 UV-I 90 W/m 13,9 C 15,9 C 1,6 km/h (1 Bft) 100,00 %
20.07.2019 06:24 16,1 C 23,3 C 16,1 C 88 % 1013,8 hPa 0,0 l/m 0,1 km/h (0 Bft) O-SO 111 2 min 0,000 mm 0,0 UV-I 89 W/m 14,1 C 16,1 C 1,6 km/h (1 Bft) 100,00 %
20.07.2019 06:26 16,1 C 23,3 C 16,1 C 87 % 1013,9 hPa 0,0 l/m 0,0 km/h (0 Bft) O-SO 111 2 min 0,000 mm 0,0 UV-I 98 W/m 13,9 C 16,1 C 0,0 km/h (0 Bft) 97,87 %
20.07.2019 06:28 16,0 C 23,3 C 16,1 C 88 % 1013,8 hPa 0,0 l/m 0,2 km/h (0 Bft) O-SO 111 2 min 0,000 mm 0,0 UV-I 111 W/m 14,0 C 16,0 C 1,6 km/h (1 Bft) 100,00 %
20.07.2019 06:30 15,9 C 23,3 C 16,1 C 89 % 1013,8 hPa 0,0 l/m 0,2 km/h (0 Bft) O-SO 111 2 min 0,000 mm 0,0 UV-I 119 W/m 14,1 C 15,9 C 1,6 km/h (1 Bft) 100,00 %
20.07.2019 06:32 15,9 C 23,3 C 16,1 C 90 % 1013,9 hPa 0,0 l/m 0,3 km/h (0 Bft) O-SO 111 2 min 0,000 mm 0,0 UV-I 121 W/m 14,3 C 15,9 C 1,6 km/h (1 Bft) 100,00 %
20.07.2019 06:34 15,9 C 23,3 C 16,7 C 90 % 1013,8 hPa 0,0 l/m 0,0 km/h (0 Bft) O-SO 111 2 min 0,000 mm 0,0 UV-I 121 W/m 14,3 C 15,9 C 0,0 km/h (0 Bft) 97,87 %
20.07.2019 06:36 15,9 C 23,3 C 16,7 C 90 % 1013,9 hPa 0,0 l/m 0,0 km/h (0 Bft) O-SO 111 2 min 0,000 mm 0,0 UV-I 117 W/m 14,3 C 15,9 C 0,0 km/h (0 Bft) 100,00 %
20.07.2019 06:38 16,0 C 23,3 C 16,7 C 90 % 1013,9 hPa 0,0 l/m 0,3 km/h (0 Bft) O-SO 111 2 min 0,000 mm 0,0 UV-I 98 W/m 14,4 C 16,0 C 1,6 km/h (1 Bft) 96,00 %
20.07.2019 06:40 16,1 C 23,3 C 16,7 C 90 % 1013,9 hPa 0,0 l/m 1,2 km/h (1 Bft) O-SO 111 0 min 0,000 mm 0,0 UV-I 90 W/m 14,5 C 16,1 C 1,6 km/h (1 Bft) 100,00 %
20.07.2019 06:42 16,0 C 23,3 C 16,7 C 90 % 1013,9 hPa 0,0 l/m 1,1 km/h (1 Bft) O-SO 111 0 min 0,000 mm 0,0 UV-I 94 W/m 14,4 C 16,0 C 1,6 km/h (1 Bft) 100,00 %
20.07.2019 06:44 15,9 C 23,3 C 16,7 C 90 % 1013,9 hPa 0,0 l/m 1,4 km/h (1 Bft) O-SO 111 0 min 0,000 mm 0,0 UV-I 92 W/m 14,3 C 15,9 C 1,6 km/h (1 Bft) 100,00 %
20.07.2019 06:46 15,9 C 23,3 C 16,7 C 90 % 1013,9 hPa 0,0 l/m 1,1 km/h (1 Bft) O-SO 111 0 min 0,000 mm 0,0 UV-I 104 W/m 14,3 C 15,9 C 1,6 km/h (1 Bft) 100,00 %
20.07.2019 06:48 15,9 C 23,3 C 16,7 C 90 % 1013,9 hPa 0,0 l/m 0,0 km/h (0 Bft) O-SO 111 0 min 0,000 mm 0,0 UV-I 101 W/m 14,3 C 15,9 C 0,0 km/h (0 Bft) 100,00 %
20.07.2019 06:50 15,9 C 23,3 C 16,7 C 89 % 1013,9 hPa 0,0 l/m 0,0 km/h (0 Bft) O-SO 111 0 min 0,000 mm 0,0 UV-I 101 W/m 14,1 C 15,9 C 0,0 km/h (0 Bft) 97,87 %
20.07.2019 06:52 16,0 C 23,3 C 16,7 C 89 % 1013,9 hPa 0,0 l/m 0,0 km/h (0 Bft) O-SO 111 0 min 0,000 mm 0,0 UV-I 107 W/m 14,2 C 16,0 C 0,0 km/h (0 Bft) 97,87 %
20.07.2019 06:54 16,1 C 23,3 C 16,7 C 89 % 1013,8 hPa 0,0 l/m 0,0 km/h (0 Bft) O-SO 111 0 min 0,000 mm 0,0 UV-I 119 W/m 14,3 C 16,1 C 0,0 km/h (0 Bft) 97,87 %
20.07.2019 06:56 16,3 C 23,3 C 17,2 C 88 % 1013,9 hPa 0,0 l/m 0,0 km/h (0 Bft) O-SO 111 2 min 0,000 mm 0,0 UV-I 128 W/m 14,3 C 16,3 C 0,0 km/h (0 Bft) 97,87 %
20.07.2019 06:58 16,4 C 23,3 C 17,2 C 88 % 1013,9 hPa 0,0 l/m 0,0 km/h (0 Bft) O-SO 111 2 min 0,000 mm 0,0 UV-I 133 W/m 14,4 C 16,4 C 0,0 km/h (0 Bft) 97,87 %
20.07.2019 07:00 16,6 C 23,3 C 17,2 C 88 % 1013,9 hPa 0,0 l/m 0,0 km/h (0 Bft) O-SO 111 2 min 0,051 mm 0,0 UV-I 131 W/m 14,6 C 16,6 C 0,0 km/h (0 Bft) 95,83 %
20.07.2019 07:02 16,6 C 23,3 C 17,2 C 88 % 1013,9 hPa 0,0 l/m 0,2 km/h (0 Bft) O-SO 111 2 min 0,000 mm 0,0 UV-I 135 W/m 14,6 C 16,6 C 1,6 km/h (1 Bft) 95,74 %
20.07.2019 07:04 16,6 C 23,3 C 17,8 C 88 % 1013,9 hPa 0,0 l/m 1,0 km/h (0 Bft) O-SO 111 2 min 0,000 mm 0,0 UV-I 142 W/m 14,6 C 16,6 C 1,6 km/h (1 Bft) 95,74 %
20.07.2019 07:06 16,7 C 23,3 C 17,8 C 87 % 1014,0 hPa 0,0 l/m 1,5 km/h (1 Bft) O-SO 111 2 min 0,000 mm 0,0 UV-I 151 W/m 14,5 C 16,7 C 1,6 km/h (1 Bft) 94,00 %
20.07.2019 07:08 16,8 C 23,3 C 17,8 C 88 % 1014,0 hPa 0,0 l/m 1,6 km/h (1 Bft) O-SO 111 2 min 0,000 mm 0,0 UV-I 153 W/m 14,8 C 16,8 C 3,2 km/h (1 Bft) 95,74 %
20.07.2019 07:10 16,9 C 23,3 C 17,8 C 88 % 1013,9 hPa 0,0 l/m 1,5 km/h (1 Bft) O-SO 111 2 min 0,000 mm 0,0 UV-I 161 W/m 14,9 C 16,9 C 3,2 km/h (1 Bft) 93,62 %
20.07.2019 07:12 16,9 C 23,3 C 17,8 C 87 % 1014,0 hPa 0,0 l/m 1,3 km/h (1 Bft) O-SO 111 2 min 0,000 mm 0,0 UV-I 180 W/m 14,7 C 16,9 C 1,6 km/h (1 Bft) 95,74 %
20.07.2019 07:14 17,1 C 23,3 C 18,3 C 86 % 1014,0 hPa 0,0 l/m 1,4 km/h (1 Bft) O-SO 111 2 min 0,000 mm 0,0 UV-I 183 W/m 14,7 C 17,1 C 1,6 km/h (1 Bft) 93,62 %
20.07.2019 07:16 17,2 C 23,3 C 18,3 C 86 % 1014,1 hPa 0,0 l/m 0,9 km/h (0 Bft) O-SO 111 2 min 0,000 mm 0,0 UV-I 180 W/m 14,8 C 17,2 C 1,6 km/h (1 Bft) 97,87 %
20.07.2019 07:18 17,3 C 23,3 C 18,3 C 85 % 1014,0 hPa 0,0 l/m 0,6 km/h (0 Bft) O-SO 111 2 min 0,000 mm 0,0 UV-I 179 W/m 14,8 C 17,3 C 1,6 km/h (1 Bft) 97,87 %
20.07.2019 07:20 17,4 C 23,3 C 18,3 C 84 % 1014,0 hPa 0,0 l/m 0,7 km/h (0 Bft) O-SO 111 2 min 0,000 mm 0,0 UV-I 170 W/m 14,7 C 17,4 C 1,6 km/h (1 Bft) 95,74 %
20.07.2019 07:22 17,5 C 23,3 C 18,9 C 84 % 1014,0 hPa 0,0 l/m 1,0 km/h (0 Bft) O-SO 111 2 min 0,000 mm 0,0 UV-I 167 W/m 14,8 C 17,5 C 1,6 km/h (1 Bft) 97,56 %
20.07.2019 07:24 17,5 C 23,3 C 18,9 C 84 % 1014,0 hPa 0,0 l/m 0,6 km/h (0 Bft) O-SO 111 2 min 0,000 mm 0,0 UV-I 182 W/m 14,8 C 17,5 C 1,6 km/h (1 Bft) 97,87 %
20.07.2019 07:26 17,6 C 23,3 C 18,9 C 84 % 1014,1 hPa 0,0 l/m 0,5 km/h (0 Bft) O-SO 111 2 min 0,000 mm 0,0 UV-I 184 W/m 14,9 C 17,6 C 1,6 km/h (1 Bft) 97,87 %
20.07.2019 07:28 17,7 C 23,3 C 18,9 C 84 % 1014,0 hPa 0,0 l/m 1,3 km/h (1 Bft) O-SO 111 2 min 0,000 mm 0,0 UV-I 185 W/m 15,0 C 17,7 C 3,2 km/h (1 Bft) 98,00 %
20.07.2019 07:30 17,8 C 23,3 C 18,9 C 83 % 1014,0 hPa 0,0 l/m 2,0 km/h (1 Bft) O-SO 111 2 min 0,000 mm 0,3 UV-I 185 W/m 14,9 C 17,8 C 3,2 km/h (1 Bft) 97,87 %
20.07.2019 07:32 17,9 C 23,3 C 18,9 C 83 % 1014,1 hPa 0,0 l/m 1,7 km/h (1 Bft) O-SO 111 0 min 0,000 mm 0,5 UV-I 175 W/m 15,0 C 17,9 C 3,2 km/h (1 Bft) 95,74 %
20.07.2019 07:34 17,9 C 23,3 C 18,9 C 83 % 1014,1 hPa 0,0 l/m 1,8 km/h (1 Bft) O-SO 111 0 min 0,000 mm 0,5 UV-I 173 W/m 15,0 C 17,9 C 3,2 km/h (1 Bft) 97,87 %
20.07.2019 07:36 17,9 C 23,3 C 18,9 C 83 % 1014,0 hPa 0,0 l/m 2,1 km/h (1 Bft) O-SO 111 2 min 0,000 mm 0,5 UV-I 189 W/m 15,0 C 17,9 C 3,2 km/h (1 Bft) 97,87 %
20.07.2019 07:38 18,1 C 23,3 C 18,9 C 83 % 1014,1 hPa 0,0 l/m 2,8 km/h (1 Bft) O-SO 111 2 min 0,000 mm 0,5 UV-I 205 W/m 15,2 C 18,1 C 4,8 km/h (1 Bft) 97,87 %
20.07.2019 07:40 18,1 C 23,3 C 18,9 C 82 % 1014,1 hPa 0,0 l/m 3,1 km/h (1 Bft) O 82 2 min 0,000 mm 0,6 UV-I 234 W/m 15,0 C 18,1 C 4,8 km/h (1 Bft) 97,92 %
20.07.2019 07:42 18,2 C 23,3 C 18,9 C 81 % 1014,2 hPa 0,0 l/m 3,4 km/h (1 Bft) O 82 2 min 0,000 mm 0,5 UV-I 253 W/m 14,9 C 18,2 C 4,8 km/h (1 Bft) 95,74 %
20.07.2019 07:44 18,2 C 23,3 C 18,9 C 81 % 1014,2 hPa 0,0 l/m 3,2 km/h (1 Bft) NO 44 2 min 0,000 mm 0,0 UV-I 276 W/m 14,9 C 18,2 C 4,8 km/h (1 Bft) 93,62 %
20.07.2019 07:46 18,4 C 23,3 C 18,9 C 81 % 1014,1 hPa 0,0 l/m 4,2 km/h (1 Bft) N-NO 30 2 min 0,000 mm 0,0 UV-I 277 W/m 15,1 C 18,4 C 4,8 km/h (1 Bft) 93,62 %
20.07.2019 07:48 18,4 C 23,3 C 19,4 C 80 % 1014,1 hPa 0,0 l/m 3,3 km/h (1 Bft) N-NO 29 2 min 0,000 mm 0,5 UV-I 297 W/m 14,9 C 18,4 C 4,8 km/h (1 Bft) 93,62 %
20.07.2019 07:50 18,6 C 23,3 C 19,4 C 79 % 1014,2 hPa 0,0 l/m 3,7 km/h (1 Bft) N-NO 30 2 min 0,000 mm 0,5 UV-I 331 W/m 14,9 C 18,6 C 6,4 km/h (2 Bft) 93,62 %
20.07.2019 07:52 18,7 C 23,3 C 19,4 C 79 % 1014,1 hPa 0,0 l/m 3,7 km/h (1 Bft) N-NO 18 2 min 0,000 mm 0,5 UV-I 310 W/m 15,0 C 18,7 C 6,4 km/h (2 Bft) 95,74 %
20.07.2019 07:54 18,8 C 23,3 C 19,4 C 79 % 1014,2 hPa 0,0 l/m 3,8 km/h (1 Bft) N-NO 22 2 min 0,000 mm 0,7 UV-I 283 W/m 15,1 C 18,8 C 6,4 km/h (2 Bft) 92,11 %
20.07.2019 07:56 18,9 C 23,3 C 19,4 C 79 % 1014,2 hPa 0,0 l/m 4,8 km/h (1 Bft) N-NO 19 2 min 0,000 mm 0,7 UV-I 273 W/m 15,2 C 18,9 C 6,4 km/h (2 Bft) 94,00 %
20.07.2019 07:58 18,9 C 23,3 C 19,4 C 79 % 1014,2 hPa 0,0 l/m 5,6 km/h (1 Bft) N-NO 19 2 min 0,000 mm 0,7 UV-I 244 W/m 15,2 C 18,9 C 8,0 km/h (2 Bft) 96,23 %
20.07.2019 08:00 19,0 C 23,3 C 19,4 C 80 % 1014,2 hPa 0,0 l/m 3,7 km/h (1 Bft) NO 34 2 min 0,127 mm 0,8 UV-I 294 W/m 15,5 C 19,0 C 6,4 km/h (2 Bft) 95,74 %
20.07.2019 08:02 19,0 C 23,3 C 20,0 C 79 % 1014,1 hPa 0,0 l/m 4,1 km/h (1 Bft) NO 54 2 min 0,000 mm 0,8 UV-I 338 W/m 15,3 C 19,0 C 6,4 km/h (2 Bft) 93,62 %
20.07.2019 08:04 19,1 C 23,3 C 20,0 C 79 % 1014,2 hPa 0,0 l/m 4,2 km/h (1 Bft) O-NO 58 2 min 0,000 mm 0,9 UV-I 362 W/m 15,4 C 19,1 C 6,4 km/h (2 Bft) 97,87 %
20.07.2019 08:06 19,2 C 23,3 C 20,0 C 79 % 1014,2 hPa 0,0 l/m 3,4 km/h (1 Bft) O-NO 57 2 min 0,000 mm 0,9 UV-I 371 W/m 15,5 C 19,2 C 6,4 km/h (2 Bft) 97,87 %
20.07.2019 08:08 19,2 C 23,3 C 20,0 C 78 % 1014,2 hPa 0,0 l/m 4,5 km/h (1 Bft) NO 39 2 min 0,000 mm 0,9 UV-I 379 W/m 15,3 C 19,2 C 6,4 km/h (2 Bft) 97,87 %
20.07.2019 08:10 19,3 C 23,3 C 20,6 C 78 % 1014,2 hPa 0,0 l/m 3,2 km/h (1 Bft) NO 40 2 min 0,000 mm 1,0 UV-I 385 W/m 15,4 C 19,3 C 4,8 km/h (1 Bft) 95,74 %
20.07.2019 08:12 19,4 C 23,3 C 20,6 C 78 % 1014,2 hPa 0,0 l/m 3,2 km/h (1 Bft) NO 46 2 min 0,000 mm 1,0 UV-I 379 W/m 15,5 C 19,4 C 4,8 km/h (1 Bft) 97,87 %
20.07.2019 08:14 19,5 C 23,3 C 20,6 C 78 % 1014,2 hPa 0,0 l/m 4,6 km/h (1 Bft) N-NO 32 2 min 0,000 mm 1,0 UV-I 398 W/m 15,6 C 19,5 C 6,4 km/h (2 Bft) 97,87 %
20.07.2019 08:16 19,7 C 23,3 C 20,6 C 77 % 1014,2 hPa 0,0 l/m 3,0 km/h (1 Bft) NO 46 2 min 0,000 mm 1,1 UV-I 419 W/m 15,5 C 19,7 C 4,8 km/h (1 Bft) 97,22 %
20.07.2019 08:18 19,8 C 23,3 C 21,1 C 77 % 1014,2 hPa 0,0 l/m 4,2 km/h (1 Bft) NO 34 2 min 0,000 mm 1,1 UV-I 425 W/m 15,6 C 19,8 C 6,4 km/h (2 Bft) 97,87 %
20.07.2019 08:20 19,9 C 23,3 C 21,1 C 77 % 1014,2 hPa 0,0 l/m 4,7 km/h (1 Bft) NO 39 2 min 0,000 mm 1,1 UV-I 411 W/m 15,7 C 19,9 C 6,4 km/h (2 Bft) 97,87 %
20.07.2019 08:22 20,1 C 23,3 C 21,1 C 76 % 1014,2 hPa 0,0 l/m 4,2 km/h (1 Bft) N-NO 32 2 min 0,000 mm 1,1 UV-I 426 W/m 15,7 C 20,1 C 6,4 km/h (2 Bft) 96,00 %
20.07.2019 08:24 20,2 C 23,3 C 21,1 C 75 % 1014,2 hPa 0,0 l/m 4,1 km/h (1 Bft) N-NO 30 2 min 0,000 mm 1,2 UV-I 436 W/m 15,6 C 20,2 C 4,8 km/h (1 Bft) 92,00 %
20.07.2019 08:26 20,2 C 23,3 C 21,7 C 76 % 1014,2 hPa 0,0 l/m 3,7 km/h (1 Bft) O 87 2 min 0,000 mm 1,2 UV-I 423 W/m 15,8 C 20,2 C 6,4 km/h (2 Bft) 95,74 %
20.07.2019 08:28 20,3 C 23,9 C 21,7 C 76 % 1014,2 hPa 0,0 l/m 3,1 km/h (1 Bft) O 86 2 min 0,000 mm 1,2 UV-I 413 W/m 15,9 C 20,3 C 4,8 km/h (1 Bft) 97,87 %
20.07.2019 08:30 20,4 C 23,9 C 21,7 C 74 % 1014,3 hPa 0,0 l/m 3,4 km/h (1 Bft) O 85 2 min 0,000 mm 1,3 UV-I 454 W/m 15,6 C 20,4 C 4,8 km/h (1 Bft) 97,87 %
20.07.2019 08:32 20,5 C 23,9 C 21,7 C 74 % 1014,2 hPa 0,0 l/m 3,4 km/h (1 Bft) O 85 2 min 0,000 mm 1,3 UV-I 454 W/m 15,7 C 20,5 C 6,4 km/h (2 Bft) 97,87 %
20.07.2019 08:34 20,6 C 23,3 C 21,7 C 73 % 1014,3 hPa 0,0 l/m 3,0 km/h (1 Bft) N-NO 32 2 min 0,000 mm 1,3 UV-I 433 W/m 15,6 C 20,6 C 6,4 km/h (2 Bft) 98,00 %
20.07.2019 08:36 20,7 C 23,9 C 21,7 C 74 % 1014,2 hPa 0,0 l/m 3,5 km/h (1 Bft) N-NO 33 2 min 0,000 mm 1,3 UV-I 401 W/m 15,9 C 20,7 C 6,4 km/h (2 Bft) 97,87 %
20.07.2019 08:38 20,7 C 23,9 C 21,7 C 73 % 1014,2 hPa 0,0 l/m 3,9 km/h (1 Bft) NO 35 2 min 0,000 mm 1,3 UV-I 398 W/m 15,7 C 20,7 C 4,8 km/h (1 Bft) 93,62 %
20.07.2019 08:40 20,7 C 23,9 C 21,7 C 74 % 1014,2 hPa 0,0 l/m 5,3 km/h (1 Bft) NO 49 2 min 0,000 mm 1,4 UV-I 440 W/m 15,9 C 20,7 C 8,0 km/h (2 Bft) 100,00 %
20.07.2019 08:42 20,7 C 23,9 C 22,2 C 72 % 1014,2 hPa 0,0 l/m 1,7 km/h (1 Bft) NO 50 2 min 0,000 mm 1,4 UV-I 446 W/m 15,5 C 20,7 C 4,8 km/h (1 Bft) 98,00 %
20.07.2019 08:44 20,8 C 23,9 C 22,2 C 73 % 1014,2 hPa 0,0 l/m 3,4 km/h (1 Bft) NO 45 2 min 0,000 mm 1,5 UV-I 486 W/m 15,8 C 20,8 C 6,4 km/h (2 Bft) 95,74 %
20.07.2019 08:46 21,0 C 23,9 C 22,2 C 73 % 1014,2 hPa 0,0 l/m 4,2 km/h (1 Bft) NO 47 2 min 0,000 mm 1,5 UV-I 475 W/m 16,0 C 21,0 C 6,4 km/h (2 Bft) 100,00 %
20.07.2019 08:48 21,0 C 23,9 C 22,8 C 71 % 1014,2 hPa 0,0 l/m 3,4 km/h (1 Bft) NO 37 2 min 0,000 mm 1,6 UV-I 522 W/m 15,5 C 21,0 C 6,4 km/h (2 Bft) 100,00 %
20.07.2019 08:50 21,1 C 23,9 C 22,8 C 72 % 1014,2 hPa 0,0 l/m 1,7 km/h (1 Bft) NO 36 2 min 0,000 mm 1,6 UV-I 526 W/m 15,8 C 21,1 C 3,2 km/h (1 Bft) 100,00 %
20.07.2019 08:52 21,2 C 23,9 C 23,3 C 72 % 1014,2 hPa 0,0 l/m 2,0 km/h (1 Bft) O 89 2 min 0,000 mm 1,6 UV-I 509 W/m 15,9 C 21,2 C 6,4 km/h (2 Bft) 100,00 %
20.07.2019 08:54 21,2 C 23,9 C 23,9 C 72 % 1014,2 hPa 0,0 l/m 2,1 km/h (1 Bft) O-NO 69 2 min 0,000 mm 1,6 UV-I 477 W/m 15,9 C 21,2 C 4,8 km/h (1 Bft) 97,87 %
20.07.2019 08:56 21,3 C 23,9 C 24,4 C 71 % 1014,2 hPa 0,0 l/m 5,1 km/h (1 Bft) N-NO 25 2 min 0,000 mm 1,7 UV-I 486 W/m 15,8 C 21,3 C 6,4 km/h (2 Bft) 100,00 %
20.07.2019 08:58 21,5 C 23,9 C 25,0 C 71 % 1014,2 hPa 0,0 l/m 5,2 km/h (1 Bft) NO 42 2 min 0,000 mm 1,7 UV-I 504 W/m 16,0 C 21,5 C 8,0 km/h (2 Bft) 100,00 %
20.07.2019 09:00 21,5 C 23,9 C 25,6 C 70 % 1014,2 hPa 0,0 l/m 3,4 km/h (1 Bft) NO 42 2 min 0,254 mm 1,7 UV-I 514 W/m 15,8 C 21,5 C 4,8 km/h (1 Bft) 97,87 %
20.07.2019 09:02 21,6 C 23,9 C 26,7 C 70 % 1014,2 hPa 0,0 l/m 4,3 km/h (1 Bft) O 98 2 min 0,000 mm 1,8 UV-I 515 W/m 15,9 C 21,6 C 6,4 km/h (2 Bft) 100,00 %
20.07.2019 09:04 21,5 C 23,9 C 27,2 C 70 % 1014,2 hPa 0,0 l/m 2,3 km/h (1 Bft) O 101 2 min 0,000 mm 1,7 UV-I 462 W/m 15,8 C 21,5 C 4,8 km/h (1 Bft) 97,87 %
20.07.2019 09:06 21,4 C 23,9 C 28,3 C 71 % 1014,2 hPa 0,0 l/m 1,2 km/h (1 Bft) S 183 2 min 0,000 mm 1,8 UV-I 493 W/m 15,9 C 21,4 C 3,2 km/h (1 Bft) 100,00 %
20.07.2019 09:08 21,6 C 23,9 C 28,3 C 69 % 1014,2 hPa 0,0 l/m 3,7 km/h (1 Bft) N-NO 26 2 min 0,000 mm 1,8 UV-I 484 W/m 15,7 C 21,6 C 6,4 km/h (2 Bft) 100,00 %
20.07.2019 09:10 21,7 C 23,9 C 28,9 C 70 % 1014,3 hPa 0,0 l/m 3,8 km/h (1 Bft) O-NO 70 2 min 0,000 mm 1,7 UV-I 470 W/m 16,0 C 21,7 C 4,8 km/h (1 Bft) 100,00 %
20.07.2019 09:12 21,8 C 23,9 C 28,9 C 71 % 1014,3 hPa 0,0 l/m 4,3 km/h (1 Bft) NO 45 2 min 0,000 mm 1,3 UV-I 407 W/m 16,3 C 21,8 C 6,4 km/h (2 Bft) 97,87 %
20.07.2019 09:14 21,9 C 23,9 C 28,9 C 68 % 1014,3 hPa 0,0 l/m 3,1 km/h (1 Bft) O-NO 63 2 min 0,000 mm 1,8 UV-I 402 W/m 15,7 C 21,9 C 4,8 km/h (1 Bft) 100,00 %
20.07.2019 09:16 21,8 C 23,9 C 28,9 C 68 % 1014,3 hPa 0,0 l/m 1,5 km/h (1 Bft) O-NO 63 2 min 0,000 mm 1,9 UV-I 459 W/m 15,6 C 21,8 C 3,2 km/h (1 Bft) 100,00 %
20.07.2019 09:18 21,9 C 23,9 C 30,0 C 68 % 1014,3 hPa 0,0 l/m 1,8 km/h (1 Bft) O-NO 62 2 min 0,000 mm 2,0 UV-I 502 W/m 15,7 C 21,9 C 4,8 km/h (1 Bft) 100,00 %
20.07.2019 09:20 21,9 C 23,9 C 29,4 C 69 % 1014,3 hPa 0,0 l/m 4,4 km/h (1 Bft) O-NO 62 2 min 0,000 mm 2,0 UV-I 490 W/m 15,9 C 21,9 C 6,4 km/h (2 Bft) 100,00 %
20.07.2019 09:22 21,9 C 23,9 C 30,0 C 69 % 1014,3 hPa 0,0 l/m 3,0 km/h (1 Bft) N-NO 30 2 min 0,000 mm 2,1 UV-I 494 W/m 15,9 C 21,9 C 4,8 km/h (1 Bft) 100,00 %
20.07.2019 09:24 22,1 C 23,9 C 31,1 C 69 % 1014,3 hPa 0,0 l/m 2,8 km/h (1 Bft) NO 36 2 min 0,000 mm 2,1 UV-I 515 W/m 16,1 C 22,1 C 4,8 km/h (1 Bft) 100,00 %
20.07.2019 09:26 22,1 C 23,9 C 31,7 C 69 % 1014,3 hPa 0,0 l/m 1,9 km/h (1 Bft) NO 42 2 min 0,000 mm 2,2 UV-I 542 W/m 16,1 C 22,1 C 3,2 km/h (1 Bft) 100,00 %
20.07.2019 09:28 22,1 C 23,9 C 32,2 C 68 % 1014,3 hPa 0,0 l/m 1,8 km/h (1 Bft) NO 51 2 min 0,000 mm 2,2 UV-I 513 W/m 15,9 C 22,1 C 4,8 km/h (1 Bft) 100,00 %
20.07.2019 09:30 22,2 C 23,9 C 32,8 C 69 % 1014,3 hPa 0,0 l/m 2,8 km/h (1 Bft) O-NO 66 2 min 0,000 mm 2,2 UV-I 541 W/m 16,2 C 22,2 C 4,8 km/h (1 Bft) 100,00 %
20.07.2019 09:32 22,4 C 23,9 C 33,3 C 70 % 1014,3 hPa 0,0 l/m 3,3 km/h (1 Bft) O-NO 70 2 min 0,000 mm 2,3 UV-I 592 W/m 16,7 C 22,4 C 6,4 km/h (2 Bft) 100,00 %
20.07.2019 09:34 22,4 C 23,9 C 34,4 C 67 % 1014,3 hPa 0,0 l/m 4,1 km/h (1 Bft) O 95 2 min 0,000 mm 2,4 UV-I 595 W/m 16,0 C 22,4 C 6,4 km/h (2 Bft) 97,87 %
20.07.2019 09:36 22,3 C 23,9 C 33,9 C 67 % 1014,3 hPa 0,0 l/m 2,5 km/h (1 Bft) O-NO 65 2 min 0,000 mm 2,5 UV-I 600 W/m 15,9 C 22,3 C 6,4 km/h (2 Bft) 97,87 %
20.07.2019 09:38 22,3 C 23,9 C 33,9 C 65 % 1014,3 hPa 0,0 l/m 2,8 km/h (1 Bft) O-NO 66 2 min 0,000 mm 2,4 UV-I 604 W/m 15,4 C 22,3 C 4,8 km/h (1 Bft) 97,37 %
20.07.2019 09:40 22,4 C 23,9 C 34,4 C 66 % 1014,3 hPa 0,0 l/m 2,6 km/h (1 Bft) N-NO 19 2 min 0,000 mm 2,3 UV-I 610 W/m 15,7 C 22,4 C 4,8 km/h (1 Bft) 94,00 %
20.07.2019 09:42 22,7 C 23,9 C 34,4 C 67 % 1014,3 hPa 0,0 l/m 4,9 km/h (1 Bft) N 9 2 min 0,000 mm 2,2 UV-I 627 W/m 16,2 C 22,7 C 8,0 km/h (2 Bft) 97,87 %
20.07.2019 09:44 23,0 C 23,9 C 33,9 C 68 % 1014,3 hPa 0,0 l/m 5,4 km/h (1 Bft) N 11 2 min 0,000 mm 2,3 UV-I 635 W/m 16,8 C 23,0 C 8,0 km/h (2 Bft) 93,62 %
20.07.2019 09:46 23,2 C 23,9 C 34,4 C 66 % 1014,3 hPa 0,0 l/m 4,0 km/h (1 Bft) O-NO 62 2 min 0,000 mm 2,7 UV-I 638 W/m 16,5 C 23,2 C 6,4 km/h (2 Bft) 95,74 %
20.07.2019 09:48 23,2 C 23,9 C 35,0 C 66 % 1014,3 hPa 0,0 l/m 5,4 km/h (1 Bft) N-NO 21 2 min 0,000 mm 2,8 UV-I 642 W/m 16,5 C 23,2 C 9,7 km/h (2 Bft) 93,62 %
20.07.2019 09:50 23,3 C 23,9 C 33,9 C 65 % 1014,3 hPa 0,0 l/m 7,4 km/h (2 Bft) N-NO 16 2 min 0,000 mm 2,8 UV-I 635 W/m 16,3 C 23,0 C 11,3 km/h (2 Bft) 95,74 %
20.07.2019 09:52 23,3 C 23,9 C 34,4 C 64 % 1014,3 hPa 0,0 l/m 4,8 km/h (1 Bft) O-NO 71 2 min 0,000 mm 2,3 UV-I 589 W/m 16,1 C 23,3 C 9,7 km/h (2 Bft) 95,74 %
20.07.2019 09:54 23,1 C 23,9 C 35,0 C 64 % 1014,2 hPa 0,0 l/m 3,1 km/h (1 Bft) O 91 2 min 0,000 mm 2,8 UV-I 645 W/m 15,9 C 23,1 C 4,8 km/h (1 Bft) 96,00 %
20.07.2019 09:56 23,2 C 23,9 C 35,0 C 64 % 1014,2 hPa 0,0 l/m 3,9 km/h (1 Bft) O 82 2 min 0,000 mm 2,5 UV-I 627 W/m 16,0 C 23,2 C 6,4 km/h (2 Bft) 95,74 %
20.07.2019 09:58 23,3 C 23,9 C 35,6 C 65 % 1014,2 hPa 0,0 l/m 6,2 km/h (2 Bft) O-NO 63 2 min 0,000 mm 2,9 UV-I 621 W/m 16,3 C 23,3 C 9,7 km/h (2 Bft) 95,74 %
20.07.2019 10:00 23,3 C 23,9 C 35,6 C 64 % 1014,2 hPa 0,0 l/m 3,9 km/h (1 Bft) O-SO 114 2 min 0,356 mm 3,0 UV-I 656 W/m 16,1 C 23,3 C 6,4 km/h (2 Bft) 95,74 %
20.07.2019 10:02 23,5 C 23,9 C 36,1 C 67 % 1014,3 hPa 0,0 l/m 5,9 km/h (2 Bft) N 355 2 min 0,000 mm 3,1 UV-I 661 W/m 17,0 C 23,5 C 8,0 km/h (2 Bft) 93,62 %
20.07.2019 10:04 23,7 C 23,9 C 33,9 C 63 % 1014,2 hPa 0,0 l/m 8,6 km/h (2 Bft) NO 40 2 min 0,000 mm 3,1 UV-I 662 W/m 16,2 C 23,1 C 12,9 km/h (3 Bft) 93,62 %
20.07.2019 10:06 23,7 C 23,9 C 32,8 C 63 % 1014,2 hPa 0,0 l/m 7,0 km/h (2 Bft) N-NO 32 2 min 0,000 mm 3,1 UV-I 660 W/m 16,2 C 23,5 C 12,9 km/h (3 Bft) 97,22 %
20.07.2019 10:08 23,9 C 23,9 C 32,8 C 63 % 1014,3 hPa 0,0 l/m 6,8 km/h (2 Bft) NO 36 2 min 0,000 mm 3,1 UV-I 630 W/m 16,4 C 23,8 C 9,7 km/h (2 Bft) 96,00 %
20.07.2019 10:10 23,8 C 23,9 C 33,9 C 63 % 1014,2 hPa 0,0 l/m 2,9 km/h (1 Bft) NO 38 2 min 0,000 mm 2,9 UV-I 655 W/m 16,3 C 23,8 C 6,4 km/h (2 Bft) 98,00 %
20.07.2019 10:12 23,9 C 23,9 C 34,4 C 65 % 1014,2 hPa 0,0 l/m 3,4 km/h (1 Bft) O 79 2 min 0,000 mm 2,8 UV-I 676 W/m 16,9 C 23,9 C 6,4 km/h (2 Bft) 93,62 %
20.07.2019 10:14 24,1 C 23,9 C 35,0 C 63 % 1014,3 hPa 0,0 l/m 8,4 km/h (2 Bft) O-NO 71 2 min 0,000 mm 3,3 UV-I 679 W/m 16,6 C 23,6 C 11,3 km/h (2 Bft) 98,00 %
20.07.2019 10:16 24,3 C 23,9 C 34,4 C 62 % 1014,3 hPa 0,0 l/m 5,6 km/h (1 Bft) O-NO 78 2 min 0,000 mm 3,3 UV-I 679 W/m 16,5 C 24,3 C 9,7 km/h (2 Bft) 95,74 %
20.07.2019 10:18 24,3 C 23,9 C 35,0 C 61 % 1014,3 hPa 0,0 l/m 5,4 km/h (1 Bft) O-NO 65 2 min 0,000 mm 3,3 UV-I 687 W/m 16,3 C 24,3 C 9,7 km/h (2 Bft) 100,00 %
20.07.2019 10:20 24,2 C 23,9 C 34,4 C 63 % 1014,3 hPa 0,0 l/m 4,8 km/h (1 Bft) O-NO 77 2 min 0,000 mm 3,4 UV-I 695 W/m 16,7 C 24,2 C 6,4 km/h (2 Bft) 100,00 %
20.07.2019 10:22 24,2 C 23,9 C 35,6 C 63 % 1014,2 hPa 0,0 l/m 3,6 km/h (1 Bft) NO 46 2 min 0,000 mm 3,3 UV-I 699 W/m 16,7 C 24,2 C 8,0 km/h (2 Bft) 97,37 %
20.07.2019 10:24 24,2 C 23,9 C 35,6 C 62 % 1014,2 hPa 0,0 l/m 5,3 km/h (1 Bft) NO 45 2 min 0,000 mm 3,5 UV-I 696 W/m 16,4 C 24,2 C 8,0 km/h (2 Bft) 100,00 %
20.07.2019 10:26 24,4 C 23,9 C 35,0 C 64 % 1014,2 hPa 0,0 l/m 6,7 km/h (2 Bft) O-NO 69 2 min 0,000 mm 3,4 UV-I 703 W/m 17,1 C 24,3 C 11,3 km/h (2 Bft) 100,00 %
20.07.2019 10:28 24,6 C 23,9 C 35,0 C 62 % 1014,2 hPa 0,0 l/m 5,9 km/h (2 Bft) N 9 2 min 0,000 mm 2,6 UV-I 708 W/m 16,8 C 24,6 C 9,7 km/h (2 Bft) 100,00 %
20.07.2019 10:30 24,6 C 23,9 C 35,6 C 61 % 1014,2 hPa 0,0 l/m 3,7 km/h (1 Bft) N 355 2 min 0,000 mm 3,4 UV-I 711 W/m 16,6 C 24,6 C 8,0 km/h (2 Bft) 100,00 %
20.07.2019 10:32 24,7 C 23,9 C 36,1 C 62 % 1014,2 hPa 0,0 l/m 8,2 km/h (2 Bft) N-NO 30 2 min 0,000 mm 3,7 UV-I 715 W/m 16,9 C 24,2 C 12,9 km/h (3 Bft) 100,00 %
20.07.2019 10:34 25,0 C 23,9 C 35,0 C 60 % 1014,2 hPa 0,0 l/m 10,1 km/h (2 Bft) NO 52 2 min 0,000 mm 3,7 UV-I 722 W/m 16,7 C 24,1 C 14,5 km/h (3 Bft) 100,00 %
20.07.2019 10:36 24,9 C 23,9 C 34,4 C 59 % 1014,2 hPa 0,0 l/m 5,7 km/h (1 Bft) N 11 2 min 0,000 mm 3,8 UV-I 728 W/m 16,3 C 24,9 C 8,0 km/h (2 Bft) 98,00 %
20.07.2019 10:38 24,9 C 23,9 C 35,0 C 60 % 1014,2 hPa 0,0 l/m 6,0 km/h (2 Bft) N-NO 30 2 min 0,000 mm 3,8 UV-I 729 W/m 16,6 C 24,9 C 9,7 km/h (2 Bft) 100,00 %
20.07.2019 10:40 25,2 C 23,9 C 35,0 C 60 % 1014,2 hPa 0,0 l/m 5,9 km/h (2 Bft) NO 44 2 min 0,000 mm 3,9 UV-I 734 W/m 16,9 C 25,2 C 9,7 km/h (2 Bft) 97,87 %
20.07.2019 10:42 25,2 C 23,9 C 35,0 C 59 % 1014,1 hPa 0,0 l/m 6,7 km/h (2 Bft) N 5 2 min 0,000 mm 3,9 UV-I 733 W/m 16,6 C 25,1 C 9,7 km/h (2 Bft) 100,00 %
20.07.2019 10:44 25,3 C 23,9 C 34,4 C 59 % 1014,1 hPa 0,0 l/m 6,1 km/h (2 Bft) N 360 2 min 0,000 mm 3,9 UV-I 731 W/m 16,7 C 25,3 C 12,9 km/h (3 Bft) 97,87 %
20.07.2019 10:46 25,3 C 23,9 C 35,6 C 58 % 1014,1 hPa 0,0 l/m 7,6 km/h (2 Bft) N 9 2 min 0,000 mm 4,0 UV-I 738 W/m 16,4 C 25,0 C 12,9 km/h (3 Bft) 100,00 %
20.07.2019 10:48 25,6 C 23,9 C 35,0 C 58 % 1014,0 hPa 0,0 l/m 9,1 km/h (2 Bft) N-NO 17 2 min 0,000 mm 4,0 UV-I 735 W/m 16,7 C 25,0 C 12,9 km/h (3 Bft) 100,00 %
20.07.2019 10:50 25,6 C 23,9 C 35,0 C 57 % 1014,0 hPa 0,0 l/m 7,2 km/h (2 Bft) N-NW 332 2 min 0,000 mm 3,9 UV-I 701 W/m 16,4 C 25,4 C 12,9 km/h (3 Bft) 100,00 %
20.07.2019 10:52 25,4 C 23,9 C 35,6 C 59 % 1014,0 hPa 0,0 l/m 3,9 km/h (1 Bft) O-NO 73 2 min 0,000 mm 4,1 UV-I 747 W/m 16,8 C 25,4 C 6,4 km/h (2 Bft) 97,87 %
20.07.2019 10:54 25,4 C 23,9 C 36,7 C 58 % 1014,0 hPa 0,0 l/m 4,3 km/h (1 Bft) N-NO 30 2 min 0,000 mm 3,9 UV-I 759 W/m 16,5 C 25,4 C 9,7 km/h (2 Bft) 100,00 %
20.07.2019 10:56 25,6 C 23,9 C 36,7 C 59 % 1014,0 hPa 0,0 l/m 6,6 km/h (2 Bft) O-NO 68 2 min 0,000 mm 4,2 UV-I 762 W/m 17,0 C 25,6 C 12,9 km/h (3 Bft) 100,00 %
20.07.2019 10:58 25,6 C 23,9 C 37,2 C 59 % 1014,0 hPa 0,0 l/m 6,1 km/h (2 Bft) O-NO 64 2 min 0,000 mm 4,2 UV-I 765 W/m 17,0 C 25,6 C 12,9 km/h (3 Bft) 100,00 %
20.07.2019 11:00 25,6 C 23,9 C 37,2 C 56 % 1014,0 hPa 0,0 l/m 7,4 km/h (2 Bft) O-NO 64 2 min 0,482 mm 4,3 UV-I 766 W/m 16,2 C 25,4 C 12,9 km/h (3 Bft) 100,00 %
20.07.2019 11:02 25,6 C 23,9 C 36,1 C 56 % 1014,0 hPa 0,0 l/m 6,6 km/h (2 Bft) O-NO 60 2 min 0,000 mm 4,3 UV-I 769 W/m 16,2 C 25,6 C 9,7 km/h (2 Bft) 97,87 %
20.07.2019 11:04 25,6 C 23,9 C 35,6 C 55 % 1014,0 hPa 0,0 l/m 6,1 km/h (2 Bft) NO 46 2 min 0,000 mm 4,4 UV-I 772 W/m 15,9 C 25,6 C 11,3 km/h (2 Bft) 100,00 %
20.07.2019 11:06 25,6 C 23,9 C 36,1 C 55 % 1014,0 hPa 0,0 l/m 4,1 km/h (1 Bft) N-NO 12 2 min 0,000 mm 4,4 UV-I 774 W/m 15,9 C 25,6 C 6,4 km/h (2 Bft) 96,00 %
20.07.2019 11:08 25,4 C 23,9 C 36,7 C 57 % 1014,0 hPa 0,0 l/m 2,5 km/h (1 Bft) NW 307 2 min 0,000 mm 4,4 UV-I 774 W/m 16,2 C 25,4 C 4,8 km/h (1 Bft) 97,87 %
20.07.2019 11:10 25,5 C 23,9 C 37,8 C 58 % 1014,0 hPa 0,0 l/m 4,1 km/h (1 Bft) O-NO 59 2 min 0,000 mm 4,4 UV-I 774 W/m 16,6 C 25,5 C 9,7 km/h (2 Bft) 97,87 %
20.07.2019 11:12 25,8 C 23,9 C 36,7 C 58 % 1014,0 hPa 0,0 l/m 9,0 km/h (2 Bft) NO 37 2 min 0,000 mm 4,5 UV-I 777 W/m 16,9 C 25,2 C 14,5 km/h (3 Bft) 97,87 %
20.07.2019 11:14 25,9 C 23,9 C 36,1 C 57 % 1014,0 hPa 0,0 l/m 5,8 km/h (2 Bft) NO 44 2 min 0,000 mm 4,5 UV-I 785 W/m 16,7 C 25,9 C 12,9 km/h (3 Bft) 93,62 %
20.07.2019 11:16 25,9 C 23,9 C 36,7 C 57 % 1014,0 hPa 0,0 l/m 7,5 km/h (2 Bft) N-NO 30 2 min 0,000 mm 4,6 UV-I 788 W/m 16,7 C 25,7 C 12,9 km/h (3 Bft) 92,11 %
20.07.2019 11:18 26,1 C 23,9 C 36,7 C 58 % 1014,0 hPa 0,0 l/m 7,6 km/h (2 Bft) N-NW 342 2 min 0,000 mm 4,6 UV-I 790 W/m 17,2 C 25,8 C 12,9 km/h (3 Bft) 97,87 %
20.07.2019 11:20 26,2 C 23,9 C 37,2 C 56 % 1014,0 hPa 0,0 l/m 6,3 km/h (2 Bft) O-NO 71 2 min 0,000 mm 3,8 UV-I 794 W/m 16,7 C 26,2 C 12,9 km/h (3 Bft) 96,00 %
20.07.2019 11:22 26,2 C 23,9 C 37,2 C 56 % 1014,0 hPa 0,0 l/m 6,7 km/h (2 Bft) O-NO 58 2 min 0,000 mm 4,7 UV-I 796 W/m 16,7 C 26,1 C 9,7 km/h (2 Bft) 97,87 %
20.07.2019 11:24 26,0 C 23,9 C 37,2 C 56 % 1014,0 hPa 0,0 l/m 4,9 km/h (1 Bft) O-SO 104 2 min 0,000 mm 4,7 UV-I 799 W/m 16,5 C 26,0 C 11,3 km/h (2 Bft) 97,92 %
20.07.2019 11:26 26,1 C 23,9 C 38,3 C 57 % 1014,0 hPa 0,0 l/m 5,1 km/h (1 Bft) O-NO 78 2 min 0,000 mm 4,8 UV-I 802 W/m 16,9 C 26,1 C 9,7 km/h (2 Bft) 94,00 %
20.07.2019 11:28 26,2 C 23,9 C 39,4 C 56 % 1014,0 hPa 0,0 l/m 3,5 km/h (1 Bft) O-NO 64 2 min 0,000 mm 4,2 UV-I 804 W/m 16,7 C 26,2 C 6,4 km/h (2 Bft) 95,74 %
20.07.2019 11:30 26,3 C 23,9 C 37,8 C 54 % 1014,0 hPa 0,0 l/m 5,2 km/h (1 Bft) O-NO 78 2 min 0,000 mm 4,9 UV-I 808 W/m 16,2 C 26,3 C 8,0 km/h (2 Bft) 95,74 %
20.07.2019 11:32 26,4 C 23,9 C 38,3 C 52 % 1014,0 hPa 0,0 l/m 4,9 km/h (1 Bft) O-SO 117 2 min 0,000 mm 4,9 UV-I 810 W/m 15,7 C 26,4 C 9,7 km/h (2 Bft) 92,11 %
20.07.2019 11:34 26,3 C 23,9 C 39,4 C 56 % 1014,0 hPa 0,0 l/m 4,2 km/h (1 Bft) N 355 2 min 0,000 mm 4,9 UV-I 811 W/m 16,8 C 26,3 C 8,0 km/h (2 Bft) 93,62 %
20.07.2019 11:36 26,6 C 24,4 C 39,4 C 55 % 1013,8 hPa 0,0 l/m 5,0 km/h (1 Bft) NO 43 2 min 0,000 mm 4,9 UV-I 813 W/m 16,8 C 26,6 C 8,0 km/h (2 Bft) 94,00 %
20.07.2019 11:38 26,9 C 24,4 C 39,4 C 53 % 1013,8 hPa 0,0 l/m 6,4 km/h (2 Bft) O 86 2 min 0,000 mm 5,0 UV-I 818 W/m 16,5 C 26,9 C 11,3 km/h (2 Bft) 95,74 %
20.07.2019 11:40 26,9 C 24,4 C 39,4 C 54 % 1013,9 hPa 0,0 l/m 6,8 km/h (2 Bft) O-SO 103 2 min 0,000 mm 5,0 UV-I 820 W/m 16,8 C 26,8 C 11,3 km/h (2 Bft) 91,49 %
20.07.2019 11:42 27,0 C 23,9 C 40,6 C 54 % 1013,9 hPa 0,0 l/m 2,8 km/h (1 Bft) O-SO 114 2 min 0,000 mm 5,0 UV-I 827 W/m 16,9 C 27,0 C 6,4 km/h (2 Bft) 93,62 %
20.07.2019 11:44 26,8 C 24,4 C 40,6 C 51 % 1013,8 hPa 0,0 l/m 1,0 km/h (0 Bft) O-SO 114 2 min 0,000 mm 5,1 UV-I 829 W/m 15,8 C 26,8 C 3,2 km/h (1 Bft) 93,62 %
20.07.2019 11:46 26,9 C 24,4 C 40,6 C 56 % 1013,8 hPa 0,0 l/m 4,7 km/h (1 Bft) N 355 2 min 0,000 mm 5,0 UV-I 801 W/m 17,4 C 26,9 C 12,9 km/h (3 Bft) 91,49 %
20.07.2019 11:48 27,2 C 24,4 C 40,6 C 53 % 1013,8 hPa 0,0 l/m 6,5 km/h (2 Bft) N-NW 343 2 min 0,000 mm 5,1 UV-I 828 W/m 16,8 C 27,2 C 12,9 km/h (3 Bft) 90,00 %
20.07.2019 11:50 27,3 C 24,4 C 39,4 C 54 % 1013,8 hPa 0,0 l/m 8,4 km/h (2 Bft) N-NO 30 2 min 0,000 mm 5,1 UV-I 830 W/m 17,2 C 26,9 C 14,5 km/h (3 Bft) 89,36 %
20.07.2019 11:52 27,3 C 24,4 C 37,8 C 54 % 1013,8 hPa 0,0 l/m 8,2 km/h (2 Bft) O-NO 65 2 min 0,000 mm 5,2 UV-I 832 W/m 17,2 C 27,0 C 12,9 km/h (3 Bft) 94,74 %
20.07.2019 11:54 27,3 C 24,4 C 37,8 C 53 % 1013,8 hPa 0,0 l/m 6,4 km/h (2 Bft) O-NO 61 2 min 0,000 mm 5,2 UV-I 835 W/m 16,9 C 27,3 C 8,0 km/h (2 Bft) 91,49 %
20.07.2019 11:56 27,4 C 24,4 C 38,9 C 54 % 1013,8 hPa 0,0 l/m 6,6 km/h (2 Bft) N 355 2 min 0,000 mm 5,2 UV-I 837 W/m 17,3 C 27,4 C 12,9 km/h (3 Bft) 93,62 %
20.07.2019 11:58 27,5 C 24,4 C 38,9 C 50 % 1013,8 hPa 0,0 l/m 5,0 km/h (1 Bft) N-NO 18 2 min 0,000 mm 5,3 UV-I 840 W/m 16,1 C 27,5 C 12,9 km/h (3 Bft) 93,75 %
20.07.2019 12:00 27,4 C 24,4 C 38,3 C 51 % 1013,8 hPa 0,0 l/m 3,6 km/h (1 Bft) N-NW 334 2 min 0,559 mm 5,3 UV-I 833 W/m 16,3 C 27,4 C 8,0 km/h (2 Bft) 96,00 %
20.07.2019 12:02 27,5 C 24,4 C 38,3 C 53 % 1013,8 hPa 0,0 l/m 8,7 km/h (2 Bft) N-NO 19 2 min 0,000 mm 5,2 UV-I 827 W/m 17,0 C 27,1 C 14,5 km/h (3 Bft) 95,74 %
20.07.2019 12:04 27,7 C 24,4 C 37,8 C 50 % 1013,7 hPa 0,0 l/m 6,3 km/h (2 Bft) NO 40 2 min 0,000 mm 5,3 UV-I 842 W/m 16,3 C 27,7 C 12,9 km/h (3 Bft) 94,00 %
20.07.2019 12:06 27,5 C 24,4 C 37,2 C 49 % 1013,8 hPa 0,0 l/m 7,9 km/h (2 Bft) N-NW 329 2 min 0,000 mm 5,4 UV-I 849 W/m 15,8 C 27,2 C 12,9 km/h (3 Bft) 97,87 %
20.07.2019 12:08 27,4 C 24,4 C 37,8 C 51 % 1013,8 hPa 0,0 l/m 8,4 km/h (2 Bft) N-NW 345 2 min 0,000 mm 5,4 UV-I 850 W/m 16,3 C 27,1 C 12,9 km/h (3 Bft) 100,00 %
20.07.2019 12:10 27,3 C 24,4 C 37,8 C 51 % 1013,8 hPa 0,0 l/m 6,4 km/h (2 Bft) N-NW 342 2 min 0,000 mm 5,4 UV-I 857 W/m 16,3 C 27,3 C 8,0 km/h (2 Bft) 100,00 %
20.07.2019 12:12 27,6 C 24,4 C 38,9 C 55 % 1013,8 hPa 0,0 l/m 7,4 km/h (2 Bft) O-NO 62 2 min 0,000 mm 5,4 UV-I 850 W/m 17,7 C 27,4 C 12,9 km/h (3 Bft) 100,00 %
20.07.2019 12:14 27,8 C 24,4 C 38,9 C 52 % 1013,7 hPa 0,0 l/m 8,4 km/h (2 Bft) NO 47 2 min 0,000 mm 5,4 UV-I 844 W/m 17,0 C 27,5 C 12,9 km/h (3 Bft) 97,87 %
20.07.2019 12:16 27,9 C 24,4 C 39,4 C 52 % 1013,8 hPa 0,0 l/m 6,7 km/h (2 Bft) NO 46 2 min 0,000 mm 5,5 UV-I 858 W/m 17,1 C 27,9 C 11,3 km/h (2 Bft) 100,00 %
20.07.2019 12:18 27,9 C 24,4 C 39,4 C 51 % 1013,7 hPa 0,0 l/m 5,9 km/h (2 Bft) NO 49 2 min 0,000 mm 5,5 UV-I 859 W/m 16,8 C 27,9 C 8,0 km/h (2 Bft) 100,00 %
20.07.2019 12:20 28,1 C 24,4 C 39,4 C 50 % 1013,7 hPa 0,0 l/m 5,8 km/h (2 Bft) O 79 2 min 0,000 mm 5,5 UV-I 860 W/m 16,7 C 28,1 C 9,7 km/h (2 Bft) 100,00 %
20.07.2019 12:22 28,1 C 24,4 C 38,9 C 52 % 1013,7 hPa 0,0 l/m 8,3 km/h (2 Bft) N-NO 20 2 min 0,000 mm 5,4 UV-I 857 W/m 17,3 C 27,8 C 12,9 km/h (3 Bft) 100,00 %
20.07.2019 12:24 28,2 C 24,4 C 38,9 C 49 % 1013,7 hPa 0,0 l/m 5,1 km/h (1 Bft) O 98 2 min 0,000 mm 4,8 UV-I 857 W/m 16,5 C 28,2 C 8,0 km/h (2 Bft) 100,00 %
20.07.2019 12:26 28,1 C 24,4 C 39,4 C 50 % 1013,6 hPa 0,0 l/m 7,5 km/h (2 Bft) N 350 2 min 0,000 mm 5,6 UV-I 862 W/m 16,7 C 27,9 C 14,5 km/h (3 Bft) 100,00 %
20.07.2019 12:28 28,0 C 24,4 C 40,0 C 50 % 1013,6 hPa 0,0 l/m 5,8 km/h (2 Bft) NW 323 2 min 0,000 mm 5,6 UV-I 860 W/m 16,6 C 28,0 C 12,9 km/h (3 Bft) 100,00 %
20.07.2019 12:30 28,1 C 24,4 C 39,4 C 50 % 1013,6 hPa 0,0 l/m 6,0 km/h (2 Bft) NO 36 2 min 0,000 mm 5,6 UV-I 861 W/m 16,7 C 28,1 C 12,9 km/h (3 Bft) 100,00 %
20.07.2019 12:32 28,2 C 24,4 C 38,9 C 50 % 1013,6 hPa 0,0 l/m 8,6 km/h (2 Bft) N 9 2 min 0,000 mm 5,6 UV-I 863 W/m 16,8 C 27,9 C 12,9 km/h (3 Bft) 97,87 %
20.07.2019 12:34 28,2 C 24,4 C 39,4 C 50 % 1013,6 hPa 0,0 l/m 7,5 km/h (2 Bft) N-NO 18 2 min 0,000 mm 5,6 UV-I 863 W/m 16,8 C 28,0 C 12,9 km/h (3 Bft) 100,00 %
20.07.2019 12:36 28,3 C 24,4 C 37,8 C 49 % 1013,6 hPa 0,0 l/m 8,5 km/h (2 Bft) N-NO 32 2 min 0,000 mm 5,6 UV-I 851 W/m 16,5 C 28,0 C 12,9 km/h (3 Bft) 100,00 %
20.07.2019 12:38 28,4 C 24,4 C 37,2 C 49 % 1013,5 hPa 0,0 l/m 7,2 km/h (2 Bft) NO 37 2 min 0,000 mm 5,6 UV-I 819 W/m 16,6 C 28,3 C 12,9 km/h (3 Bft) 97,87 %
20.07.2019 12:40 28,4 C 24,4 C 37,8 C 50 % 1013,5 hPa 0,0 l/m 8,3 km/h (2 Bft) N 11 2 min 0,000 mm 5,6 UV-I 850 W/m 17,0 C 28,1 C 14,5 km/h (3 Bft) 98,00 %
20.07.2019 12:42 28,4 C 24,4 C 38,3 C 50 % 1013,4 hPa 0,0 l/m 5,0 km/h (1 Bft) N-NW 344 2 min 0,000 mm 5,6 UV-I 847 W/m 17,0 C 28,4 C 8,0 km/h (2 Bft) 97,87 %
20.07.2019 12:44 28,5 C 24,4 C 38,3 C 49 % 1013,5 hPa 0,0 l/m 9,3 km/h (2 Bft) O-NO 72 2 min 0,000 mm 5,6 UV-I 852 W/m 16,7 C 28,1 C 14,5 km/h (3 Bft) 100,00 %
20.07.2019 12:46 28,4 C 24,4 C 38,9 C 48 % 1013,4 hPa 0,0 l/m 5,4 km/h (1 Bft) NO 44 2 min 0,000 mm 5,6 UV-I 860 W/m 16,3 C 28,4 C 11,3 km/h (2 Bft) 97,87 %
20.07.2019 12:48 28,5 C 24,4 C 38,3 C 48 % 1013,5 hPa 0,0 l/m 7,6 km/h (2 Bft) N-NO 18 2 min 0,000 mm 5,6 UV-I 856 W/m 16,4 C 28,3 C 11,3 km/h (2 Bft) 100,00 %
20.07.2019 12:50 28,5 C 25,0 C 38,3 C 48 % 1013,4 hPa 0,0 l/m 6,5 km/h (2 Bft) N 355 2 min 0,000 mm 5,7 UV-I 874 W/m 16,4 C 28,5 C 8,0 km/h (2 Bft) 100,00 %
20.07.2019 12:52 28,6 C 25,0 C 39,4 C 47 % 1013,4 hPa 0,0 l/m 4,3 km/h (1 Bft) N-NO 28 2 min 0,000 mm 5,7 UV-I 875 W/m 16,2 C 28,6 C 11,3 km/h (2 Bft) 100,00 %
20.07.2019 12:54 28,8 C 25,0 C 39,4 C 49 % 1013,4 hPa 0,0 l/m 8,9 km/h (2 Bft) NO 49 2 min 0,000 mm 5,8 UV-I 879 W/m 17,0 C 28,5 C 12,9 km/h (3 Bft) 100,00 %
20.07.2019 12:56 28,9 C 25,0 C 39,4 C 47 % 1013,4 hPa 0,0 l/m 5,6 km/h (1 Bft) O-NO 70 2 min 0,000 mm 5,8 UV-I 880 W/m 16,4 C 28,9 C 9,7 km/h (2 Bft) 100,00 %
20.07.2019 12:58 28,8 C 25,0 C 40,6 C 48 % 1013,4 hPa 0,0 l/m 5,2 km/h (1 Bft) N-NO 22 2 min 0,000 mm 5,6 UV-I 851 W/m 16,7 C 28,8 C 8,0 km/h (2 Bft) 98,00 %
20.07.2019 13:00 28,8 C 25,0 C 40,6 C 48 % 1013,4 hPa 0,0 l/m 4,0 km/h (1 Bft) NO 48 2 min 0,000 mm 5,7 UV-I 862 W/m 16,7 C 28,8 C 6,4 km/h (2 Bft) 97,87 %
20.07.2019 13:02 28,8 C 25,0 C 40,6 C 48 % 1013,4 hPa 0,0 l/m 8,4 km/h (2 Bft) N 9 2 min 0,610 mm 5,8 UV-I 889 W/m 16,7 C 28,5 C 12,9 km/h (3 Bft) 100,00 %
20.07.2019 13:04 28,9 C 25,0 C 40,0 C 47 % 1013,3 hPa 0,0 l/m 7,4 km/h (2 Bft) N 5 2 min 0,000 mm 5,8 UV-I 883 W/m 16,4 C 28,8 C 14,5 km/h (3 Bft) 97,87 %
20.07.2019 13:06 29,0 C 25,0 C 39,4 C 46 % 1013,3 hPa 0,0 l/m 8,1 km/h (2 Bft) N 360 2 min 0,000 mm 5,8 UV-I 888 W/m 16,2 C 28,8 C 12,9 km/h (3 Bft) 97,87 %
20.07.2019 13:08 29,0 C 25,0 C 39,4 C 46 % 1013,4 hPa 0,0 l/m 6,0 km/h (2 Bft) N-NO 17 2 min 0,000 mm 5,8 UV-I 896 W/m 16,2 C 29,0 C 8,0 km/h (2 Bft) 100,00 %
20.07.2019 13:10 29,1 C 25,0 C 39,4 C 47 % 1013,4 hPa 0,0 l/m 6,4 km/h (2 Bft) NW 318 2 min 0,000 mm 5,7 UV-I 874 W/m 16,6 C 29,1 C 9,7 km/h (2 Bft) 100,00 %
20.07.2019 13:12 29,2 C 25,0 C 40,6 C 49 % 1013,4 hPa 0,0 l/m 4,0 km/h (1 Bft) N 11 2 min 0,000 mm 5,5 UV-I 815 W/m 17,4 C 29,2 C 8,0 km/h (2 Bft) 100,00 %
20.07.2019 13:14 29,1 C 25,0 C 40,6 C 44 % 1013,3 hPa 0,0 l/m 2,3 km/h (1 Bft) NO 37 2 min 0,000 mm 5,2 UV-I 739 W/m 15,6 C 29,1 C 11,3 km/h (2 Bft) 95,83 %
20.07.2019 13:16 28,9 C 25,0 C 40,6 C 46 % 1013,4 hPa 0,0 l/m 4,3 km/h (1 Bft) O-NO 57 2 min 0,000 mm 5,5 UV-I 830 W/m 16,1 C 28,9 C 8,0 km/h (2 Bft) 97,87 %
20.07.2019 13:18 29,0 C 25,0 C 41,1 C 45 % 1013,4 hPa 0,0 l/m 5,7 km/h (1 Bft) O 86 2 min 0,000 mm 5,7 UV-I 880 W/m 15,8 C 29,0 C 11,3 km/h (2 Bft) 97,87 %
20.07.2019 13:20 28,9 C 25,0 C 41,7 C 43 % 1013,4 hPa 0,0 l/m 3,8 km/h (1 Bft) O 97 2 min 0,000 mm 5,7 UV-I 874 W/m 15,0 C 28,9 C 4,8 km/h (1 Bft) 98,00 %
20.07.2019 13:22 28,7 C 25,0 C 42,2 C 46 % 1013,3 hPa 0,0 l/m 1,7 km/h (1 Bft) O 96 2 min 0,000 mm 5,8 UV-I 876 W/m 15,9 C 28,7 C 3,2 km/h (1 Bft) 95,74 %
20.07.2019 13:24 28,9 C 25,0 C 42,8 C 44 % 1013,3 hPa 0,0 l/m 3,1 km/h (1 Bft) O-NO 78 2 min 0,000 mm 5,7 UV-I 885 W/m 15,4 C 28,9 C 6,4 km/h (2 Bft) 91,49 %
20.07.2019 13:26 29,1 C 25,0 C 41,1 C 48 % 1013,3 hPa 0,0 l/m 5,9 km/h (2 Bft) O 84 2 min 0,000 mm 5,3 UV-I 815 W/m 16,9 C 29,1 C 9,7 km/h (2 Bft) 96,23 %
20.07.2019 13:28 29,1 C 25,0 C 40,6 C 43 % 1013,3 hPa 0,0 l/m 4,3 km/h (1 Bft) NO 50 2 min 0,000 mm 5,4 UV-I 801 W/m 15,2 C 29,1 C 8,0 km/h (2 Bft) 97,87 %
20.07.2019 13:30 29,1 C 25,0 C 40,0 C 46 % 1013,3 hPa 0,0 l/m 6,5 km/h (2 Bft) O-NO 60 2 min 0,000 mm 5,3 UV-I 795 W/m 16,3 C 29,1 C 9,7 km/h (2 Bft) 97,87 %
20.07.2019 13:32 29,2 C 25,0 C 40,0 C 45 % 1013,3 hPa 0,0 l/m 8,0 km/h (2 Bft) N 5 2 min 0,000 mm 5,4 UV-I 816 W/m 16,0 C 29,0 C 12,9 km/h (3 Bft) 97,87 %
20.07.2019 13:34 29,3 C 25,0 C 39,4 C 44 % 1013,3 hPa 0,0 l/m 8,2 km/h (2 Bft) NO 40 2 min 0,000 mm 5,5 UV-I 843 W/m 15,8 C 29,1 C 11,3 km/h (2 Bft) 92,11 %
20.07.2019 13:36 29,4 C 25,0 C 39,4 C 43 % 1013,3 hPa 0,0 l/m 7,4 km/h (2 Bft) N-NW 342 2 min 0,000 mm 5,4 UV-I 829 W/m 15,5 C 29,3 C 12,9 km/h (3 Bft) 93,62 %
20.07.2019 13:38 29,4 C 25,0 C 39,4 C 42 % 1013,3 hPa 0,0 l/m 6,8 km/h (2 Bft) N 5 2 min 0,000 mm 5,4 UV-I 815 W/m 15,1 C 29,4 C 9,7 km/h (2 Bft) 96,23 %
20.07.2019 13:40 29,3 C 25,0 C 40,0 C 43 % 1013,3 hPa 0,0 l/m 7,1 km/h (2 Bft) W-NW 292 2 min 0,000 mm 5,5 UV-I 825 W/m 15,4 C 29,2 C 12,9 km/h (3 Bft) 95,74 %
20.07.2019 13:42 29,3 C 25,0 C 39,4 C 43 % 1013,3 hPa 0,0 l/m 8,0 km/h (2 Bft) N-NW 339 2 min 0,000 mm 5,6 UV-I 858 W/m 15,4 C 29,1 C 14,5 km/h (3 Bft) 93,62 %
20.07.2019 13:44 29,3 C 25,0 C 40,0 C 42 % 1013,3 hPa 0,0 l/m 3,8 km/h (1 Bft) N 349 2 min 0,000 mm 5,5 UV-I 827 W/m 15,0 C 29,3 C 6,4 km/h (2 Bft) 97,87 %
20.07.2019 13:46 29,4 C 25,0 C 40,6 C 41 % 1013,2 hPa 0,0 l/m 3,7 km/h (1 Bft) W-NW 286 2 min 0,000 mm 5,6 UV-I 870 W/m 14,7 C 29,4 C 6,4 km/h (2 Bft) 97,87 %
20.07.2019 13:48 29,4 C 25,0 C 40,6 C 42 % 1013,3 hPa 0,0 l/m 4,7 km/h (1 Bft) W-SW 237 2 min 0,000 mm 5,6 UV-I 860 W/m 15,1 C 29,4 C 8,0 km/h (2 Bft) 93,62 %
20.07.2019 13:50 29,4 C 25,0 C 41,7 C 43 % 1013,3 hPa 0,0 l/m 4,9 km/h (1 Bft) W-NW 296 2 min 0,000 mm 5,6 UV-I 862 W/m 15,5 C 29,4 C 6,4 km/h (2 Bft) 95,74 %
20.07.2019 13:52 29,5 C 25,0 C 41,7 C 43 % 1013,3 hPa 0,0 l/m 4,6 km/h (1 Bft) NW 319 2 min 0,000 mm 5,6 UV-I 875 W/m 15,6 C 29,5 C 8,0 km/h (2 Bft) 97,87 %
20.07.2019 13:54 29,5 C 25,0 C 41,1 C 41 % 1013,2 hPa 0,0 l/m 2,8 km/h (1 Bft) NW 323 2 min 0,000 mm 5,6 UV-I 859 W/m 14,8 C 29,5 C 6,4 km/h (2 Bft) 97,22 %
20.07.2019 13:56 29,4 C 25,0 C 41,7 C 42 % 1013,3 hPa 0,0 l/m 0,9 km/h (0 Bft) NW 322 2 min 0,000 mm 5,6 UV-I 858 W/m 15,1 C 29,4 C 3,2 km/h (1 Bft) 98,11 %
20.07.2019 13:58 29,2 C 25,0 C 41,7 C 40 % 1013,3 hPa 0,0 l/m 1,4 km/h (1 Bft) NW 323 2 min 0,000 mm 5,5 UV-I 857 W/m 14,2 C 29,2 C 3,2 km/h (1 Bft) 98,00 %
20.07.2019 14:00 29,3 C 25,0 C 41,7 C 44 % 1013,2 hPa 0,0 l/m 1,6 km/h (1 Bft) NW 322 2 min 0,609 mm 5,5 UV-I 856 W/m 15,8 C 29,3 C 3,2 km/h (1 Bft) 95,74 %
20.07.2019 14:02 29,4 C 25,0 C 42,2 C 43 % 1013,2 hPa 0,0 l/m 3,2 km/h (1 Bft) NW 311 2 min 0,000 mm 5,5 UV-I 860 W/m 15,5 C 29,4 C 6,4 km/h (2 Bft) 97,87 %
20.07.2019 14:04 29,7 C 25,0 C 41,7 C 43 % 1013,2 hPa 0,0 l/m 3,1 km/h (1 Bft) O 80 2 min 0,000 mm 5,5 UV-I 862 W/m 15,8 C 29,7 C 8,0 km/h (2 Bft) 94,74 %
20.07.2019 14:06 29,9 C 25,0 C 41,7 C 42 % 1013,2 hPa 0,0 l/m 6,5 km/h (2 Bft) NO 43 2 min 0,000 mm 5,4 UV-I 840 W/m 15,6 C 29,9 C 9,7 km/h (2 Bft) 96,08 %
20.07.2019 14:08 30,2 C 25,0 C 41,7 C 42 % 1013,2 hPa 0,0 l/m 7,2 km/h (2 Bft) O-NO 73 2 min 0,000 mm 5,3 UV-I 831 W/m 15,8 C 30,1 C 12,9 km/h (3 Bft) 95,74 %
20.07.2019 14:10 30,2 C 25,0 C 40,6 C 42 % 1013,2 hPa 0,0 l/m 6,4 km/h (2 Bft) O-NO 67 2 min 0,000 mm 5,2 UV-I 809 W/m 15,8 C 30,2 C 12,9 km/h (3 Bft) 93,62 %
20.07.2019 14:12 30,2 C 25,0 C 41,7 C 40 % 1013,2 hPa 0,0 l/m 6,3 km/h (2 Bft) O-NO 76 2 min 0,000 mm 5,4 UV-I 853 W/m 15,1 C 30,2 C 8,0 km/h (2 Bft) 98,00 %
20.07.2019 14:14 30,2 C 25,0 C 41,7 C 39 % 1013,2 hPa 0,0 l/m 7,8 km/h (2 Bft) NO 46 2 min 0,000 mm 5,3 UV-I 849 W/m 14,7 C 30,1 C 14,5 km/h (3 Bft) 97,87 %
20.07.2019 14:16 30,3 C 25,0 C 41,7 C 41 % 1013,2 hPa 0,0 l/m 7,5 km/h (2 Bft) N-NW 334 2 min 0,000 mm 5,3 UV-I 847 W/m 15,6 C 30,2 C 14,5 km/h (3 Bft) 95,74 %
20.07.2019 14:18 30,3 C 25,0 C 41,1 C 40 % 1013,2 hPa 0,0 l/m 6,1 km/h (2 Bft) W-NW 299 2 min 0,000 mm 5,3 UV-I 848 W/m 15,2 C 30,3 C 9,7 km/h (2 Bft) 97,87 %
20.07.2019 14:20 30,1 C 25,0 C 41,7 C 40 % 1013,2 hPa 0,0 l/m 4,9 km/h (1 Bft) W-NW 290 2 min 0,000 mm 5,3 UV-I 848 W/m 15,0 C 30,1 C 8,0 km/h (2 Bft) 97,87 %
20.07.2019 14:22 29,9 C 25,0 C 41,7 C 39 % 1013,2 hPa 0,0 l/m 4,4 km/h (1 Bft) W-NW 303 2 min 0,000 mm 5,1 UV-I 829 W/m 14,4 C 29,9 C 6,4 km/h (2 Bft) 97,87 %
20.07.2019 14:24 29,9 C 25,0 C 41,7 C 42 % 1013,1 hPa 0,0 l/m 3,6 km/h (1 Bft) W-NW 303 2 min 0,000 mm 4,9 UV-I 814 W/m 15,6 C 29,9 C 6,4 km/h (2 Bft) 95,74 %
20.07.2019 14:26 29,9 C 25,0 C 42,2 C 42 % 1013,1 hPa 0,0 l/m 2,4 km/h (1 Bft) W-NW 302 2 min 0,000 mm 4,7 UV-I 711 W/m 15,6 C 29,9 C 4,8 km/h (1 Bft) 97,87 %
20.07.2019 14:28 30,0 C 25,0 C 42,2 C 41 % 1013,1 hPa 0,0 l/m 2,3 km/h (1 Bft) NO 37 2 min 0,000 mm 5,0 UV-I 799 W/m 15,3 C 30,0 C 6,4 km/h (2 Bft) 97,87 %
20.07.2019 14:30 30,2 C 25,0 C 40,6 C 43 % 1013,1 hPa 0,0 l/m 9,2 km/h (2 Bft) N-NO 21 2 min 0,000 mm 5,1 UV-I 825 W/m 16,2 C 30,0 C 12,9 km/h (3 Bft) 97,87 %
20.07.2019 14:32 30,3 C 25,0 C 40,0 C 42 % 1013,1 hPa 0,0 l/m 7,1 km/h (2 Bft) NO 39 2 min 0,000 mm 4,8 UV-I 748 W/m 15,9 C 30,2 C 12,9 km/h (3 Bft) 95,74 %
20.07.2019 14:34 30,2 C 25,6 C 38,9 C 42 % 1013,1 hPa 0,0 l/m 5,6 km/h (1 Bft) O-NO 75 2 min 0,000 mm 4,7 UV-I 704 W/m 15,8 C 30,2 C 11,3 km/h (2 Bft) 95,74 %
20.07.2019 14:36 30,1 C 25,6 C 40,0 C 40 % 1013,0 hPa 0,0 l/m 8,1 km/h (2 Bft) O-SO 107 2 min 0,000 mm 4,9 UV-I 805 W/m 15,0 C 29,9 C 14,5 km/h (3 Bft) 93,62 %
20.07.2019 14:38 29,9 C 25,6 C 40,0 C 39 % 1013,0 hPa 0,0 l/m 4,8 km/h (1 Bft) O-SO 103 2 min 0,000 mm 5,0 UV-I 818 W/m 14,4 C 29,9 C 9,7 km/h (2 Bft) 91,67 %
20.07.2019 14:40 29,8 C 25,6 C 40,6 C 40 % 1013,0 hPa 0,0 l/m 2,5 km/h (1 Bft) O-SO 103 2 min 0,000 mm 5,0 UV-I 822 W/m 14,7 C 29,8 C 4,8 km/h (1 Bft) 97,87 %
20.07.2019 14:42 29,9 C 25,6 C 41,7 C 40 % 1013,0 hPa 0,0 l/m 2,2 km/h (1 Bft) O-SO 107 2 min 0,000 mm 4,9 UV-I 825 W/m 14,8 C 29,9 C 4,8 km/h (1 Bft) 97,87 %
20.07.2019 14:44 30,1 C 25,6 C 41,7 C 41 % 1013,0 hPa 0,0 l/m 7,8 km/h (2 Bft) N 5 2 min 0,000 mm 5,0 UV-I 832 W/m 15,4 C 30,0 C 16,1 km/h (3 Bft) 97,87 %
20.07.2019 14:46 30,6 C 25,6 C 40,6 C 40 % 1013,0 hPa 0,0 l/m 8,1 km/h (2 Bft) N 11 2 min 0,000 mm 4,9 UV-I 809 W/m 15,4 C 30,5 C 14,5 km/h (3 Bft) 97,14 %
20.07.2019 14:48 30,7 C 25,6 C 40,0 C 41 % 1013,0 hPa 0,0 l/m 8,8 km/h (2 Bft) N-NO 30 2 min 0,000 mm 4,9 UV-I 811 W/m 15,9 C 30,5 C 12,9 km/h (3 Bft) 97,87 %
20.07.2019 14:50 30,9 C 25,6 C 40,0 C 40 % 1013,0 hPa 0,0 l/m 8,0 km/h (2 Bft) O-NO 63 2 min 0,000 mm 4,9 UV-I 809 W/m 15,7 C 30,8 C 11,3 km/h (2 Bft) 98,18 %
20.07.2019 14:52 31,0 C 25,6 C 40,6 C 41 % 1012,9 hPa 0,0 l/m 8,1 km/h (2 Bft) N 355 2 min 0,000 mm 4,8 UV-I 826 W/m 16,2 C 30,9 C 12,9 km/h (3 Bft) 97,87 %
20.07.2019 14:54 31,2 C 25,6 C 40,6 C 38 % 1012,9 hPa 0,0 l/m 10,8 km/h (2 Bft) N-NO 30 2 min 0,000 mm 4,8 UV-I 826 W/m 15,2 C 31,0 C 16,1 km/h (3 Bft) 95,74 %
20.07.2019 14:56 31,2 C 25,6 C 39,4 C 37 % 1012,9 hPa 0,0 l/m 8,2 km/h (2 Bft) W-NW 300 2 min 0,000 mm 4,8 UV-I 818 W/m 14,8 C 31,1 C 11,3 km/h (2 Bft) 100,00 %
20.07.2019 14:58 31,0 C 25,6 C 40,0 C 36 % 1012,9 hPa 0,0 l/m 6,3 km/h (2 Bft) N-NO 14 2 min 0,000 mm 4,7 UV-I 792 W/m 14,2 C 31,0 C 11,3 km/h (2 Bft) 100,00 %
20.07.2019 15:00 30,9 C 25,6 C 40,6 C 38 % 1012,9 hPa 0,0 l/m 5,0 km/h (1 Bft) NW 313 2 min 0,610 mm 4,7 UV-I 816 W/m 14,9 C 30,9 C 8,0 km/h (2 Bft) 100,00 %
20.07.2019 15:02 31,1 C 25,6 C 41,1 C 39 % 1012,9 hPa 0,0 l/m 5,4 km/h (1 Bft) N-NW 335 2 min 0,000 mm 4,7 UV-I 819 W/m 15,5 C 31,1 C 11,3 km/h (2 Bft) 100,00 %
20.07.2019 15:04 31,2 C 25,6 C 41,1 C 37 % 1012,9 hPa 0,0 l/m 7,6 km/h (2 Bft) N 11 2 min 0,000 mm 4,7 UV-I 814 W/m 14,8 C 31,1 C 12,9 km/h (3 Bft) 100,00 %
20.07.2019 15:06 31,2 C 25,6 C 40,6 C 38 % 1012,9 hPa 0,0 l/m 9,7 km/h (2 Bft) NO 38 2 min 0,000 mm 4,7 UV-I 817 W/m 15,2 C 31,0 C 14,5 km/h (3 Bft) 95,74 %
20.07.2019 15:08 31,3 C 25,6 C 40,0 C 38 % 1012,9 hPa 0,0 l/m 7,0 km/h (2 Bft) W-NW 286 2 min 0,000 mm 4,4 UV-I 753 W/m 15,3 C 31,3 C 11,3 km/h (2 Bft) 95,74 %
20.07.2019 15:10 31,2 C 25,6 C 40,6 C 37 % 1012,9 hPa 0,0 l/m 7,3 km/h (2 Bft) W 268 2 min 0,000 mm 4,3 UV-I 724 W/m 14,8 C 31,1 C 11,3 km/h (2 Bft) 97,44 %
20.07.2019 15:12 30,9 C 25,6 C 41,1 C 36 % 1012,8 hPa 0,0 l/m 4,9 km/h (1 Bft) N-NO 12 2 min 0,000 mm 4,2 UV-I 734 W/m 14,1 C 30,9 C 12,9 km/h (3 Bft) 98,00 %
20.07.2019 15:14 31,1 C 25,6 C 41,1 C 37 % 1012,9 hPa 0,0 l/m 5,7 km/h (1 Bft) N 360 2 min 0,000 mm 4,4 UV-I 806 W/m 14,7 C 31,1 C 9,7 km/h (2 Bft) 97,87 %
20.07.2019 15:16 31,1 C 25,6 C 41,7 C 38 % 1012,9 hPa 0,0 l/m 3,4 km/h (1 Bft) W 266 2 min 0,000 mm 4,3 UV-I 810 W/m 15,1 C 31,1 C 6,4 km/h (2 Bft) 93,62 %
20.07.2019 15:18 31,1 C 25,6 C 41,1 C 36 % 1012,9 hPa 0,0 l/m 4,1 km/h (1 Bft) NW 313 2 min 0,000 mm 3,9 UV-I 736 W/m 14,2 C 31,1 C 6,4 km/h (2 Bft) 97,87 %
20.07.2019 15:20 31,1 C 25,6 C 41,1 C 39 % 1012,8 hPa 0,0 l/m 2,7 km/h (1 Bft) W 261 2 min 0,000 mm 3,8 UV-I 668 W/m 15,5 C 31,1 C 4,8 km/h (1 Bft) 96,00 %
20.07.2019 15:22 31,1 C 25,6 C 41,1 C 39 % 1012,8 hPa 0,0 l/m 9,6 km/h (2 Bft) W-SW 240 2 min 0,000 mm 4,0 UV-I 671 W/m 15,5 C 30,9 C 14,5 km/h (3 Bft) 93,62 %
20.07.2019 15:24 31,1 C 25,6 C 40,6 C 37 % 1012,8 hPa 0,0 l/m 8,6 km/h (2 Bft) W 267 2 min 0,000 mm 3,9 UV-I 723 W/m 14,7 C 31,0 C 11,3 km/h (2 Bft) 95,74 %
20.07.2019 15:26 31,0 C 25,6 C 39,4 C 37 % 1012,8 hPa 0,0 l/m 10,1 km/h (2 Bft) SW 228 2 min 0,000 mm 3,4 UV-I 668 W/m 14,6 C 30,8 C 14,5 km/h (3 Bft) 97,87 %
20.07.2019 15:28 30,9 C 25,6 C 38,3 C 38 % 1012,8 hPa 0,0 l/m 5,7 km/h (1 Bft) W 264 2 min 0,000 mm 3,2 UV-I 586 W/m 14,9 C 30,9 C 9,7 km/h (2 Bft) 97,87 %
20.07.2019 15:30 30,7 C 25,6 C 38,3 C 36 % 1012,9 hPa 0,0 l/m 6,1 km/h (2 Bft) W 268 0 min 0,000 mm 3,2 UV-I 404 W/m 13,9 C 30,7 C 11,3 km/h (2 Bft) 97,87 %
20.07.2019 15:32 30,7 C 25,6 C 38,9 C 39 % 1012,8 hPa 0,0 l/m 5,4 km/h (1 Bft) N-NW 346 2 min 0,000 mm 3,7 UV-I 618 W/m 15,1 C 30,7 C 11,3 km/h (2 Bft) 97,87 %
20.07.2019 15:34 30,7 C 25,6 C 40,0 C 40 % 1012,8 hPa 0,0 l/m 3,9 km/h (1 Bft) W-NW 289 2 min 0,000 mm 3,9 UV-I 753 W/m 15,5 C 30,7 C 6,4 km/h (2 Bft) 97,87 %
20.07.2019 15:36 30,8 C 25,6 C 40,6 C 38 % 1012,8 hPa 0,0 l/m 6,1 km/h (2 Bft) NW 320 2 min 0,000 mm 3,9 UV-I 768 W/m 14,8 C 30,8 C 11,3 km/h (2 Bft) 97,87 %
20.07.2019 15:38 31,0 C 25,6 C 40,6 C 38 % 1012,8 hPa 0,0 l/m 5,2 km/h (1 Bft) N 5 2 min 0,000 mm 3,7 UV-I 710 W/m 15,0 C 31,0 C 8,0 km/h (2 Bft) 100,00 %
20.07.2019 15:40 31,1 C 25,6 C 41,1 C 37 % 1012,8 hPa 0,0 l/m 4,7 km/h (1 Bft) NW 319 2 min 0,000 mm 3,8 UV-I 721 W/m 14,7 C 31,1 C 8,0 km/h (2 Bft) 98,00 %
20.07.2019 15:42 31,1 C 25,6 C 40,6 C 37 % 1012,8 hPa 0,0 l/m 3,7 km/h (1 Bft) N-NW 342 2 min 0,000 mm 3,7 UV-I 690 W/m 14,7 C 31,1 C 6,4 km/h (2 Bft) 98,00 %
20.07.2019 15:44 31,0 C 25,6 C 41,1 C 40 % 1012,7 hPa 0,0 l/m 3,5 km/h (1 Bft) NO 47 2 min 0,000 mm 3,5 UV-I 673 W/m 15,8 C 31,0 C 6,4 km/h (2 Bft) 95,74 %
20.07.2019 15:46 31,2 C 25,6 C 41,1 C 38 % 1012,7 hPa 0,0 l/m 4,4 km/h (1 Bft) W-NW 298 2 min 0,000 mm 3,7 UV-I 728 W/m 15,2 C 31,2 C 6,4 km/h (2 Bft) 97,87 %
20.07.2019 15:48 31,2 C 25,6 C 41,1 C 40 % 1012,7 hPa 0,0 l/m 4,3 km/h (1 Bft) NW 306 2 min 0,000 mm 3,5 UV-I 694 W/m 16,0 C 31,2 C 12,9 km/h (3 Bft) 97,92 %
20.07.2019 15:50 31,2 C 25,6 C 40,6 C 39 % 1012,7 hPa 0,0 l/m 6,5 km/h (2 Bft) N-NW 343 2 min 0,000 mm 3,5 UV-I 688 W/m 15,6 C 31,2 C 12,9 km/h (3 Bft) 93,62 %
20.07.2019 15:52 31,2 C 25,6 C 40,0 C 37 % 1012,7 hPa 0,0 l/m 9,6 km/h (2 Bft) NO 34 2 min 0,000 mm 3,5 UV-I 716 W/m 14,8 C 31,0 C 14,5 km/h (3 Bft) 97,87 %
20.07.2019 15:54 31,4 C 25,6 C 39,4 C 37 % 1012,6 hPa 0,0 l/m 9,6 km/h (2 Bft) N 9 2 min 0,000 mm 3,4 UV-I 713 W/m 14,9 C 31,2 C 14,5 km/h (3 Bft) 97,87 %
20.07.2019 15:56 31,6 C 25,6 C 38,9 C 39 % 1012,6 hPa 0,0 l/m 9,5 km/h (2 Bft) N 355 2 min 0,000 mm 3,3 UV-I 668 W/m 15,9 C 31,5 C 14,5 km/h (3 Bft) 98,00 %
20.07.2019 15:58 31,7 C 25,6 C 38,3 C 36 % 1012,6 hPa 0,0 l/m 9,9 km/h (2 Bft) N 11 2 min 0,000 mm 3,2 UV-I 613 W/m 14,8 C 31,6 C 14,5 km/h (3 Bft) 95,74 %
20.07.2019 16:00 31,6 C 25,6 C 37,8 C 35 % 1012,6 hPa 0,0 l/m 8,1 km/h (2 Bft) N-NO 19 2 min 0,000 mm 3,1 UV-I 581 W/m 14,2 C 31,5 C 12,9 km/h (3 Bft) 97,87 %
20.07.2019 16:02 31,4 C 25,6 C 37,2 C 36 % 1012,6 hPa 0,0 l/m 6,9 km/h (2 Bft) N-NO 13 2 min 0,559 mm 2,8 UV-I 514 W/m 14,5 C 31,4 C 11,3 km/h (2 Bft) 97,87 %
20.07.2019 16:04 31,3 C 25,6 C 37,2 C 37 % 1012,6 hPa 0,0 l/m 7,9 km/h (2 Bft) NW 317 2 min 0,000 mm 2,9 UV-I 550 W/m 14,8 C 31,2 C 12,9 km/h (3 Bft) 97,87 %
20.07.2019 16:06 31,3 C 25,6 C 37,8 C 38 % 1012,6 hPa 0,0 l/m 5,8 km/h (2 Bft) N 355 2 min 0,000 mm 3,1 UV-I 629 W/m 15,3 C 31,3 C 9,7 km/h (2 Bft) 95,74 %
20.07.2019 16:08 31,3 C 25,6 C 38,3 C 37 % 1012,6 hPa 0,0 l/m 4,6 km/h (1 Bft) N-NO 24 2 min 0,000 mm 3,0 UV-I 660 W/m 14,8 C 31,3 C 8,0 km/h (2 Bft) 100,00 %
20.07.2019 16:10 31,2 C 25,6 C 39,4 C 37 % 1012,6 hPa 0,0 l/m 3,2 km/h (1 Bft) NO 42 2 min 0,000 mm 2,9 UV-I 604 W/m 14,8 C 31,2 C 6,4 km/h (2 Bft) 95,74 %
20.07.2019 16:12 31,2 C 25,6 C 38,9 C 37 % 1012,6 hPa 0,0 l/m 6,4 km/h (2 Bft) NO 36 2 min 0,000 mm 3,0 UV-I 652 W/m 14,8 C 31,2 C 19,3 km/h (3 Bft) 98,00 %
20.07.2019 16:14 31,4 C 25,6 C 37,8 C 38 % 1012,5 hPa 0,0 l/m 13,5 km/h (3 Bft) N 9 2 min 0,000 mm 2,9 UV-I 605 W/m 15,3 C 31,1 C 20,9 km/h (4 Bft) 98,11 %
20.07.2019 16:16 31,4 C 25,6 C 37,2 C 38 % 1012,5 hPa 0,0 l/m 8,9 km/h (2 Bft) NO 40 2 min 0,000 mm 2,7 UV-I 537 W/m 15,3 C 31,3 C 12,9 km/h (3 Bft) 100,00 %
20.07.2019 16:18 31,5 C 25,6 C 37,8 C 37 % 1012,5 hPa 0,0 l/m 4,5 km/h (1 Bft) NO 35 2 min 0,000 mm 2,9 UV-I 622 W/m 15,0 C 31,5 C 9,7 km/h (2 Bft) 100,00 %
20.07.2019 16:20 31,6 C 25,6 C 40,0 C 37 % 1012,5 hPa 0,0 l/m 2,6 km/h (1 Bft) N 355 2 min 0,000 mm 3,0 UV-I 665 W/m 15,1 C 31,6 C 4,8 km/h (1 Bft) 95,83 %
20.07.2019 16:22 31,5 C 25,6 C 40,6 C 36 % 1012,5 hPa 0,0 l/m 1,5 km/h (1 Bft) W-NW 286 2 min 0,000 mm 2,9 UV-I 618 W/m 14,6 C 31,5 C 4,8 km/h (1 Bft) 97,87 %
20.07.2019 16:24 31,4 C 25,6 C 41,7 C 41 % 1012,5 hPa 0,0 l/m 4,1 km/h (1 Bft) W 279 2 min 0,000 mm 3,0 UV-I 668 W/m 16,5 C 31,4 C 6,4 km/h (2 Bft) 98,08 %
20.07.2019 16:26 31,4 C 25,6 C 41,7 C 38 % 1012,5 hPa 0,0 l/m 5,3 km/h (1 Bft) W 280 2 min 0,000 mm 2,9 UV-I 643 W/m 15,3 C 31,4 C 9,7 km/h (2 Bft) 98,00 %
20.07.2019 16:28 31,3 C 25,6 C 42,2 C 37 % 1012,5 hPa 0,0 l/m 3,1 km/h (1 Bft) W 280 2 min 0,000 mm 2,9 UV-I 672 W/m 14,8 C 31,3 C 6,4 km/h (2 Bft) 100,00 %
20.07.2019 16:30 31,4 C 26,1 C 42,8 C 37 % 1012,4 hPa 0,0 l/m 3,4 km/h (1 Bft) N 11 2 min 0,000 mm 2,9 UV-I 670 W/m 14,9 C 31,4 C 11,3 km/h (2 Bft) 100,00 %
20.07.2019 16:32 31,5 C 26,1 C 41,1 C 36 % 1012,4 hPa 0,0 l/m 5,5 km/h (1 Bft) N-NO 15 2 min 0,000 mm 2,8 UV-I 667 W/m 14,6 C 31,5 C 9,7 km/h (2 Bft) 100,00 %
20.07.2019 16:34 31,4 C 26,1 C 41,7 C 36 % 1012,3 hPa 0,0 l/m 3,8 km/h (1 Bft) NW 321 2 min 0,000 mm 2,8 UV-I 655 W/m 14,5 C 31,4 C 6,4 km/h (2 Bft) 100,00 %
20.07.2019 16:36 31,4 C 26,1 C 41,1 C 39 % 1012,4 hPa 0,0 l/m 5,7 km/h (1 Bft) N-NO 17 2 min 0,000 mm 2,6 UV-I 600 W/m 15,7 C 31,4 C 11,3 km/h (2 Bft) 97,87 %
20.07.2019 16:38 31,7 C 26,1 C 40,0 C 40 % 1012,3 hPa 0,0 l/m 6,6 km/h (2 Bft) N 5 2 min 0,000 mm 2,5 UV-I 568 W/m 16,4 C 31,7 C 11,3 km/h (2 Bft) 100,00 %
20.07.2019 16:40 31,6 C 26,1 C 40,0 C 39 % 1012,2 hPa 0,0 l/m 1,9 km/h (1 Bft) W 279 2 min 0,000 mm 2,1 UV-I 526 W/m 15,9 C 31,6 C 4,8 km/h (1 Bft) 97,87 %
20.07.2019 16:42 31,3 C 26,1 C 39,4 C 40 % 1012,2 hPa 0,0 l/m 4,2 km/h (1 Bft) NW 304 2 min 0,000 mm 2,2 UV-I 494 W/m 16,1 C 31,3 C 8,0 km/h (2 Bft) 100,00 %
20.07.2019 16:44 31,1 C 26,1 C 38,9 C 40 % 1012,2 hPa 0,0 l/m 4,6 km/h (1 Bft) NW 305 2 min 0,000 mm 2,0 UV-I 441 W/m 15,9 C 31,1 C 6,4 km/h (2 Bft) 100,00 %
20.07.2019 16:46 30,9 C 26,1 C 37,2 C 39 % 1012,2 hPa 0,0 l/m 4,2 km/h (1 Bft) W 261 2 min 0,000 mm 1,9 UV-I 352 W/m 15,3 C 30,9 C 6,4 km/h (2 Bft) 97,87 %
20.07.2019 16:48 30,7 C 26,1 C 37,2 C 41 % 1012,2 hPa 0,0 l/m 3,6 km/h (1 Bft) NW 312 2 min 0,000 mm 1,9 UV-I 345 W/m 15,9 C 30,7 C 6,4 km/h (2 Bft) 97,87 %
20.07.2019 16:50 30,7 C 26,1 C 37,2 C 38 % 1012,2 hPa 0,0 l/m 2,6 km/h (1 Bft) N-NW 342 2 min 0,000 mm 2,1 UV-I 457 W/m 14,7 C 30,7 C 8,0 km/h (2 Bft) 95,74 %
20.07.2019 16:52 30,8 C 26,1 C 38,9 C 40 % 1012,2 hPa 0,0 l/m 3,9 km/h (1 Bft) N-NW 331 2 min 0,000 mm 2,3 UV-I 559 W/m 15,6 C 30,8 C 4,8 km/h (1 Bft) 96,00 %
20.07.2019 16:54 31,0 C 26,1 C 39,4 C 39 % 1012,2 hPa 0,0 l/m 4,4 km/h (1 Bft) NO 45 2 min 0,000 mm 2,4 UV-I 626 W/m 15,4 C 31,0 C 6,4 km/h (2 Bft) 98,00 %
20.07.2019 16:56 31,2 C 26,1 C 40,0 C 40 % 1012,2 hPa 0,0 l/m 6,4 km/h (2 Bft) N-NO 17 2 min 0,000 mm 2,3 UV-I 594 W/m 16,0 C 31,2 C 11,3 km/h (2 Bft) 97,87 %
20.07.2019 16:58 31,3 C 26,1 C 38,9 C 40 % 1012,2 hPa 0,0 l/m 6,6 km/h (2 Bft) N-NW 341 2 min 0,000 mm 2,1 UV-I 544 W/m 16,1 C 31,3 C 9,7 km/h (2 Bft) 95,74 %
20.07.2019 17:00 31,3 C 26,1 C 38,3 C 39 % 1012,1 hPa 0,0 l/m 6,4 km/h (2 Bft) N-NO 19 2 min 0,457 mm 2,0 UV-I 452 W/m 15,7 C 31,3 C 11,3 km/h (2 Bft) 97,87 %
20.07.2019 17:02 31,3 C 26,1 C 37,2 C 38 % 1012,2 hPa 0,0 l/m 5,4 km/h (1 Bft) N-NW 340 2 min 0,000 mm 1,8 UV-I 399 W/m 15,3 C 31,3 C 8,0 km/h (2 Bft) 91,67 %
20.07.2019 17:04 31,1 C 26,1 C 36,1 C 38 % 1012,1 hPa 0,0 l/m 4,5 km/h (1 Bft) N 350 0 min 0,000 mm 1,6 UV-I 299 W/m 15,1 C 31,1 C 6,4 km/h (2 Bft) 94,34 %
20.07.2019 17:06 30,9 C 26,1 C 36,7 C 39 % 1012,1 hPa 0,0 l/m 3,1 km/h (1 Bft) N-NW 346 2 min 0,000 mm 1,8 UV-I 400 W/m 15,3 C 30,9 C 4,8 km/h (1 Bft) 93,62 %
20.07.2019 17:08 30,9 C 26,1 C 36,7 C 39 % 1012,1 hPa 0,0 l/m 3,1 km/h (1 Bft) NO 38 2 min 0,000 mm 1,8 UV-I 472 W/m 15,3 C 30,9 C 4,8 km/h (1 Bft) 93,62 %
20.07.2019 17:10 31,1 C 26,1 C 37,8 C 40 % 1012,1 hPa 0,0 l/m 4,1 km/h (1 Bft) NW 324 2 min 0,000 mm 2,0 UV-I 568 W/m 15,9 C 31,1 C 6,4 km/h (2 Bft) 95,74 %
20.07.2019 17:12 31,3 C 26,1 C 39,4 C 38 % 1012,1 hPa 0,0 l/m 4,8 km/h (1 Bft) N 355 2 min 0,000 mm 2,0 UV-I 573 W/m 15,3 C 31,3 C 8,0 km/h (2 Bft) 95,74 %
20.07.2019 17:14 31,3 C 26,1 C 39,4 C 39 % 1012,1 hPa 0,0 l/m 7,5 km/h (2 Bft) N-NO 22 2 min 0,000 mm 2,0 UV-I 565 W/m 15,7 C 31,2 C 12,9 km/h (3 Bft) 95,74 %
20.07.2019 17:16 31,3 C 26,1 C 40,0 C 39 % 1012,0 hPa 0,0 l/m 6,0 km/h (2 Bft) N-NO 13 2 min 0,000 mm 1,9 UV-I 559 W/m 15,7 C 31,3 C 8,0 km/h (2 Bft) 95,74 %
20.07.2019 17:18 31,4 C 26,1 C 40,0 C 39 % 1012,0 hPa 0,0 l/m 5,5 km/h (1 Bft) N-NW 346 2 min 0,000 mm 1,8 UV-I 506 W/m 15,7 C 31,4 C 8,0 km/h (2 Bft) 95,74 %
20.07.2019 17:20 31,3 C 26,1 C 38,9 C 39 % 1012,0 hPa 0,0 l/m 3,6 km/h (1 Bft) NW 322 2 min 0,000 mm 1,6 UV-I 478 W/m 15,7 C 31,3 C 6,4 km/h (2 Bft) 95,74 %
20.07.2019 17:22 31,1 C 26,1 C 37,8 C 39 % 1012,0 hPa 0,0 l/m 3,5 km/h (1 Bft) NW 324 2 min 0,000 mm 1,4 UV-I 450 W/m 15,5 C 31,1 C 6,4 km/h (2 Bft) 95,74 %
20.07.2019 17:24 31,0 C 26,1 C 36,7 C 38 % 1012,0 hPa 0,0 l/m 2,7 km/h (1 Bft) N-NW 335 0 min 0,000 mm 1,3 UV-I 270 W/m 15,0 C 31,0 C 4,8 km/h (1 Bft) 95,74 %
20.07.2019 17:26 30,8 C 26,1 C 35,6 C 38 % 1012,0 hPa 0,0 l/m 1,9 km/h (1 Bft) N-NW 333 0 min 0,000 mm 1,3 UV-I 274 W/m 14,8 C 30,8 C 3,2 km/h (1 Bft) 95,12 %
20.07.2019 17:28 30,8 C 26,1 C 35,6 C 40 % 1012,0 hPa 0,0 l/m 2,0 km/h (1 Bft) N-NW 335 2 min 0,000 mm 1,3 UV-I 299 W/m 15,6 C 30,8 C 3,2 km/h (1 Bft) 98,00 %
20.07.2019 17:30 30,9 C 26,1 C 36,7 C 41 % 1012,0 hPa 0,0 l/m 4,0 km/h (1 Bft) N 9 2 min 0,000 mm 1,4 UV-I 416 W/m 16,1 C 30,9 C 8,0 km/h (2 Bft) 93,62 %
20.07.2019 17:32 30,9 C 26,1 C 37,2 C 41 % 1011,9 hPa 0,0 l/m 5,3 km/h (1 Bft) N 5 2 min 0,000 mm 1,4 UV-I 459 W/m 16,1 C 30,9 C 6,4 km/h (2 Bft) 100,00 %
20.07.2019 17:34 31,1 C 26,1 C 38,3 C 42 % 1012,0 hPa 0,0 l/m 4,9 km/h (1 Bft) N-NW 343 2 min 0,000 mm 1,5 UV-I 467 W/m 16,6 C 31,1 C 6,4 km/h (2 Bft) 95,74 %
20.07.2019 17:36 31,2 C 26,1 C 38,9 C 41 % 1011,9 hPa 0,0 l/m 5,4 km/h (1 Bft) N 11 2 min 0,000 mm 1,5 UV-I 505 W/m 16,4 C 31,2 C 11,3 km/h (2 Bft) 96,00 %
20.07.2019 17:38 31,2 C 26,1 C 38,9 C 40 % 1012,0 hPa 0,0 l/m 6,4 km/h (2 Bft) N 10 2 min 0,000 mm 1,5 UV-I 481 W/m 16,0 C 31,2 C 8,0 km/h (2 Bft) 100,00 %
20.07.2019 17:40 31,2 C 26,1 C 38,9 C 39 % 1011,9 hPa 0,0 l/m 4,4 km/h (1 Bft) N-NW 336 2 min 0,000 mm 1,5 UV-I 476 W/m 15,6 C 31,2 C 6,4 km/h (2 Bft) 98,00 %
20.07.2019 17:42 31,2 C 26,1 C 38,9 C 38 % 1012,0 hPa 0,0 l/m 3,4 km/h (1 Bft) NW 317 2 min 0,000 mm 1,4 UV-I 423 W/m 15,2 C 31,2 C 6,4 km/h (2 Bft) 98,00 %
20.07.2019 17:44 31,1 C 26,1 C 38,3 C 41 % 1011,9 hPa 0,0 l/m 3,6 km/h (1 Bft) W 278 2 min 0,000 mm 1,3 UV-I 355 W/m 16,3 C 31,1 C 6,4 km/h (2 Bft) 97,87 %
20.07.2019 17:46 31,0 C 26,1 C 38,3 C 42 % 1011,9 hPa 0,0 l/m 2,9 km/h (1 Bft) N 9 2 min 0,000 mm 1,3 UV-I 356 W/m 16,6 C 31,0 C 8,0 km/h (2 Bft) 97,87 %
20.07.2019 17:48 31,0 C 26,1 C 37,8 C 42 % 1011,9 hPa 0,0 l/m 7,5 km/h (2 Bft) NW 315 2 min 0,000 mm 1,3 UV-I 397 W/m 16,6 C 30,9 C 19,3 km/h (3 Bft) 97,87 %
20.07.2019 17:50 30,9 C 26,1 C 37,2 C 42 % 1011,9 hPa 0,0 l/m 11,3 km/h (2 Bft) N-NO 13 2 min 0,000 mm 1,3 UV-I 446 W/m 16,5 C 30,6 C 16,1 km/h (3 Bft) 93,62 %
20.07.2019 17:52 30,9 C 26,1 C 36,7 C 41 % 1011,9 hPa 0,0 l/m 11,4 km/h (2 Bft) N-NW 347 2 min 0,000 mm 1,3 UV-I 437 W/m 16,1 C 30,6 C 17,7 km/h (3 Bft) 97,87 %
20.07.2019 17:54 31,1 C 26,1 C 37,2 C 41 % 1011,9 hPa 0,0 l/m 10,1 km/h (2 Bft) NO 47 2 min 0,000 mm 1,2 UV-I 423 W/m 16,3 C 30,9 C 16,1 km/h (3 Bft) 97,87 %
20.07.2019 17:56 31,1 C 26,1 C 36,7 C 41 % 1012,0 hPa 0,0 l/m 12,3 km/h (3 Bft) N-NO 16 2 min 0,000 mm 1,2 UV-I 403 W/m 16,3 C 30,8 C 17,7 km/h (3 Bft) 97,87 %
20.07.2019 17:58 31,1 C 26,1 C 36,7 C 41 % 1011,9 hPa 0,0 l/m 10,9 km/h (2 Bft) N-NO 13 2 min 0,000 mm 1,1 UV-I 397 W/m 16,3 C 30,9 C 14,5 km/h (3 Bft) 97,87 %
20.07.2019 18:00 31,1 C 26,1 C 36,1 C 41 % 1011,9 hPa 0,0 l/m 11,7 km/h (2 Bft) N-NO 26 2 min 0,000 mm 1,0 UV-I 372 W/m 16,3 C 30,8 C 17,7 km/h (3 Bft) 97,87 %
20.07.2019 18:02 30,9 C 26,1 C 35,6 C 42 % 1011,9 hPa 0,0 l/m 10,5 km/h (2 Bft) N-NO 32 2 min 0,355 mm 0,8 UV-I 368 W/m 16,5 C 30,7 C 16,1 km/h (3 Bft) 97,14 %
20.07.2019 18:04 30,9 C 26,1 C 35,6 C 41 % 1011,9 hPa 0,0 l/m 8,7 km/h (2 Bft) N-NO 24 2 min 0,000 mm 0,8 UV-I 365 W/m 16,1 C 30,8 C 12,9 km/h (3 Bft) 98,31 %
20.07.2019 18:06 30,9 C 26,1 C 35,6 C 42 % 1011,9 hPa 0,0 l/m 11,8 km/h (2 Bft) NO 51 2 min 0,000 mm 1,0 UV-I 366 W/m 16,5 C 30,6 C 17,7 km/h (3 Bft) 94,29 %
20.07.2019 18:08 30,8 C 26,1 C 35,6 C 42 % 1011,8 hPa 0,0 l/m 12,5 km/h (3 Bft) O-NO 76 2 min 0,000 mm 1,0 UV-I 356 W/m 16,4 C 30,4 C 16,1 km/h (3 Bft) 97,87 %
20.07.2019 18:10 30,7 C 26,1 C 35,6 C 41 % 1011,9 hPa 0,0 l/m 9,5 km/h (2 Bft) O-NO 72 2 min 0,000 mm 0,9 UV-I 351 W/m 15,9 C 30,5 C 17,7 km/h (3 Bft) 95,74 %
20.07.2019 18:12 30,7 C 26,1 C 36,7 C 42 % 1011,9 hPa 0,0 l/m 5,7 km/h (1 Bft) NO 51 2 min 0,000 mm 0,9 UV-I 344 W/m 16,3 C 30,7 C 8,0 km/h (2 Bft) 95,74 %
20.07.2019 18:14 30,7 C 26,1 C 36,7 C 41 % 1011,8 hPa 0,0 l/m 9,9 km/h (2 Bft) NO 41 2 min 0,000 mm 0,9 UV-I 337 W/m 15,9 C 30,5 C 16,1 km/h (3 Bft) 98,00 %
20.07.2019 18:16 30,7 C 26,1 C 36,1 C 42 % 1011,8 hPa 0,0 l/m 11,4 km/h (2 Bft) NO 47 2 min 0,000 mm 0,9 UV-I 332 W/m 16,3 C 30,4 C 17,7 km/h (3 Bft) 97,92 %
20.07.2019 18:18 30,6 C 26,1 C 36,1 C 41 % 1011,8 hPa 0,0 l/m 10,3 km/h (2 Bft) NO 53 2 min 0,000 mm 0,8 UV-I 328 W/m 15,8 C 30,3 C 14,5 km/h (3 Bft) 100,00 %
20.07.2019 18:20 30,6 C 26,1 C 35,6 C 42 % 1011,8 hPa 0,0 l/m 9,3 km/h (2 Bft) NO 51 2 min 0,000 mm 0,8 UV-I 323 W/m 16,2 C 30,4 C 12,9 km/h (3 Bft) 96,15 %
20.07.2019 18:22 30,6 C 26,1 C 36,1 C 41 % 1011,9 hPa 0,0 l/m 7,7 km/h (2 Bft) O-NO 70 2 min 0,000 mm 0,8 UV-I 320 W/m 15,8 C 30,5 C 11,3 km/h (2 Bft) 100,00 %
20.07.2019 18:24 30,4 C 26,1 C 36,1 C 42 % 1011,8 hPa 0,0 l/m 5,1 km/h (1 Bft) O-NO 68 2 min 0,000 mm 0,8 UV-I 314 W/m 16,0 C 30,4 C 6,4 km/h (2 Bft) 100,00 %
20.07.2019 18:26 30,5 C 26,1 C 36,7 C 41 % 1011,9 hPa 0,0 l/m 6,7 km/h (2 Bft) NO 46 2 min 0,000 mm 0,8 UV-I 308 W/m 15,7 C 30,5 C 9,7 km/h (2 Bft) 100,00 %
20.07.2019 18:28 30,6 C 26,1 C 36,1 C 41 % 1011,9 hPa 0,0 l/m 8,0 km/h (2 Bft) N-NO 22 2 min 0,000 mm 0,7 UV-I 298 W/m 15,8 C 30,5 C 12,9 km/h (3 Bft) 100,00 %
20.07.2019 18:30 30,6 C 26,1 C 35,0 C 40 % 1011,9 hPa 0,0 l/m 7,6 km/h (2 Bft) O-NO 65 2 min 0,000 mm 0,7 UV-I 292 W/m 15,4 C 30,5 C 9,7 km/h (2 Bft) 100,00 %
20.07.2019 18:32 30,5 C 26,1 C 35,6 C 41 % 1011,9 hPa 0,0 l/m 6,5 km/h (2 Bft) O-NO 63 2 min 0,000 mm 0,7 UV-I 282 W/m 15,7 C 30,5 C 9,7 km/h (2 Bft) 100,00 %
20.07.2019 18:34 30,4 C 26,1 C 34,4 C 41 % 1011,9 hPa 0,0 l/m 8,6 km/h (2 Bft) O-NO 72 2 min 0,000 mm 0,6 UV-I 259 W/m 15,6 C 30,2 C 12,9 km/h (3 Bft) 100,00 %
20.07.2019 18:36 30,3 C 26,1 C 34,4 C 41 % 1011,9 hPa 0,0 l/m 8,0 km/h (2 Bft) O 86 2 min 0,000 mm 0,6 UV-I 218 W/m 15,6 C 30,2 C 12,9 km/h (3 Bft) 100,00 %
20.07.2019 18:38 30,2 C 26,1 C 33,9 C 42 % 1011,9 hPa 0,0 l/m 7,2 km/h (2 Bft) NO 43 0 min 0,000 mm 0,5 UV-I 151 W/m 15,8 C 30,1 C 11,3 km/h (2 Bft) 100,00 %
20.07.2019 18:40 30,0 C 26,1 C 32,8 C 41 % 1012,0 hPa 0,0 l/m 5,9 km/h (2 Bft) NO 42 0 min 0,000 mm 0,5 UV-I 141 W/m 15,3 C 30,0 C 9,7 km/h (2 Bft) 98,00 %
20.07.2019 18:42 29,9 C 26,1 C 32,8 C 42 % 1012,0 hPa 0,0 l/m 6,5 km/h (2 Bft) NO 35 0 min 0,000 mm 0,5 UV-I 133 W/m 15,6 C 29,9 C 11,3 km/h (2 Bft) 100,00 %
20.07.2019 18:44 29,7 C 26,1 C 31,7 C 42 % 1012,0 hPa 0,0 l/m 6,3 km/h (2 Bft) NO 43 0 min 0,000 mm 0,4 UV-I 126 W/m 15,4 C 29,7 C 9,7 km/h (2 Bft) 95,74 %
20.07.2019 18:46 29,6 C 26,1 C 31,1 C 42 % 1012,0 hPa 0,0 l/m 4,9 km/h (1 Bft) NO 43 0 min 0,000 mm 0,0 UV-I 119 W/m 15,3 C 29,6 C 6,4 km/h (2 Bft) 95,74 %
20.07.2019 18:48 29,6 C 26,1 C 31,1 C 42 % 1012,1 hPa 0,0 l/m 5,0 km/h (1 Bft) NO 34 0 min 0,000 mm 0,0 UV-I 170 W/m 15,3 C 29,6 C 6,4 km/h (2 Bft) 97,87 %
20.07.2019 18:50 29,7 C 26,1 C 31,1 C 42 % 1012,1 hPa 0,0 l/m 4,1 km/h (1 Bft) N-NO 31 0 min 0,000 mm 0,0 UV-I 140 W/m 15,4 C 29,7 C 6,4 km/h (2 Bft) 97,87 %
20.07.2019 18:52 29,7 C 26,1 C 30,6 C 43 % 1012,2 hPa 0,0 l/m 3,8 km/h (1 Bft) N-NO 31 0 min 0,000 mm 0,0 UV-I 127 W/m 15,8 C 29,7 C 6,4 km/h (2 Bft) 97,87 %
20.07.2019 18:54 29,7 C 26,1 C 31,1 C 42 % 1012,2 hPa 0,0 l/m 4,8 km/h (1 Bft) N-NO 18 0 min 0,000 mm 0,0 UV-I 162 W/m 15,4 C 29,7 C 6,4 km/h (2 Bft) 95,74 %
20.07.2019 18:56 29,7 C 26,1 C 31,7 C 43 % 1012,2 hPa 0,0 l/m 3,8 km/h (1 Bft) N-NO 21 2 min 0,000 mm 0,0 UV-I 180 W/m 15,8 C 29,7 C 4,8 km/h (1 Bft) 97,87 %
20.07.2019 18:58 29,7 C 26,1 C 31,7 C 43 % 1012,2 hPa 0,0 l/m 3,7 km/h (1 Bft) N-NO 23 2 min 0,000 mm 0,0 UV-I 164 W/m 15,8 C 29,7 C 4,8 km/h (1 Bft) 97,22 %
20.07.2019 19:00 29,7 C 26,1 C 32,8 C 43 % 1012,3 hPa 0,0 l/m 3,0 km/h (1 Bft) N-NO 23 2 min 0,000 mm 0,0 UV-I 223 W/m 15,8 C 29,7 C 4,8 km/h (1 Bft) 98,08 %
20.07.2019 19:02 29,8 C 26,1 C 33,9 C 43 % 1012,3 hPa 0,0 l/m 3,5 km/h (1 Bft) N-NO 24 2 min 0,254 mm 0,0 UV-I 251 W/m 15,8 C 29,8 C 4,8 km/h (1 Bft) 95,74 %
20.07.2019 19:04 29,9 C 26,1 C 34,4 C 42 % 1012,2 hPa 0,0 l/m 5,3 km/h (1 Bft) N-NO 21 2 min 0,000 mm 0,0 UV-I 255 W/m 15,6 C 29,9 C 6,4 km/h (2 Bft) 95,74 %
20.07.2019 19:06 30,1 C 26,1 C 35,0 C 41 % 1012,3 hPa 0,0 l/m 4,5 km/h (1 Bft) NO 43 2 min 0,000 mm 0,0 UV-I 251 W/m 15,4 C 30,1 C 6,4 km/h (2 Bft) 97,87 %
20.07.2019 19:08 30,1 C 26,1 C 35,0 C 42 % 1012,2 hPa 0,0 l/m 6,2 km/h (2 Bft) NO 37 2 min 0,000 mm 0,0 UV-I 239 W/m 15,7 C 30,1 C 8,0 km/h (2 Bft) 98,00 %
20.07.2019 19:10 30,1 C 26,1 C 34,4 C 41 % 1012,3 hPa 0,0 l/m 5,6 km/h (1 Bft) NO 42 2 min 0,000 mm 0,0 UV-I 236 W/m 15,4 C 30,1 C 8,0 km/h (2 Bft) 97,56 %
20.07.2019 19:12 30,1 C 26,1 C 34,4 C 43 % 1012,2 hPa 0,0 l/m 5,7 km/h (1 Bft) NO 42 2 min 0,000 mm 0,0 UV-I 229 W/m 16,1 C 30,1 C 8,0 km/h (2 Bft) 100,00 %
20.07.2019 19:14 30,0 C 26,1 C 34,4 C 44 % 1012,2 hPa 0,0 l/m 6,5 km/h (2 Bft) NO 42 2 min 0,000 mm 0,0 UV-I 218 W/m 16,4 C 30,0 C 8,0 km/h (2 Bft) 100,00 %
20.07.2019 19:16 29,9 C 26,1 C 33,9 C 43 % 1012,2 hPa 0,0 l/m 5,5 km/h (1 Bft) NO 42 2 min 0,000 mm 0,0 UV-I 208 W/m 15,9 C 29,9 C 8,0 km/h (2 Bft) 97,87 %
20.07.2019 19:18 29,9 C 26,1 C 33,9 C 42 % 1012,2 hPa 0,0 l/m 4,9 km/h (1 Bft) NO 36 2 min 0,000 mm 0,0 UV-I 198 W/m 15,6 C 29,9 C 6,4 km/h (2 Bft) 100,00 %
20.07.2019 19:20 29,9 C 26,1 C 33,9 C 42 % 1012,2 hPa 0,0 l/m 5,8 km/h (2 Bft) NO 40 2 min 0,000 mm 0,0 UV-I 188 W/m 15,6 C 29,9 C 8,0 km/h (2 Bft) 97,37 %
20.07.2019 19:22 29,9 C 26,1 C 33,3 C 41 % 1012,2 hPa 0,0 l/m 5,2 km/h (1 Bft) NO 42 2 min 0,000 mm 0,0 UV-I 179 W/m 15,2 C 29,9 C 6,4 km/h (2 Bft) 100,00 %
20.07.2019 19:24 29,9 C 26,1 C 32,8 C 41 % 1012,2 hPa 0,0 l/m 5,2 km/h (1 Bft) NO 42 2 min 0,000 mm 0,0 UV-I 170 W/m 15,2 C 29,9 C 8,0 km/h (2 Bft) 100,00 %
20.07.2019 19:26 29,8 C 26,1 C 32,8 C 41 % 1012,2 hPa 0,0 l/m 6,6 km/h (2 Bft) NO 39 2 min 0,000 mm 0,0 UV-I 161 W/m 15,1 C 29,8 C 8,0 km/h (2 Bft) 100,00 %
20.07.2019 19:28 29,8 C 26,1 C 32,8 C 42 % 1012,2 hPa 0,0 l/m 5,9 km/h (2 Bft) NO 44 2 min 0,000 mm 0,0 UV-I 151 W/m 15,5 C 29,8 C 8,0 km/h (2 Bft) 100,00 %
20.07.2019 19:30 29,6 C 26,1 C 32,2 C 42 % 1012,2 hPa 0,0 l/m 5,6 km/h (1 Bft) NO 46 2 min 0,000 mm 0,0 UV-I 129 W/m 15,3 C 29,6 C 8,0 km/h (2 Bft) 100,00 %
20.07.2019 19:32 29,4 C 26,1 C 31,1 C 43 % 1012,2 hPa 0,0 l/m 5,1 km/h (1 Bft) NO 46 2 min 0,000 mm 0,0 UV-I 115 W/m 15,5 C 29,4 C 6,4 km/h (2 Bft) 100,00 %
20.07.2019 19:34 29,3 C 26,1 C 31,1 C 44 % 1012,3 hPa 0,0 l/m 5,1 km/h (1 Bft) O-NO 64 2 min 0,000 mm 0,0 UV-I 116 W/m 15,8 C 29,3 C 6,4 km/h (2 Bft) 100,00 %
20.07.2019 19:36 29,2 C 26,1 C 31,1 C 44 % 1012,3 hPa 0,0 l/m 4,8 km/h (1 Bft) O-NO 62 2 min 0,000 mm 0,0 UV-I 114 W/m 15,7 C 29,2 C 6,4 km/h (2 Bft) 100,00 %
20.07.2019 19:38 29,1 C 26,1 C 31,1 C 44 % 1012,3 hPa 0,0 l/m 5,0 km/h (1 Bft) O-NO 64 2 min 0,000 mm 0,0 UV-I 104 W/m 15,6 C 29,1 C 6,4 km/h (2 Bft) 94,34 %
20.07.2019 19:40 29,0 C 26,1 C 31,1 C 46 % 1012,3 hPa 0,0 l/m 4,3 km/h (1 Bft) O-NO 66 2 min 0,000 mm 0,0 UV-I 102 W/m 16,2 C 29,0 C 4,8 km/h (1 Bft) 97,37 %
20.07.2019 19:42 28,9 C 26,1 C 31,1 C 48 % 1012,2 hPa 0,0 l/m 3,7 km/h (1 Bft) O-NO 78 2 min 0,000 mm 0,0 UV-I 101 W/m 16,8 C 28,9 C 4,8 km/h (1 Bft) 97,87 %
20.07.2019 19:44 28,9 C 26,1 C 31,1 C 48 % 1012,2 hPa 0,0 l/m 4,3 km/h (1 Bft) O 97 0 min 0,000 mm 0,0 UV-I 90 W/m 16,8 C 28,9 C 6,4 km/h (2 Bft) 98,00 %
20.07.2019 19:46 28,9 C 26,1 C 31,1 C 47 % 1012,2 hPa 0,0 l/m 4,4 km/h (1 Bft) O 101 0 min 0,000 mm 0,0 UV-I 87 W/m 16,4 C 28,9 C 6,4 km/h (2 Bft) 95,74 %
20.07.2019 19:48 28,8 C 26,1 C 30,6 C 47 % 1012,2 hPa 0,0 l/m 4,2 km/h (1 Bft) O 100 0 min 0,000 mm 0,0 UV-I 78 W/m 16,3 C 28,8 C 6,4 km/h (2 Bft) 93,62 %
20.07.2019 19:50 28,8 C 26,1 C 30,0 C 47 % 1012,2 hPa 0,0 l/m 3,4 km/h (1 Bft) O 100 0 min 0,000 mm 0,0 UV-I 70 W/m 16,3 C 28,8 C 4,8 km/h (1 Bft) 97,87 %
20.07.2019 19:52 28,7 C 26,1 C 29,4 C 47 % 1012,2 hPa 0,0 l/m 3,8 km/h (1 Bft) O 99 0 min 0,000 mm 0,0 UV-I 59 W/m 16,3 C 28,7 C 4,8 km/h (1 Bft) 92,00 %
20.07.2019 19:54 28,6 C 26,1 C 28,9 C 48 % 1012,3 hPa 0,0 l/m 3,4 km/h (1 Bft) O 99 0 min 0,000 mm 0,0 UV-I 50 W/m 16,5 C 28,6 C 4,8 km/h (1 Bft) 94,00 %
20.07.2019 19:56 28,4 C 26,1 C 27,8 C 47 % 1012,2 hPa 0,0 l/m 3,1 km/h (1 Bft) O 99 0 min 0,000 mm 0,0 UV-I 41 W/m 16,0 C 28,4 C 4,8 km/h (1 Bft) 95,74 %
20.07.2019 19:58 28,2 C 26,1 C 27,2 C 48 % 1012,2 hPa 0,0 l/m 2,8 km/h (1 Bft) O 99 0 min 0,000 mm 0,0 UV-I 36 W/m 16,1 C 28,2 C 4,8 km/h (1 Bft) 92,11 %
20.07.2019 20:00 28,1 C 26,1 C 26,7 C 47 % 1012,3 hPa 0,0 l/m 2,7 km/h (1 Bft) O 99 0 min 0,000 mm 0,0 UV-I 32 W/m 15,7 C 28,1 C 4,8 km/h (1 Bft) 93,62 %
20.07.2019 20:02 28,1 C 26,1 C 26,1 C 47 % 1012,3 hPa 0,0 l/m 1,9 km/h (1 Bft) O 99 0 min 0,153 mm 0,0 UV-I 29 W/m 15,7 C 28,1 C 4,8 km/h (1 Bft) 93,62 %
20.07.2019 20:04 27,9 C 26,1 C 25,6 C 48 % 1012,3 hPa 0,0 l/m 2,3 km/h (1 Bft) O 99 0 min 0,000 mm 0,0 UV-I 27 W/m 15,9 C 27,9 C 4,8 km/h (1 Bft) 93,62 %
20.07.2019 20:06 27,6 C 26,1 C 25,0 C 50 % 1012,3 hPa 0,0 l/m 4,1 km/h (1 Bft) O-SO 105 0 min 0,000 mm 0,0 UV-I 26 W/m 16,2 C 27,6 C 6,4 km/h (2 Bft) 95,83 %
20.07.2019 20:08 27,5 C 26,1 C 25,0 C 48 % 1012,2 hPa 0,0 l/m 3,9 km/h (1 Bft) O-SO 105 0 min 0,000 mm 0,0 UV-I 24 W/m 15,5 C 27,5 C 6,4 km/h (2 Bft) 95,74 %
20.07.2019 20:10 27,5 C 26,1 C 24,4 C 49 % 1012,3 hPa 0,0 l/m 3,0 km/h (1 Bft) O-SO 105 0 min 0,000 mm 0,0 UV-I 23 W/m 15,8 C 27,5 C 4,8 km/h (1 Bft) 95,74 %
20.07.2019 20:12 27,4 C 26,1 C 24,4 C 48 % 1012,3 hPa 0,0 l/m 2,8 km/h (1 Bft) O-SO 105 0 min 0,000 mm 0,0 UV-I 21 W/m 15,4 C 27,4 C 3,2 km/h (1 Bft) 97,87 %
20.07.2019 20:14 27,4 C 26,1 C 23,9 C 48 % 1012,2 hPa 0,0 l/m 2,0 km/h (1 Bft) O-SO 105 0 min 0,000 mm 0,0 UV-I 21 W/m 15,4 C 27,4 C 3,2 km/h (1 Bft) 95,74 %
20.07.2019 20:16 27,4 C 26,1 C 23,9 C 48 % 1012,2 hPa 0,0 l/m 2,9 km/h (1 Bft) O-SO 105 0 min 0,000 mm 0,0 UV-I 21 W/m 15,4 C 27,4 C 4,8 km/h (1 Bft) 95,74 %
20.07.2019 20:18 27,2 C 26,1 C 23,3 C 49 % 1012,2 hPa 0,0 l/m 3,2 km/h (1 Bft) O-SO 105 0 min 0,000 mm 0,0 UV-I 20 W/m 15,5 C 27,2 C 4,8 km/h (1 Bft) 93,62 %
20.07.2019 20:20 27,1 C 26,1 C 23,3 C 50 % 1012,3 hPa 0,0 l/m 3,1 km/h (1 Bft) O-SO 105 0 min 0,000 mm 0,0 UV-I 19 W/m 15,8 C 27,1 C 4,8 km/h (1 Bft) 97,87 %
20.07.2019 20:22 26,8 C 26,1 C 23,3 C 51 % 1012,3 hPa 0,0 l/m 3,3 km/h (1 Bft) O-SO 109 0 min 0,000 mm 0,0 UV-I 19 W/m 15,8 C 26,8 C 4,8 km/h (1 Bft) 95,74 %
20.07.2019 20:24 26,4 C 26,1 C 23,3 C 53 % 1012,3 hPa 0,0 l/m 3,1 km/h (1 Bft) O-SO 109 0 min 0,000 mm 0,0 UV-I 18 W/m 16,0 C 26,4 C 4,8 km/h (1 Bft) 93,62 %
20.07.2019 20:26 26,2 C 26,1 C 22,8 C 55 % 1012,3 hPa 0,0 l/m 2,6 km/h (1 Bft) O-SO 109 0 min 0,000 mm 0,0 UV-I 17 W/m 16,4 C 26,2 C 4,8 km/h (1 Bft) 93,62 %
20.07.2019 20:28 25,8 C 26,1 C 22,8 C 56 % 1012,4 hPa 0,0 l/m 2,8 km/h (1 Bft) O-SO 109 0 min 0,000 mm 0,0 UV-I 16 W/m 16,3 C 25,8 C 4,8 km/h (1 Bft) 93,62 %
20.07.2019 20:30 25,6 C 26,1 C 22,8 C 56 % 1012,3 hPa 0,0 l/m 3,7 km/h (1 Bft) O-SO 109 0 min 0,000 mm 0,0 UV-I 15 W/m 16,2 C 25,6 C 4,8 km/h (1 Bft) 95,74 %
20.07.2019 20:32 25,6 C 26,1 C 22,2 C 55 % 1012,3 hPa 0,0 l/m 3,7 km/h (1 Bft) O-SO 108 0 min 0,000 mm 0,0 UV-I 14 W/m 15,9 C 25,6 C 6,4 km/h (2 Bft) 95,74 %
20.07.2019 20:34 25,8 C 26,1 C 22,2 C 53 % 1012,3 hPa 0,0 l/m 3,4 km/h (1 Bft) O-SO 108 0 min 0,000 mm 0,0 UV-I 12 W/m 15,5 C 25,8 C 4,8 km/h (1 Bft) 95,74 %
20.07.2019 20:36 26,1 C 26,1 C 22,2 C 50 % 1012,2 hPa 0,0 l/m 3,6 km/h (1 Bft) O-SO 108 0 min 0,000 mm 0,0 UV-I 12 W/m 14,8 C 26,1 C 4,8 km/h (1 Bft) 96,00 %
20.07.2019 20:38 26,3 C 26,1 C 22,2 C 51 % 1012,3 hPa 0,0 l/m 2,9 km/h (1 Bft) O-SO 108 0 min 0,000 mm 0,0 UV-I 11 W/m 15,3 C 26,3 C 4,8 km/h (1 Bft) 94,29 %
20.07.2019 20:40 26,4 C 26,1 C 22,2 C 51 % 1012,4 hPa 0,0 l/m 0,9 km/h (0 Bft) O-SO 108 0 min 0,000 mm 0,0 UV-I 11 W/m 15,4 C 26,4 C 1,6 km/h (1 Bft) 94,87 %
20.07.2019 20:42 26,3 C 26,1 C 22,2 C 53 % 1012,4 hPa 0,0 l/m 0,0 km/h (0 Bft) O-SO 108 0 min 0,000 mm 0,0 UV-I 9 W/m 15,9 C 26,3 C 1,6 km/h (1 Bft) 93,75 %
20.07.2019 20:44 26,2 C 26,1 C 21,7 C 55 % 1012,5 hPa 0,0 l/m 0,0 km/h (0 Bft) O-SO 108 0 min 0,000 mm 0,0 UV-I 9 W/m 16,4 C 26,2 C 0,0 km/h (0 Bft) 91,49 %
20.07.2019 20:46 25,8 C 26,1 C 21,7 C 56 % 1012,5 hPa 0,0 l/m 0,4 km/h (0 Bft) O-SO 108 0 min 0,000 mm 0,0 UV-I 8 W/m 16,3 C 25,8 C 1,6 km/h (1 Bft) 95,74 %
20.07.2019 20:48 25,3 C 26,1 C 22,2 C 58 % 1012,6 hPa 0,0 l/m 0,8 km/h (0 Bft) O-SO 108 0 min 0,000 mm 0,0 UV-I 7 W/m 16,4 C 25,3 C 1,6 km/h (1 Bft) 95,74 %
20.07.2019 20:50 24,9 C 26,1 C 21,7 C 59 % 1012,5 hPa 0,0 l/m 2,1 km/h (1 Bft) O-SO 108 0 min 0,000 mm 0,0 UV-I 7 W/m 16,3 C 24,9 C 3,2 km/h (1 Bft) 97,92 %
20.07.2019 20:52 24,6 C 26,1 C 21,7 C 59 % 1012,6 hPa 0,0 l/m 2,6 km/h (1 Bft) O-SO 108 0 min 0,000 mm 0,0 UV-I 7 W/m 16,0 C 24,6 C 3,2 km/h (1 Bft) 97,37 %
20.07.2019 20:54 24,5 C 26,1 C 21,7 C 60 % 1012,6 hPa 0,0 l/m 2,2 km/h (1 Bft) O-SO 108 0 min 0,000 mm 0,0 UV-I 6 W/m 16,2 C 24,5 C 3,2 km/h (1 Bft) 100,00 %
20.07.2019 20:56 24,5 C 26,1 C 21,7 C 60 % 1012,6 hPa 0,0 l/m 2,2 km/h (1 Bft) O-SO 108 0 min 0,000 mm 0,0 UV-I 5 W/m 16,2 C 24,5 C 3,2 km/h (1 Bft) 98,00 %
20.07.2019 20:58 24,7 C 26,1 C 21,1 C 59 % 1012,7 hPa 0,0 l/m 0,7 km/h (0 Bft) O-SO 108 0 min 0,000 mm 0,0 UV-I 5 W/m 16,1 C 24,7 C 1,6 km/h (1 Bft) 100,00 %
20.07.2019 21:00 24,7 C 26,1 C 21,1 C 59 % 1012,8 hPa 0,0 l/m 1,1 km/h (1 Bft) O-SO 108 0 min 0,051 mm 0,0 UV-I 5 W/m 16,1 C 24,7 C 1,6 km/h (1 Bft) 100,00 %
20.07.2019 21:02 24,7 C 26,1 C 21,1 C 59 % 1012,8 hPa 0,0 l/m 1,3 km/h (1 Bft) O-SO 108 0 min 0,000 mm 0,0 UV-I 5 W/m 16,1 C 24,7 C 1,6 km/h (1 Bft) 100,00 %
20.07.2019 21:04 24,7 C 26,1 C 21,7 C 60 % 1012,9 hPa 0,0 l/m 1,9 km/h (1 Bft) O-SO 108 0 min 0,000 mm 0,0 UV-I 4 W/m 16,4 C 24,7 C 3,2 km/h (1 Bft) 100,00 %
20.07.2019 21:06 24,6 C 26,1 C 21,7 C 63 % 1012,9 hPa 0,0 l/m 1,8 km/h (1 Bft) O-SO 108 0 min 0,000 mm 0,0 UV-I 0 W/m 17,1 C 24,6 C 3,2 km/h (1 Bft) 100,00 %
20.07.2019 21:08 24,3 C 26,1 C 21,7 C 64 % 1012,9 hPa 0,0 l/m 2,0 km/h (1 Bft) O-SO 108 0 min 0,000 mm 0,0 UV-I 0 W/m 17,0 C 24,3 C 3,2 km/h (1 Bft) 97,87 %
20.07.2019 21:10 23,8 C 26,1 C 21,7 C 64 % 1012,9 hPa 0,0 l/m 3,1 km/h (1 Bft) O-SO 109 0 min 0,000 mm 0,0 UV-I 0 W/m 16,6 C 23,8 C 4,8 km/h (1 Bft) 100,00 %
20.07.2019 21:12 23,7 C 26,1 C 21,7 C 65 % 1013,0 hPa 0,0 l/m 3,7 km/h (1 Bft) O-SO 120 0 min 0,000 mm 0,0 UV-I 0 W/m 16,7 C 23,7 C 6,4 km/h (2 Bft) 97,87 %
20.07.2019 21:14 23,7 C 26,1 C 21,7 C 64 % 1013,0 hPa 0,0 l/m 3,8 km/h (1 Bft) O-SO 121 0 min 0,000 mm 0,0 UV-I 0 W/m 16,5 C 23,7 C 4,8 km/h (1 Bft) 100,00 %
20.07.2019 21:16 23,8 C 26,1 C 21,1 C 64 % 1013,0 hPa 0,0 l/m 3,4 km/h (1 Bft) SO 143 0 min 0,000 mm 0,0 UV-I 0 W/m 16,6 C 23,8 C 6,4 km/h (2 Bft) 100,00 %
20.07.2019 21:18 23,9 C 25,6 C 21,7 C 62 % 1013,0 hPa 0,0 l/m 2,9 km/h (1 Bft) SO 143 0 min 0,000 mm 0,0 UV-I 0 W/m 16,2 C 23,9 C 4,8 km/h (1 Bft) 100,00 %
20.07.2019 21:20 24,1 C 25,6 C 21,7 C 63 % 1013,1 hPa 0,0 l/m 3,7 km/h (1 Bft) SO 143 0 min 0,000 mm 0,0 UV-I 0 W/m 16,6 C 24,1 C 6,4 km/h (2 Bft) 97,87 %
20.07.2019 21:22 24,2 C 25,6 C 21,7 C 62 % 1013,1 hPa 0,0 l/m 3,6 km/h (1 Bft) SO 145 0 min 0,000 mm 0,0 UV-I 0 W/m 16,4 C 24,2 C 6,4 km/h (2 Bft) 100,00 %
20.07.2019 21:24 24,3 C 25,6 C 22,2 C 62 % 1013,0 hPa 0,0 l/m 3,4 km/h (1 Bft) SO 145 0 min 0,000 mm 0,0 UV-I 0 W/m 16,5 C 24,3 C 4,8 km/h (1 Bft) 100,00 %
20.07.2019 21:26 24,2 C 25,6 C 22,2 C 63 % 1013,1 hPa 0,0 l/m 4,0 km/h (1 Bft) SO 146 0 min 0,000 mm 0,0 UV-I 0 W/m 16,7 C 24,2 C 6,4 km/h (2 Bft) 100,00 %
20.07.2019 21:28 24,1 C 25,6 C 22,2 C 63 % 1013,1 hPa 0,0 l/m 4,5 km/h (1 Bft) SO 146 0 min 0,000 mm 0,0 UV-I 0 W/m 16,6 C 24,1 C 6,4 km/h (2 Bft) 97,87 %
20.07.2019 21:30 24,2 C 25,6 C 22,2 C 63 % 1013,1 hPa 0,0 l/m 3,5 km/h (1 Bft) SO 146 0 min 0,000 mm 0,0 UV-I 0 W/m 16,7 C 24,2 C 4,8 km/h (1 Bft) 100,00 %
20.07.2019 21:32 24,3 C 25,6 C 22,2 C 63 % 1013,1 hPa 0,0 l/m 3,9 km/h (1 Bft) SO 142 0 min 0,000 mm 0,0 UV-I 0 W/m 16,8 C 24,3 C 6,4 km/h (2 Bft) 97,14 %
20.07.2019 21:34 24,3 C 25,6 C 22,2 C 62 % 1013,1 hPa 0,0 l/m 3,5 km/h (1 Bft) SO 142 0 min 0,000 mm 0,0 UV-I 0 W/m 16,5 C 24,3 C 4,8 km/h (1 Bft) 98,00 %
20.07.2019 21:36 24,2 C 25,6 C 22,2 C 62 % 1013,1 hPa 0,0 l/m 3,3 km/h (1 Bft) SO 141 0 min 0,000 mm 0,0 UV-I 0 W/m 16,4 C 24,2 C 4,8 km/h (1 Bft) 97,87 %
20.07.2019 21:38 24,3 C 25,6 C 22,2 C 61 % 1013,1 hPa 0,0 l/m 4,1 km/h (1 Bft) SO 144 0 min 0,000 mm 0,0 UV-I 0 W/m 16,3 C 24,3 C 6,4 km/h (2 Bft) 96,00 %
20.07.2019 21:40 24,4 C 25,6 C 22,2 C 61 % 1013,1 hPa 0,0 l/m 3,4 km/h (1 Bft) SO 144 0 min 0,000 mm 0,0 UV-I 0 W/m 16,4 C 24,4 C 6,4 km/h (2 Bft) 97,87 %
20.07.2019 21:42 24,6 C 25,6 C 22,8 C 60 % 1013,1 hPa 0,0 l/m 4,0 km/h (1 Bft) SO 138 0 min 0,000 mm 0,0 UV-I 0 W/m 16,3 C 24,6 C 8,0 km/h (2 Bft) 93,62 %
20.07.2019 21:44 24,8 C 25,6 C 22,8 C 60 % 1013,1 hPa 0,0 l/m 3,9 km/h (1 Bft) SO 142 0 min 0,000 mm 0,0 UV-I 0 W/m 16,5 C 24,8 C 6,4 km/h (2 Bft) 98,00 %
20.07.2019 21:46 24,7 C 25,6 C 22,8 C 62 % 1013,1 hPa 0,0 l/m 3,0 km/h (1 Bft) SO 142 0 min 0,000 mm 0,0 UV-I 0 W/m 16,9 C 24,7 C 4,8 km/h (1 Bft) 98,00 %
20.07.2019 21:49 24,6 C 25,6 C 22,8 C 64 % 1013,1 hPa 0,0 l/m 2,6 km/h (1 Bft) SO 142 0 min 0,000 mm 0,0 UV-I 0 W/m 17,3 C 24,6 C 4,8 km/h (1 Bft) 95,77 %
20.07.2019 21:50 24,4 C 25,6 C 22,8 C 64 % 1013,1 hPa 0,0 l/m 2,3 km/h (1 Bft) SO 142 0 min 0,000 mm 0,0 UV-I 0 W/m 17,1 C 24,4 C 3,2 km/h (1 Bft) 100,00 %
20.07.2019 21:52 24,3 C 25,6 C 22,8 C 65 % 1013,1 hPa 0,0 l/m 2,5 km/h (1 Bft) SO 143 0 min 0,000 mm 0,0 UV-I 0 W/m 17,3 C 24,3 C 4,8 km/h (1 Bft) 97,87 %
20.07.2019 21:54 24,2 C 25,6 C 22,8 C 65 % 1013,1 hPa 0,0 l/m 2,2 km/h (1 Bft) SO 143 0 min 0,000 mm 0,0 UV-I 0 W/m 17,2 C 24,2 C 3,2 km/h (1 Bft) 97,87 %
20.07.2019 21:56 24,2 C 25,6 C 22,8 C 63 % 1013,2 hPa 0,0 l/m 2,2 km/h (1 Bft) SO 143 0 min 0,000 mm 0,0 UV-I 0 W/m 16,7 C 24,2 C 3,2 km/h (1 Bft) 94,00 %
20.07.2019 21:59 24,1 C 25,6 C 22,8 C 63 % 1013,3 hPa 0,0 l/m 2,4 km/h (1 Bft) SO 143 0 min 0,000 mm 0,0 UV-I 0 W/m 16,6 C 24,1 C 3,2 km/h (1 Bft) 97,18 %
20.07.2019 22:00 24,0 C 25,6 C 22,8 C 63 % 1013,3 hPa 0,0 l/m 2,7 km/h (1 Bft) SO 143 0 min 0,000 mm 0,0 UV-I 0 W/m 16,5 C 24,0 C 3,2 km/h (1 Bft) 91,67 %
20.07.2019 22:02 23,8 C 25,6 C 22,8 C 64 % 1013,3 hPa 0,0 l/m 2,6 km/h (1 Bft) SO 143 0 min 0,025 mm 0,0 UV-I 0 W/m 16,6 C 23,8 C 4,8 km/h (1 Bft) 93,62 %
20.07.2019 22:04 23,8 C 25,6 C 22,8 C 65 % 1013,3 hPa 0,0 l/m 1,9 km/h (1 Bft) SO 143 0 min 0,000 mm 0,0 UV-I 0 W/m 16,8 C 23,8 C 3,2 km/h (1 Bft) 97,87 %
20.07.2019 22:06 23,8 C 25,6 C 22,8 C 65 % 1013,3 hPa 0,0 l/m 3,6 km/h (1 Bft) SO 143 0 min 0,000 mm 0,0 UV-I 0 W/m 16,8 C 23,8 C 4,8 km/h (1 Bft) 93,88 %
20.07.2019 22:08 23,8 C 25,6 C 22,2 C 64 % 1013,3 hPa 0,0 l/m 4,0 km/h (1 Bft) S-SO 157 0 min 0,000 mm 0,0 UV-I 0 W/m 16,6 C 23,8 C 8,0 km/h (2 Bft) 97,87 %
20.07.2019 22:10 24,1 C 25,6 C 22,8 C 62 % 1013,3 hPa 0,0 l/m 3,8 km/h (1 Bft) S-SO 156 0 min 0,000 mm 0,0 UV-I 0 W/m 16,4 C 24,1 C 8,0 km/h (2 Bft) 95,74 %
20.07.2019 22:12 24,2 C 25,6 C 22,8 C 63 % 1013,3 hPa 0,0 l/m 3,1 km/h (1 Bft) S-SO 157 0 min 0,000 mm 0,0 UV-I 0 W/m 16,7 C 24,2 C 4,8 km/h (1 Bft) 97,87 %
20.07.2019 22:14 24,4 C 25,6 C 22,8 C 60 % 1013,3 hPa 0,0 l/m 4,1 km/h (1 Bft) S 176 0 min 0,000 mm 0,0 UV-I 0 W/m 16,1 C 24,4 C 9,7 km/h (2 Bft) 97,37 %
20.07.2019 22:16 24,7 C 25,6 C 22,8 C 60 % 1013,2 hPa 0,0 l/m 4,9 km/h (1 Bft) S-SW 193 0 min 0,000 mm 0,0 UV-I 0 W/m 16,4 C 24,7 C 9,7 km/h (2 Bft) 96,00 %
20.07.2019 22:19 25,2 C 25,6 C 22,8 C 56 % 1013,3 hPa 0,0 l/m 4,5 km/h (1 Bft) S-SO 155 0 min 0,000 mm 0,0 UV-I 0 W/m 15,8 C 25,2 C 11,3 km/h (2 Bft) 97,18 %
20.07.2019 22:20 25,2 C 25,6 C 22,8 C 56 % 1013,3 hPa 0,0 l/m 2,1 km/h (1 Bft) S-SO 155 0 min 0,000 mm 0,0 UV-I 0 W/m 15,8 C 25,2 C 3,2 km/h (1 Bft) 95,65 %
20.07.2019 22:22 25,1 C 25,6 C 22,8 C 60 % 1013,3 hPa 0,0 l/m 3,4 km/h (1 Bft) W-SW 245 0 min 0,000 mm 0,0 UV-I 0 W/m 16,8 C 25,1 C 6,4 km/h (2 Bft) 100,00 %
20.07.2019 22:24 24,6 C 25,6 C 22,8 C 62 % 1013,3 hPa 0,0 l/m 6,1 km/h (2 Bft) SW 234 0 min 0,000 mm 0,0 UV-I 0 W/m 16,8 C 24,6 C 9,7 km/h (2 Bft) 100,00 %
20.07.2019 22:26 24,2 C 25,6 C 22,8 C 63 % 1013,4 hPa 0,0 l/m 6,9 km/h (2 Bft) SW 227 0 min 0,000 mm 0,0 UV-I 0 W/m 16,7 C 24,1 C 8,0 km/h (2 Bft) 95,74 %
20.07.2019 22:28 23,9 C 25,6 C 22,2 C 63 % 1013,2 hPa 0,0 l/m 5,7 km/h (1 Bft) S 177 0 min 0,000 mm 0,0 UV-I 0 W/m 16,4 C 23,9 C 9,7 km/h (2 Bft) 100,00 %
20.07.2019 22:30 24,1 C 25,6 C 22,2 C 63 % 1013,3 hPa 0,0 l/m 5,6 km/h (1 Bft) S-SO 164 0 min 0,000 mm 0,0 UV-I 0 W/m 16,6 C 24,1 C 8,0 km/h (2 Bft) 100,00 %
20.07.2019 22:32 24,3 C 25,6 C 22,8 C 60 % 1013,3 hPa 0,0 l/m 6,9 km/h (2 Bft) S-SO 163 0 min 0,000 mm 0,0 UV-I 0 W/m 16,0 C 24,2 C 8,0 km/h (2 Bft) 100,00 %
20.07.2019 22:34 24,7 C 25,6 C 22,8 C 58 % 1013,3 hPa 0,0 l/m 8,7 km/h (2 Bft) S 172 0 min 0,000 mm 0,0 UV-I 0 W/m 15,9 C 24,1 C 14,5 km/h (3 Bft) 100,00 %
20.07.2019 22:36 24,9 C 25,6 C 23,3 C 57 % 1013,2 hPa 0,0 l/m 6,1 km/h (2 Bft) S-SO 157 0 min 0,000 mm 0,0 UV-I 0 W/m 15,8 C 24,9 C 9,7 km/h (2 Bft) 100,00 %
20.07.2019 22:38 25,1 C 25,6 C 23,3 C 57 % 1013,2 hPa 0,0 l/m 7,3 km/h (2 Bft) S 169 0 min 0,000 mm 0,0 UV-I 0 W/m 16,0 C 24,9 C 12,9 km/h (3 Bft) 100,00 %
20.07.2019 22:40 25,2 C 25,6 C 23,3 C 56 % 1013,2 hPa 0,0 l/m 9,4 km/h (2 Bft) S 173 0 min 0,000 mm 0,0 UV-I 0 W/m 15,8 C 24,5 C 14,5 km/h (3 Bft) 98,08 %
20.07.2019 22:42 25,3 C 25,6 C 23,3 C 56 % 1013,2 hPa 0,0 l/m 9,0 km/h (2 Bft) S-SO 167 0 min 0,000 mm 0,0 UV-I 0 W/m 15,9 C 24,7 C 16,1 km/h (3 Bft) 100,00 %
20.07.2019 22:44 25,2 C 25,6 C 23,3 C 56 % 1013,1 hPa 0,0 l/m 7,7 km/h (2 Bft) SO 133 0 min 0,000 mm 0,0 UV-I 0 W/m 15,8 C 24,9 C 11,3 km/h (2 Bft) 100,00 %
20.07.2019 22:46 25,1 C 25,6 C 23,3 C 57 % 1013,1 hPa 0,0 l/m 8,9 km/h (2 Bft) S 178 0 min 0,000 mm 0,0 UV-I 0 W/m 16,0 C 24,5 C 12,9 km/h (3 Bft) 97,87 %
20.07.2019 22:49 24,9 C 25,6 C 23,3 C 57 % 1013,1 hPa 0,0 l/m 8,9 km/h (2 Bft) SO 135 0 min 0,000 mm 0,0 UV-I 0 W/m 15,8 C 24,3 C 14,5 km/h (3 Bft) 98,68 %
20.07.2019 22:50 24,8 C 25,6 C 23,3 C 57 % 1013,1 hPa 0,0 l/m 7,1 km/h (2 Bft) S 171 0 min 0,000 mm 0,0 UV-I 0 W/m 15,7 C 24,6 C 11,3 km/h (2 Bft) 100,00 %
20.07.2019 22:52 24,8 C 25,6 C 23,3 C 57 % 1013,1 hPa 0,0 l/m 9,4 km/h (2 Bft) S 173 0 min 0,000 mm 0,0 UV-I 0 W/m 15,7 C 24,1 C 16,1 km/h (3 Bft) 100,00 %
20.07.2019 22:54 24,8 C 25,6 C 23,3 C 57 % 1013,1 hPa 0,0 l/m 7,8 km/h (2 Bft) S-SO 163 0 min 0,000 mm 0,0 UV-I 0 W/m 15,7 C 24,4 C 12,9 km/h (3 Bft) 100,00 %
20.07.2019 22:56 24,8 C 25,6 C 23,3 C 57 % 1013,1 hPa 0,0 l/m 8,8 km/h (2 Bft) S-SO 165 0 min 0,000 mm 0,0 UV-I 0 W/m 15,7 C 24,2 C 12,9 km/h (3 Bft) 100,00 %
20.07.2019 22:59 24,8 C 25,6 C 23,3 C 57 % 1013,2 hPa 0,0 l/m 8,0 km/h (2 Bft) SO 135 0 min 0,000 mm 0,0 UV-I 0 W/m 15,7 C 24,4 C 12,9 km/h (3 Bft) 100,00 %
20.07.2019 23:00 24,8 C 25,6 C 22,8 C 57 % 1013,2 hPa 0,0 l/m 8,3 km/h (2 Bft) S 172 0 min 0,000 mm 0,0 UV-I 0 W/m 15,7 C 24,3 C 11,3 km/h (2 Bft) 100,00 %
20.07.2019 23:02 24,7 C 25,6 C 22,8 C 57 % 1013,1 hPa 0,0 l/m 7,8 km/h (2 Bft) SO 145 0 min 0,051 mm 0,0 UV-I 0 W/m 15,6 C 24,3 C 14,5 km/h (3 Bft) 98,00 %
20.07.2019 23:04 24,7 C 25,6 C 22,8 C 57 % 1013,1 hPa 0,0 l/m 7,7 km/h (2 Bft) S-SO 153 0 min 0,000 mm 0,0 UV-I 0 W/m 15,6 C 24,4 C 16,1 km/h (3 Bft) 97,87 %
20.07.2019 23:06 24,8 C 25,6 C 22,8 C 57 % 1013,2 hPa 0,0 l/m 6,6 km/h (2 Bft) S-SW 194 0 min 0,000 mm 0,0 UV-I 0 W/m 15,7 C 24,8 C 9,7 km/h (2 Bft) 100,00 %
20.07.2019 23:08 24,8 C 25,6 C 22,8 C 57 % 1013,1 hPa 0,0 l/m 7,7 km/h (2 Bft) S-SO 151 0 min 0,000 mm 0,0 UV-I 0 W/m 15,7 C 24,5 C 14,5 km/h (3 Bft) 97,87 %
20.07.2019 23:10 24,8 C 25,6 C 22,8 C 57 % 1013,2 hPa 0,0 l/m 7,5 km/h (2 Bft) S-SO 167 0 min 0,000 mm 0,0 UV-I 0 W/m 15,7 C 24,5 C 12,9 km/h (3 Bft) 100,00 %
20.07.2019 23:12 24,8 C 25,6 C 22,8 C 57 % 1013,3 hPa 0,0 l/m 6,7 km/h (2 Bft) S 182 0 min 0,000 mm 0,0 UV-I 0 W/m 15,7 C 24,7 C 9,7 km/h (2 Bft) 100,00 %
20.07.2019 23:14 24,7 C 25,6 C 22,8 C 57 % 1013,2 hPa 0,0 l/m 5,1 km/h (1 Bft) S-SO 160 0 min 0,000 mm 0,0 UV-I 0 W/m 15,6 C 24,7 C 8,0 km/h (2 Bft) 100,00 %
20.07.2019 23:16 24,6 C 25,6 C 22,8 C 58 % 1013,1 hPa 0,0 l/m 5,9 km/h (2 Bft) SO 144 0 min 0,000 mm 0,0 UV-I 0 W/m 15,8 C 24,6 C 8,0 km/h (2 Bft) 98,00 %
20.07.2019 23:18 24,4 C 25,6 C 22,8 C 58 % 1013,2 hPa 0,0 l/m 4,7 km/h (1 Bft) S 169 0 min 0,000 mm 0,0 UV-I 0 W/m 15,6 C 24,4 C 8,0 km/h (2 Bft) 97,44 %
20.07.2019 23:20 24,2 C 25,6 C 22,2 C 59 % 1013,2 hPa 0,0 l/m 4,8 km/h (1 Bft) S-SO 165 0 min 0,000 mm 0,0 UV-I 0 W/m 15,7 C 24,2 C 6,4 km/h (2 Bft) 100,00 %
20.07.2019 23:22 24,1 C 25,6 C 22,2 C 60 % 1013,2 hPa 0,0 l/m 5,2 km/h (1 Bft) S-SO 167 0 min 0,000 mm 0,0 UV-I 0 W/m 15,8 C 24,1 C 8,0 km/h (2 Bft) 100,00 %
20.07.2019 23:24 23,9 C 25,6 C 22,2 C 61 % 1013,3 hPa 0,0 l/m 4,3 km/h (1 Bft) S 170 0 min 0,000 mm 0,0 UV-I 0 W/m 15,9 C 23,9 C 6,4 km/h (2 Bft) 95,74 %
20.07.2019 23:26 23,8 C 25,6 C 21,7 C 61 % 1013,3 hPa 0,0 l/m 3,4 km/h (1 Bft) S-SW 209 0 min 0,000 mm 0,0 UV-I 0 W/m 15,8 C 23,8 C 6,4 km/h (2 Bft) 98,00 %
20.07.2019 23:28 23,8 C 25,6 C 21,7 C 61 % 1013,4 hPa 0,0 l/m 4,3 km/h (1 Bft) S 186 0 min 0,000 mm 0,0 UV-I 0 W/m 15,8 C 23,8 C 6,4 km/h (2 Bft) 97,87 %
20.07.2019 23:30 23,8 C 25,6 C 21,7 C 62 % 1013,4 hPa 0,0 l/m 4,7 km/h (1 Bft) S-SW 209 0 min 0,000 mm 0,0 UV-I 0 W/m 16,1 C 23,8 C 6,4 km/h (2 Bft) 95,74 %
20.07.2019 23:32 23,6 C 25,6 C 21,7 C 63 % 1013,5 hPa 0,0 l/m 5,8 km/h (2 Bft) S 179 0 min 0,000 mm 0,0 UV-I 0 W/m 16,1 C 23,6 C 11,3 km/h (2 Bft) 95,74 %
20.07.2019 23:34 23,3 C 25,6 C 21,7 C 64 % 1013,6 hPa 0,0 l/m 6,7 km/h (2 Bft) SW 223 0 min 0,000 mm 0,0 UV-I 0 W/m 16,1 C 23,2 C 9,7 km/h (2 Bft) 95,74 %
20.07.2019 23:36 23,1 C 25,6 C 21,7 C 65 % 1013,7 hPa 0,0 l/m 7,6 km/h (2 Bft) SW 218 0 min 0,000 mm 0,0 UV-I 0 W/m 16,2 C 22,7 C 11,3 km/h (2 Bft) 93,62 %
20.07.2019 23:39 23,1 C 25,6 C 21,7 C 65 % 1013,8 hPa 0,0 l/m 10,6 km/h (2 Bft) S-SW 194 0 min 0,000 mm 0,0 UV-I 0 W/m 16,2 C 21,9 C 16,1 km/h (3 Bft) 94,37 %
20.07.2019 23:40 23,1 C 25,6 C 22,2 C 65 % 1013,8 hPa 0,0 l/m 9,7 km/h (2 Bft) SW 230 0 min 0,000 mm 0,0 UV-I 0 W/m 16,2 C 22,1 C 16,1 km/h (3 Bft) 95,65 %
20.07.2019 23:42 23,2 C 25,6 C 22,2 C 65 % 1013,7 hPa 0,0 l/m 9,7 km/h (2 Bft) S-SW 197 0 min 0,000 mm 0,0 UV-I 0 W/m 16,2 C 22,3 C 16,1 km/h (3 Bft) 94,00 %
20.07.2019 23:44 23,3 C 25,6 C 22,2 C 65 % 1013,8 hPa 0,0 l/m 10,3 km/h (2 Bft) S-SW 192 0 min 0,000 mm 0,0 UV-I 0 W/m 16,3 C 22,2 C 17,7 km/h (3 Bft) 93,62 %
20.07.2019 23:46 23,3 C 25,6 C 22,2 C 66 % 1013,8 hPa 0,0 l/m 13,5 km/h (3 Bft) S-SW 199 0 min 0,000 mm 0,0 UV-I 0 W/m 16,6 C 21,5 C 17,7 km/h (3 Bft) 92,11 %
20.07.2019 23:48 23,3 C 25,6 C 22,8 C 66 % 1013,9 hPa 0,0 l/m 13,6 km/h (3 Bft) S 187 0 min 0,000 mm 0,0 UV-I 0 W/m 16,6 C 21,5 C 19,3 km/h (3 Bft) 93,75 %
20.07.2019 23:50 23,3 C 25,6 C 22,8 C 66 % 1013,8 hPa 0,0 l/m 11,8 km/h (2 Bft) S-SW 198 0 min 0,000 mm 0,0 UV-I 0 W/m 16,6 C 21,9 C 17,7 km/h (3 Bft) 93,62 %
20.07.2019 23:52 23,3 C 25,6 C 22,8 C 65 % 1013,9 hPa 0,0 l/m 10,9 km/h (2 Bft) S-SW 211 0 min 0,000 mm 0,0 UV-I 0 W/m 16,3 C 22,1 C 17,7 km/h (3 Bft) 94,00 %
20.07.2019 23:54 23,4 C 25,6 C 22,8 C 65 % 1013,9 hPa 0,0 l/m 10,0 km/h (2 Bft) S-SW 193 0 min 0,000 mm 0,0 UV-I 0 W/m 16,4 C 22,4 C 12,9 km/h (3 Bft) 93,62 %
20.07.2019 23:56 23,4 C 25,6 C 22,8 C 64 % 1013,9 hPa 0,0 l/m 10,5 km/h (2 Bft) S-SW 206 0 min 0,000 mm 0,0 UV-I 0 W/m 16,2 C 22,3 C 16,1 km/h (3 Bft) 93,62 %
20.07.2019 23:59 23,6 C 25,6 C 22,8 C 62 % 1013,8 hPa 0,0 l/m 10,2 km/h (2 Bft) S 190 0 min 0,000 mm 0,0 UV-I 0 W/m 15,9 C 22,6 C 16,1 km/h (3 Bft) 97,14 %
_ Min-Zeit 05:02 05:18 03:56 16:00 18:08 - 03:02 - - - - - - 03:54 05:02 03:02 01:44
Minimum _ 15,1 C 23,3 C 13,9 C 35 % 1011,8 hPa - 0,0 km/h (0 Bft) - - - - - - 13,0 C 15,1 C 0,0 km/h (0 Bft) 89,36 %
_ Max-Zeit 15:58 16:30 13:24 06:32 08:30 00:00 23:48 - - 05:36 13:02 12:54 13:08 12:12 16:38 16:14 00:04
Maximum _ 31,7 C 26,1 C 42,8 C 90 % 1014,3 hPa 0,0 l/m 13,6 km/h
S (3 Bft)
- - 2 min 0,610 mm 5,8 UV-I 896 W/m 17,7 C 31,7 C 20,9 km/h
N-NO (4 Bft)
100,00 %
Durchschnitt _ 23,8 C 24,7 C 27,0 C 62 % 1013,3 hPa #0,0 l/m 4,2 km/h (1 Bft) O-SO - #13:02 h #5,639 mm 3,3 UV-I 469 W/m 15,2 C 23,7 C 6,9 km/h (2 Bft) 97,32 %